[[{"header":{"parameterUnit":"m.s-1","parameterCategory":1,"la1":30.6,"la2":28.766,"lo1":-90.7593,"lo2":-88.6598,"dy":0.0162,"dx":0.0183,"nx":116,"ny":114,"refTime":"2024-05-29T12:00:00:Z","depth":0,"parameterNumber":2,"parameterNumberName":"U-component_of_WINDS"},"data":[0.0,0.0,0.0,0.0,0.0,0.0,0.0,0.0,0.0,0.0,0.0,0.0,0.0,0.0,0.0,0.0,0.0,0.0,0.0,0.0,0.0,0.0,0.0,0.0,0.0,0.0,0.0,0.0,0.0,0.0,0.0,0.0,0.0,0.0,0.0,0.0,0.0,0.0,0.0,0.0,0.0,0.0,0.0,0.0,0.0,0.0,0.0,0.0,0.0,0.0,0.0,0.0,0.0,0.0,0.0,0.0,0.0,0.0,0.0,0.0,0.0,0.0,0.0,0.0,0.0,0.0,0.0,0.0,0.0,0.0,0.0,0.0,0.0,0.0,0.0,0.0,0.0,0.0,0.0,0.0,0.0,0.0,0.0,0.0,0.0,0.0,0.0,0.0,0.0,0.0,0.0,0.0,0.0,0.0,0.0,0.0,0.0,0.0,0.0,0.0,0.0,0.0,0.0,0.0,0.0,0.0,0.0,0.0,0.0,0.0,0.0,0.0,0.0,0.0,0.0,0.0,0.0,0.0,0.0,0.0,0.0,0.0,0.0,0.0,0.0,0.0,0.0,0.0,0.0,0.0,0.0,0.0,0.0,0.0,0.0,0.0,0.0,0.0,0.0,0.0,0.0,0.0,0.0,0.0,0.0,0.0,0.0,0.0,0.0,0.0,0.0,0.0,0.0,0.0,0.0,0.0,0.0,0.0,0.0,0.0,0.0,0.0,0.0,0.0,0.0,0.0,0.0,0.0,0.0,0.0,0.0,0.0,0.0,0.0,0.0,0.0,0.0,0.0,0.0,0.0,0.0,0.0,0.0,0.0,0.0,0.0,0.0,0.0,0.0,0.0,0.0,0.0,0.0,0.0,0.0,0.0,0.0,0.0,0.0,0.0,0.0,0.0,0.0,0.0,0.0,0.0,0.0,0.0,0.0,0.0,0.0,0.0,0.0,0.0,0.0,0.0,0.0,0.0,0.0,0.0,0.0,0.0,0.0,0.0,0.0,0.0,0.0,0.0,0.0,0.0,0.0,0.0,0.0,0.0,0.0,0.0,0.0,0.0,0.0,0.0,0.0,0.0,0.0,0.0,0.0,0.0,0.0,0.0,0.0,0.0,0.0,0.0,0.0,0.0,0.0,0.0,0.0,0.0,0.0,0.0,0.0,0.0,0.0,0.0,0.0,0.0,0.0,0.0,0.0,0.0,0.0,0.0,0.0,0.0,0.0,0.0,0.0,0.0,0.0,0.0,0.0,0.0,0.0,0.0,0.0,0.0,0.0,0.0,0.0,0.0,0.0,0.0,0.0,0.0,0.0,0.0,0.0,0.0,0.0,0.0,0.0,0.0,0.0,0.0,0.0,0.0,0.0,0.0,0.0,0.0,0.0,0.0,0.0,0.0,0.0,0.0,0.0,0.0,0.0,0.0,0.0,0.0,0.0,0.0,0.0,0.0,0.0,0.0,0.0,0.0,0.0,0.0,0.0,0.0,0.0,0.0,0.0,0.0,0.0,0.0,0.0,0.0,0.0,0.0,0.0,0.0,0.0,0.0,0.0,0.0,0.0,0.0,0.0,0.0,0.0,0.0,0.0,0.0,0.0,0.0,0.0,0.0,0.0,0.0,0.0,0.0,0.0,0.0,0.0,0.0,0.0,0.0,0.0,0.0,0.0,0.0,0.0,0.0,0.0,0.0,0.0,0.0,0.0,0.0,0.0,0.0,0.0,0.0,0.0,0.0,0.0,0.0,0.0,0.0,0.0,0.0,0.0,0.0,0.0,0.0,0.0,0.0,0.0,0.0,0.0,0.0,0.0,0.0,0.0,0.0,0.0,0.0,0.0,0.0,0.0,0.0,0.0,0.0,0.0,0.0,0.0,0.0,0.0,0.0,0.0,0.0,0.0,0.0,0.0,0.0,0.0,0.0,0.0,0.0,0.0,0.0,0.0,0.0,0.0,0.0,0.0,0.0,0.0,0.0,0.0,0.0,0.0,0.0,0.0,0.0,0.0,0.0,0.0,0.0,0.0,0.0,0.0,0.0,0.0,0.0,0.0,0.0,0.0,0.0,0.0,0.0,0.0,0.0,0.0,0.0,0.0,0.0,0.0,0.0,0.0,0.0,0.0,0.0,0.0,0.0,0.0,0.0,0.0,0.0,0.0,0.0,0.0,0.0,0.0,0.0,0.0,0.0,0.0,0.0,0.0,0.0,0.0,0.0,0.0,0.0,0.0,0.0,0.0,0.0,0.0,0.0,0.0,0.0,0.0,0.0,0.0,0.0,0.0,0.0,0.0,0.0,0.0,0.0,0.0,0.0,0.0,0.0,0.0,0.0,0.0,0.0,0.0,0.0,0.0,0.0,0.0,0.0,0.0,0.0,0.0,0.0,0.0,0.0,0.0,0.0,0.0,0.0,0.0,0.0,0.0,0.0,0.0,0.0,0.0,0.0,0.0,0.0,0.0,0.0,0.0,0.0,0.0,0.0,0.0,0.0,0.0,0.0,0.0,0.0,0.0,0.0,0.0,0.0,0.0,0.0,0.0,0.0,0.0,0.0,0.0,0.0,0.0,0.0,0.0,0.0,0.0,0.0,0.0,0.0,0.0,0.0,0.0,0.0,0.0,0.0,0.0,0.0,0.0,0.0,0.0,0.0,0.0,0.0,0.0,0.0,0.0,0.0,0.0,0.0,0.0,0.0,0.0,0.0,0.0,0.0,0.0,0.0,0.0,0.0,0.0,0.0,0.0,0.0,0.0,0.0,0.0,0.0,0.0,0.0,0.0,0.0,0.0,0.0,0.0,0.0,0.0,0.0,0.0,0.0,0.0,0.0,0.0,0.0,0.0,0.0,0.0,0.0,0.0,0.0,0.0,0.0,0.0,0.0,0.0,0.0,0.0,0.0,0.0,0.0,0.0,0.0,0.0,0.0,0.0,0.0,0.0,0.0,0.0,0.0,0.0,0.0,0.0,0.0,0.0,0.0,0.0,0.0,0.0,0.0,0.0,0.0,0.0,0.0,0.0,0.0,0.0,0.0,0.0,0.0,0.0,0.0,0.0,0.0,0.0,0.0,0.0,0.0,0.0,0.0,0.0,0.0,0.0,0.0,0.0,0.0,0.0,0.0,0.0,0.0,0.0,0.0,0.0,0.0,0.0,0.0,0.0,0.0,0.0,0.0,0.0,0.0,0.0,0.0,0.0,0.0,0.0,0.0,0.0,0.0,0.0,0.0,0.0,0.0,0.0,0.0,0.0,0.0,0.0,0.0,0.0,0.0,0.0,0.0,0.0,0.0,0.0,0.0,0.0,0.0,0.0,0.0,0.0,0.0,0.0,0.0,0.0,0.0,0.0,0.0,0.0,0.0,0.0,0.0,0.0,0.0,0.0,0.0,0.0,0.0,0.0,0.0,0.0,0.0,0.0,0.0,0.0,0.0,0.0,0.0,0.0,0.0,0.0,0.0,0.0,0.0,0.0,0.0,0.0,0.0,0.0,0.0,0.0,0.0,0.0,0.0,0.0,0.0,0.0,0.0,0.0,0.0,0.0,0.0,0.0,0.0,0.0,0.0,0.0,0.0,0.0,0.0,0.0,0.0,0.0,0.0,0.0,0.0,0.0,0.0,0.0,0.0,0.0,0.0,0.0,0.0,0.0,0.0,0.0,0.0,0.0,0.0,0.0,0.0,0.0,0.0,0.0,0.0,0.0,0.0,0.0,0.0,0.0,0.0,0.0,0.0,0.0,0.0,0.0,0.0,0.0,0.0,0.0,0.0,0.0,0.0,0.0,0.0,0.0,0.0,0.0,0.0,0.0,0.0,0.0,0.0,0.0,0.0,0.0,0.0,0.0,0.0,0.0,0.0,0.0,0.0,0.0,0.0,0.0,0.0,0.0,0.0,0.0,0.0,0.0,0.0,0.0,0.0,0.0,0.0,0.0,0.0,0.0,0.0,0.0,0.0,0.0,0.0,0.0,0.0,0.0,0.0,0.0,0.0,0.0,0.0,0.0,0.0,0.0,0.0,0.0,0.0,0.0,0.0,0.0,0.0,0.0,0.0,0.0,0.0,0.0,0.0,0.0,0.0,0.0,0.0,0.0,0.0,0.0,0.0,0.0,0.0,0.0,0.0,0.0,0.0,0.0,0.0,0.0,0.0,0.0,0.0,0.0,0.0,0.0,0.0,0.0,0.0,0.0,0.0,0.0,0.0,0.0,0.0,0.0,0.0,0.0,0.0,0.0,0.0,0.0,0.0,0.0,0.0,0.0,0.0,0.0,0.0,0.0,0.0,0.0,0.0,0.0,0.0,0.0,0.0,0.0,0.0,0.0,0.0,0.0,0.0,0.0,0.0,0.0,0.0,0.0,0.0,0.0,0.0,0.0,0.0,0.0,0.0,0.0,0.0,0.0,0.0,0.0,0.0,0.0,0.0,0.0,0.0,0.0,0.0,0.0,0.0,0.0,0.0,0.0,0.0,0.0,0.0,0.0,0.0,0.0,0.0,0.0,0.0,0.0,0.0,0.0,0.0,0.0,0.0,0.0,0.0,0.0,0.0,0.0,0.0,0.0,0.0,0.0,0.0,0.0,0.0,0.0,0.0,0.0,0.0,0.0,0.0,0.0,0.0,0.0,0.0,0.0,0.0,0.0,0.0,0.0,0.0,0.0,0.0,0.0,0.0,0.0,0.0,0.0,0.0,0.0,0.0,0.0,0.0,0.0,0.0,0.0,0.0,0.0,0.0,0.0,0.0,0.0,0.0,0.0,0.0,0.0,0.0,0.0,0.0,0.0,0.0,0.0,0.0,0.0,0.0,0.0,0.0,0.0,0.0,0.0,0.0,0.0,0.0,0.0,0.0,0.0,0.0,0.0,0.0,0.0,0.0,0.0,0.0,0.0,0.0,0.0,0.0,0.0,0.0,0.0,0.0,0.0,0.0,0.0,0.0,0.0,0.0,0.0,0.0,0.0,0.0,0.0,0.0,0.0,0.0,0.0,0.0,0.0,0.0,0.0,0.0,0.0,0.0,0.0,0.0,0.0,0.0,0.0,0.0,0.0,0.0,0.0,0.0,0.0,0.0,0.0,0.0,0.0,0.0,0.0,0.0,0.0,0.0,0.0,0.0,0.0,0.0,0.0,0.0,0.0,0.0,0.0,0.0,0.0,0.0,0.0,0.0,0.0,0.0,0.0,0.0,0.0,0.0,0.0,0.0,0.0,0.0,0.0,0.0,0.0,0.0,0.0,0.0,0.0,0.0,0.0,0.0,0.0,0.0,0.0,0.0,0.0,0.0,0.0,0.0,0.0,0.0,0.0,0.0,0.0,0.0,0.0,0.0,0.0,0.0,0.0,0.0,0.0,0.0,0.0,0.0,0.0,0.0,0.0,0.0,0.0,0.0,0.0,0.0,0.0,0.0,0.0,0.0,0.0,0.0,0.0,0.0,0.0,0.0,0.0,0.0,0.0,0.0,0.0,0.0,0.0,0.0,0.0,0.0,0.0,0.0,0.0,0.0,0.0,0.0,0.0,0.0,0.0,0.0,0.0,0.0,0.0,0.0,0.0,0.0,0.0,0.0,0.0,0.0,0.0,0.0,0.0,0.0,0.0,0.0,0.0,0.0,0.0,0.0,0.0,0.0,0.0,0.0,0.0,0.0,0.0,0.0,0.0,0.0,0.0,0.0,0.0,0.0,0.0,0.0,0.0,0.0,0.0,0.0,0.0,0.0,0.0,0.0,0.0,0.0,0.0,0.0,0.0,0.0,0.0,0.0,0.0,0.0,0.0,0.0,0.0,0.0,0.0,0.0,0.0,0.0,0.0,0.0,0.0,0.0,0.0,0.0,0.0,0.0,0.0,0.0,0.0,0.0,0.0,0.0,0.0,0.0,0.0,0.0,0.0,0.0,0.0,0.0,0.0,0.0,0.0,0.0,0.0,0.0,0.0,0.0,0.0,0.0,0.0,0.0,0.0,0.0,0.0,0.0,0.0,0.0,0.0,0.0,0.0,0.0,0.0,0.0,0.0,0.0,0.0,0.0,0.0,0.0,0.0,0.0,0.0,0.0,0.0,0.0,0.0,0.0,0.0,0.0,0.0,0.0,0.0,0.0,0.0,0.0,0.0,0.0,0.0,0.0,-4.5076,0.0,0.0,0.0,0.0,0.0,0.0,0.0,0.0,0.0,0.0,0.0,0.0,0.0,0.0,0.0,0.0,0.0,0.0,0.0,0.0,0.0,0.0,0.0,0.0,-3.2993,-3.349,-3.2222,-3.2489,-3.2699,-3.2699,0.0,0.0,0.0,0.0,0.0,-3.1408,-3.0987,-3.0987,-3.1408,-3.1006,-3.1047,-3.1439,-3.1058,-3.0682,-3.0348,0.0,0.0,0.0,0.0,0.0,0.0,0.0,0.0,0.0,0.0,0.0,0.0,0.0,0.0,0.0,0.0,0.0,0.0,0.0,0.0,0.0,0.0,0.0,0.0,0.0,0.0,0.0,0.0,0.0,0.0,0.0,0.0,0.0,0.0,0.0,0.0,0.0,0.0,0.0,0.0,0.0,0.0,0.0,0.0,0.0,0.0,0.0,0.0,0.0,0.0,0.0,0.0,0.0,0.0,0.0,0.0,0.0,0.0,0.0,0.0,0.0,0.0,0.0,0.0,0.0,0.0,0.0,0.0,0.0,0.0,0.0,-4.5498,0.0,0.0,0.0,0.0,0.0,0.0,0.0,0.0,0.0,0.0,0.0,0.0,0.0,0.0,0.0,0.0,0.0,0.0,0.0,0.0,0.0,-3.0776,-3.0254,-3.2344,-3.3223,-3.1828,-3.2451,-3.2986,-3.3138,-3.3138,0.0,0.0,0.0,-3.2852,-3.2699,-3.1859,-3.184,-3.2699,-3.2031,-3.2072,-3.2771,-3.2051,-3.1365,-3.0727,-3.0489,0.0,0.0,0.0,0.0,0.0,0.0,0.0,0.0,0.0,0.0,0.0,0.0,0.0,0.0,0.0,0.0,0.0,0.0,0.0,0.0,0.0,0.0,0.0,0.0,0.0,0.0,0.0,0.0,0.0,0.0,0.0,0.0,0.0,0.0,0.0,0.0,0.0,0.0,0.0,0.0,0.0,0.0,0.0,0.0,0.0,0.0,0.0,0.0,0.0,0.0,0.0,0.0,0.0,0.0,0.0,0.0,0.0,0.0,0.0,0.0,0.0,0.0,0.0,-4.7994,-4.7957,-4.7314,-4.7314,-4.7314,-4.7259,-4.6617,-4.6636,-4.7058,0.0,0.0,0.0,0.0,0.0,0.0,0.0,0.0,0.0,0.0,0.0,0.0,0.0,0.0,0.0,0.0,0.0,0.0,0.0,0.0,-3.0095,-3.0197,-3.1809,-3.2776,-3.2565,-3.3337,-3.412,-3.4819,-3.4857,0.0,0.0,-3.3834,-3.3471,-3.2718,-3.1897,-3.1878,-3.2699,-3.2585,-3.2604,-3.2707,-3.2668,-3.2575,-3.2417,-3.0957,-3.0305,-3.031,0.0,0.0,0.0,0.0,0.0,0.0,0.0,0.0,0.0,0.0,0.0,0.0,0.0,0.0,0.0,0.0,0.0,0.0,0.0,0.0,0.0,0.0,0.0,0.0,0.0,0.0,0.0,0.0,0.0,0.0,0.0,0.0,0.0,0.0,0.0,0.0,0.0,0.0,0.0,0.0,0.0,-4.1705,-4.3766,0.0,0.0,0.0,0.0,0.0,0.0,0.0,0.0,0.0,0.0,0.0,0.0,0.0,-4.7535,-4.8141,-4.8251,-4.8251,-4.8141,-4.8251,-4.8251,-4.8141,-4.8141,-4.8141,-4.8141,-4.8031,0.0,-4.7094,-4.6984,0.0,0.0,0.0,0.0,0.0,0.0,0.0,0.0,0.0,0.0,0.0,0.0,0.0,0.0,0.0,0.0,0.0,0.0,0.0,0.0,0.0,-3.2134,-3.3242,-3.2737,-3.3509,-3.4331,-3.5152,-3.4789,-3.4369,-3.4014,-3.4426,-3.4273,-3.3452,-3.3089,-3.307,-3.3433,-3.3883,-3.4113,-3.4093,-3.3677,-3.3475,-3.3425,-3.2209,-3.1677,-3.1674,-3.1213,0.0,0.0,0.0,0.0,0.0,0.0,0.0,0.0,0.0,0.0,0.0,0.0,0.0,0.0,0.0,0.0,0.0,0.0,0.0,0.0,0.0,0.0,0.0,0.0,0.0,0.0,0.0,0.0,0.0,0.0,0.0,0.0,0.0,0.0,0.0,0.0,0.0,0.0,0.0,-4.1181,-4.2992,-4.3867,-4.4321,-4.4413,0.0,0.0,0.0,0.0,0.0,0.0,0.0,0.0,0.0,-4.8471,-4.8948,-4.9352,-4.9701,-4.9719,-4.9719,-4.9719,-4.9719,-4.9462,-4.9022,-4.9022,-4.8765,-4.8306,-4.8306,-4.8104,-4.7755,-4.7755,-4.7296,-4.6562,0.0,0.0,0.0,0.0,-4.5902,-4.5957,0.0,0.0,0.0,0.0,0.0,0.0,0.0,0.0,0.0,0.0,0.0,0.0,-3.0171,-3.1893,-3.286,-3.2432,-3.2974,-3.3681,-3.4514,-3.4216,-3.3995,-3.3995,-3.477,-3.4827,-3.4014,-3.3995,-3.3995,-3.3995,-3.4808,-3.5209,-3.519,-3.4598,-3.4312,-3.4273,-3.3635,-3.3138,-3.2764,-3.217,-3.1788,-3.1546,0.0,0.0,0.0,0.0,0.0,0.0,0.0,0.0,0.0,0.0,0.0,0.0,0.0,0.0,0.0,0.0,0.0,0.0,0.0,0.0,0.0,0.0,0.0,0.0,0.0,0.0,0.0,0.0,0.0,0.0,0.0,0.0,0.0,0.0,0.0,0.0,0.0,-4.2684,-4.3837,-4.4046,-4.4764,-4.5023,0.0,0.0,0.0,0.0,0.0,0.0,-4.7484,-4.8285,-4.9105,-4.9866,-5.049,-5.0802,-5.0802,-5.0802,-5.0802,-5.0802,-5.0802,-5.049,-4.9922,-4.9922,-4.9554,-4.893,-4.8728,-4.8636,-4.8618,-4.8398,-4.7957,-4.7406,-4.7406,-4.7058,-4.6507,-4.6507,-4.6507,-4.6599,0.0,0.0,0.0,0.0,0.0,0.0,0.0,0.0,0.0,0.0,0.0,-2.9988,-3.0171,-3.0307,-3.0701,-3.1484,-3.1541,-3.1897,-3.2776,-3.3566,-3.3995,-3.3995,-3.477,-3.4827,-3.4014,-3.3995,-3.3995,-3.3995,-3.4808,-3.5209,-3.5209,-3.5171,-3.5152,-3.5152,-3.5095,-3.4232,-3.2804,-3.2766,-3.2302,-3.1608,-3.1551,0.0,0.0,0.0,0.0,0.0,0.0,0.0,0.0,0.0,0.0,0.0,0.0,0.0,0.0,0.0,0.0,0.0,0.0,0.0,0.0,0.0,0.0,0.0,0.0,0.0,0.0,0.0,0.0,0.0,0.0,0.0,0.0,0.0,0.0,0.0,0.0,0.0,0.0,-4.4654,-4.4304,0.0,0.0,0.0,0.0,-4.6793,-4.7507,-4.8681,-5.0483,-5.0165,-5.018,-5.0708,-5.0784,-5.0802,-5.0802,-5.0802,-5.0802,-5.0802,-5.0802,-5.0784,-5.0747,-5.0747,-5.0729,-5.0637,-4.9886,-4.9537,-4.9482,-4.8636,-4.8288,-4.8251,-4.8251,-4.8214,-4.8177,-4.8177,-4.8177,-4.8196,0.0,0.0,0.0,0.0,0.0,-2.5668,-2.6484,-2.7454,-2.8423,-2.9293,-2.9689,-2.994,-3.0003,-3.0624,-3.1159,-3.1465,-3.1484,-3.1821,-3.2661,-3.247,-3.2573,-3.3138,-3.3444,-3.3704,-3.3928,-3.4486,-3.4773,-3.4767,-3.5059,-3.4942,-3.4426,-3.4426,-3.4426,-3.4426,-3.4426,-3.4396,-3.4308,-3.38,-3.3414,-3.3099,-3.2534,-3.2084,0.0,0.0,0.0,0.0,0.0,0.0,0.0,0.0,0.0,0.0,0.0,0.0,0.0,0.0,0.0,0.0,0.0,0.0,0.0,0.0,0.0,0.0,0.0,0.0,0.0,0.0,0.0,0.0,0.0,0.0,0.0,0.0,0.0,0.0,0.0,0.0,0.0,-4.5493,-4.5463,0.0,-4.6224,-4.676,-4.7319,-4.7925,-4.8792,-4.9577,-5.0259,-5.0933,-5.137,-5.1573,-5.2068,-5.2344,-5.2344,-5.2344,-5.2344,-5.2344,-5.2344,-5.2068,-5.1573,-5.1573,-5.1279,-5.0784,-5.049,-5.005,-4.9499,-4.9242,-4.8802,-4.8306,-4.8306,-4.8306,-4.8306,-4.8306,-4.8306,-4.8306,0.0,0.0,0.0,0.0,-2.5099,-2.597,-2.6521,-2.7622,-2.8616,-2.9219,-2.9598,-2.983,-2.9888,-3.0586,-3.1064,-3.1064,-3.1064,-3.1293,-3.1821,-3.1591,-3.1687,-3.2241,-3.2546,-3.3199,-3.4309,-3.4639,-3.4926,-3.5206,-3.5193,-3.4789,-3.3995,-3.3995,-3.3834,-3.3566,-3.3872,-3.4292,-3.4789,-3.4522,-3.4251,-3.3941,-3.3364,-3.2982,-3.2684,0.0,0.0,0.0,0.0,0.0,0.0,0.0,0.0,0.0,0.0,0.0,0.0,0.0,0.0,0.0,0.0,0.0,0.0,0.0,0.0,0.0,0.0,0.0,0.0,0.0,0.0,0.0,0.0,0.0,0.0,0.0,0.0,0.0,0.0,0.0,-4.4603,-4.5818,-4.601,-4.6357,-4.7256,-4.772,-4.8214,-4.8758,-4.9468,-5.0142,-5.0778,-5.165,-5.2233,-5.2399,-5.2931,-5.3185,-5.3185,-5.3185,-5.3185,-5.3185,-5.3185,-5.2931,-5.2399,-5.2399,-5.2105,-5.1591,-5.1316,-5.0875,-5.0288,-4.9812,-4.9242,-4.871,-4.8416,-4.8306,-4.8306,-4.8306,-4.8306,-4.8306,0.0,0.0,0.0,-2.419,-2.5529,-2.6602,-2.6602,-2.7959,-2.9078,-2.928,-2.9474,-2.9672,-2.9872,-3.0091,-3.0211,-3.0211,-3.0211,-3.0211,-3.0211,-3.0987,-3.1446,-3.14,-3.226,-3.3501,-3.5125,-3.4426,-3.4426,-3.5201,-3.5201,-3.4789,-3.3995,-3.3975,-3.3509,-3.2737,-3.3566,-3.3956,-3.4052,-3.4827,-3.4732,-3.4052,-3.4052,-3.3528,-3.276,0.0,0.0,0.0,0.0,0.0,0.0,0.0,0.0,0.0,0.0,0.0,0.0,0.0,0.0,0.0,0.0,0.0,0.0,0.0,0.0,0.0,0.0,0.0,0.0,0.0,0.0,0.0,0.0,0.0,0.0,0.0,0.0,0.0,-4.3426,-4.413,-4.4891,-4.5652,-4.5869,-4.6243,-4.7003,-4.7347,-4.809,-4.9334,-4.9565,-5.0429,-5.2284,-5.2384,-5.2631,-5.3185,-5.3185,-5.3185,-5.3185,-5.3185,-5.3185,-5.3185,-5.3185,-5.3185,-5.3185,-5.3185,-5.3185,-5.317,-5.238,-5.2013,-5.1887,-5.0326,-4.9647,-4.9519,-4.8636,-4.8306,-4.8306,-4.8306,-4.8306,-4.8306,0.0,0.0,-2.419,-2.419,-2.5529,-2.6602,-2.6602,-2.7959,-2.9028,-2.9078,-2.9375,-2.9626,-2.9681,-2.9984,-3.0211,-3.0211,-3.0211,-3.0211,-3.0211,-3.0414,-3.0815,-3.1381,-3.284,-3.3802,-3.4183,-3.4628,-3.4952,-3.5127,-3.5181,-3.4795,-3.3995,-3.3356,-3.2928,-3.268,-3.2344,-3.286,-3.4014,-3.4235,-3.4541,-3.4866,-3.4866,-3.4732,-3.4514,0.0,0.0,0.0,0.0,0.0,0.0,0.0,0.0,0.0,0.0,0.0,0.0,0.0,0.0,0.0,0.0,0.0,0.0,0.0,0.0,0.0,0.0,0.0,0.0,0.0,0.0,0.0,0.0,0.0,0.0,0.0,-4.3758,-4.4265,-4.4265,-4.4908,-4.5669,-4.6413,-4.7001,-4.767,-4.8519,-4.8677,-4.9083,-5.0008,-5.009,-5.0709,-5.2107,-5.2177,-5.2486,-5.3185,-5.3185,-5.3185,-5.3185,-5.3185,-5.3185,-5.3185,-5.3185,-5.3185,-5.3185,-5.3185,-5.3185,-5.3206,-5.2968,-5.2546,-5.1958,-5.1518,-5.0657,-4.9519,-4.8636,-4.8306,-4.8306,-4.8306,-4.8306,-4.8306,0.0,-2.419,-2.43,-2.464,-2.575,-2.6722,-2.7053,-2.818,-2.9005,-2.9005,-2.9363,-2.9608,-2.9608,-2.9961,-3.0211,-3.0211,-3.0211,-3.0211,-3.0211,-3.0529,-3.1274,-3.2439,-3.3452,-3.4124,-3.4372,-3.4931,-3.5179,-3.5153,-3.5179,-3.4784,-3.3995,-3.349,-3.3043,-3.268,-3.2203,-3.2745,-3.3995,-3.3995,-3.4464,-3.5209,-3.5209,-3.5209,-3.5209,-3.5209,-3.528,-3.5306,-3.4566,-3.4712,-3.5126,-3.4392,0.0,0.0,0.0,0.0,0.0,0.0,0.0,0.0,0.0,0.0,0.0,0.0,0.0,0.0,0.0,0.0,0.0,0.0,0.0,0.0,0.0,0.0,0.0,0.0,-4.4553,-4.5162,-4.5495,-4.5889,-4.643,-4.7175,-4.7648,-4.8237,-4.904,-4.9168,-4.9394,-4.9815,-5.0387,-5.1025,-5.1734,-5.2266,-5.2747,-5.3185,-5.3185,-5.3185,-5.3185,-5.3185,-5.3185,-5.3185,-5.3185,-5.3185,-5.3185,-5.3185,-5.3185,0.0,-5.3185,-5.2931,-5.2472,-5.2142,-5.1465,0.0,0.0,0.0,0.0,0.0,-4.8306,-4.8306,0.0,-2.441,-2.4704,-2.5411,-2.619,-2.6979,-2.7688,-2.8484,-2.9005,-2.9005,-2.9363,-2.9608,-2.9608,-2.9961,-3.0211,-3.0211,-3.0211,-3.0249,-3.0338,-3.1255,-3.2439,-3.3937,-3.409,-3.4464,-3.5182,-3.5201,-3.5201,-3.5201,-3.5201,-3.4819,-3.4128,-3.3929,-3.349,-3.2833,-3.2642,-3.3081,-3.3995,-3.3995,-3.4464,-3.5209,-3.5209,-3.5209,-3.5209,-3.5305,-3.5737,-3.6244,-3.5948,-3.6358,-3.6954,-3.6578,0.0,0.0,0.0,0.0,0.0,0.0,0.0,0.0,0.0,0.0,0.0,0.0,0.0,0.0,0.0,0.0,0.0,0.0,0.0,0.0,0.0,0.0,0.0,0.0,-4.5399,-4.6177,-4.6819,-4.6989,-4.7259,-4.7821,-4.7956,-4.8261,-4.8951,-4.9107,-4.9168,-4.9168,-5.0397,-5.1181,-5.1258,0.0,0.0,0.0,0.0,-5.3185,-5.3185,-5.3185,-5.3185,-5.3185,-5.3185,-5.3185,-5.3185,-5.3185,-5.3185,-5.3185,-5.3185,-5.3185,-5.313,-5.2435,-5.2032,-5.1701,-5.0198,-4.9058,-4.8306,-4.8306,-4.8306,-4.8306,0.0,-2.5695,-2.619,-2.6337,-2.7034,-2.7622,-2.778,-2.8484,-2.9005,-2.9005,-2.9363,-2.9608,-2.9608,-2.9961,-3.0211,-3.0211,-3.0211,-3.0491,-3.1197,-3.2669,-3.367,-3.3995,-3.4617,-3.504,-3.5198,-3.5198,-3.5198,-3.5198,-3.5198,-3.5119,-3.4942,-3.3578,-3.3242,-3.3681,-3.2286,-3.2535,-3.3995,-3.3995,-3.4464,-3.5209,-3.5209,-3.5209,-3.5286,-3.5984,-3.6712,-3.7327,-3.6898,-3.7694,-3.8783,-3.7645,-3.7194,-3.704,-3.6524,-3.599,0.0,0.0,0.0,0.0,0.0,0.0,0.0,0.0,0.0,0.0,0.0,0.0,0.0,0.0,0.0,0.0,0.0,0.0,0.0,-4.5365,-4.6616,-4.7517,-4.7682,-4.8206,-4.8409,-4.7939,-4.8443,-4.8849,-4.8984,-4.9032,-4.9032,-4.9032,-4.9727,-5.0404,-5.0964,-5.1665,-5.2366,-5.302,-5.3042,-5.3082,-5.3185,-5.3185,-5.3185,-5.3185,0.0,0.0,-5.3185,-5.3185,-5.3185,-5.3185,-5.3185,-5.3185,-5.3206,-5.3041,-5.2215,-5.0949,-4.9978,-4.9058,-4.8306,-4.8306,-4.8306,-4.8306,-2.6657,-2.6615,-2.6741,-2.7126,-2.753,-2.7934,-2.8338,-2.873,-2.9005,-2.9005,-2.927,-2.9494,-2.9598,-2.9872,-3.0079,-3.0185,-3.0605,-3.1217,-3.205,-3.328,-3.4186,-3.4579,-3.4999,-3.5193,-3.5196,-3.5196,-3.5196,-3.5196,-3.5196,-3.5204,-3.519,-3.4342,-3.417,-3.4541,-3.3261,-3.3414,-3.456,-3.4167,-3.4464,-3.5209,-3.5209,-3.5209,-3.5305,-3.6175,-3.7005,-3.7687,-3.7626,-3.8413,-3.9352,-3.8416,-3.8086,-3.7961,-3.7421,-3.7148,-3.6943,0.0,0.0,0.0,0.0,0.0,0.0,0.0,0.0,0.0,0.0,0.0,0.0,0.0,0.0,-4.3673,-4.4434,0.0,-4.5923,-4.6684,-4.7415,-4.8024,-4.8409,-4.8781,-4.8866,-4.8494,-4.8781,-4.9001,-4.9001,-4.9001,-4.9001,-4.9001,-4.958,-5.0079,-5.0435,-5.1095,-5.1795,-5.2531,-5.2554,-5.2769,-5.3185,-5.3185,-5.3185,-5.3185,-5.3185,-5.3185,-5.3185,-5.3185,-5.3185,-5.3185,-5.3185,-5.3185,-5.3185,-5.3185,-5.2491,-5.1316,-5.0508,-4.9426,-4.8306,-4.8306,-4.8306,-4.8306,-2.8124,-2.7573,-2.7284,-2.7915,-2.8026,-2.8246,-2.8895,-2.9005,-2.9005,-2.9005,-2.9192,-2.9385,-2.958,-2.9787,-2.9988,-3.0178,-3.114,-3.2012,-3.2661,-3.3662,-3.4522,-3.5171,-3.5209,-3.5209,-3.5209,-3.5209,-3.5209,-3.5209,-3.5209,-3.5209,-3.5209,-3.5037,-3.5057,-3.5171,-3.435,-3.4541,-3.5411,-3.4751,-3.4942,-3.5668,-3.5515,-3.5553,-3.5763,-3.6462,-3.7139,-3.7735,-3.8067,-3.877,-3.9427,-3.8881,-3.8707,-3.8611,-3.8083,-3.8169,-3.8302,-3.7707,-3.7774,0.0,0.0,0.0,0.0,0.0,0.0,0.0,0.0,-4.2625,-4.2777,-4.3646,-4.4367,-4.5026,-4.5788,-4.6515,-4.7208,-4.7787,-4.8007,-4.8342,-4.8917,-4.9001,-4.9001,-4.9001,-4.9001,-4.9001,-4.9001,-4.9001,-4.9001,-4.9001,-4.9593,-4.9993,-4.9993,-5.0761,-5.1462,-5.2018,-5.2154,-5.2509,-5.3146,-5.3164,-5.3185,-5.3185,-5.3185,-5.3185,-5.3185,-5.3185,-5.3185,-5.3185,-5.3185,-5.3185,-5.3185,-5.3185,-5.2729,-5.194,-5.1279,-5.0105,-4.8746,-4.8416,-4.8306,-4.8306,0.0,-2.8887,-2.8816,-2.887,-2.8877,-2.8895,-2.8987,-2.9005,-2.9005,-2.9005,-2.9192,-2.9385,-2.958,-2.9787,-2.9988,-3.0178,-3.1649,-3.2604,-3.2699,-3.417,-3.5114,-3.5209,-3.5209,-3.5209,-3.5209,-3.5209,-3.5209,-3.5209,-3.5209,-3.5209,-3.519,-3.4464,-3.4522,-3.5171,-3.435,-3.4885,-3.6347,-3.6252,-3.668,-3.7349,-3.6634,-3.6776,-3.7426,-3.7521,-3.7617,-3.7735,-3.8067,-3.877,-3.9427,-3.8881,-3.8707,-3.8676,-3.8417,-3.8592,-3.8795,-3.8124,-3.8204,-3.8287,-3.7199,-3.733,-3.8447,-4.1238,-4.1627,-4.1847,0.0,-4.3792,-4.368,-4.5145,-4.5517,-4.5805,-4.6532,-4.7293,-4.7787,-4.7872,-4.846,-4.8917,-4.8984,-4.9001,-4.9001,-4.9001,-4.9001,-4.9001,-4.9001,-4.9001,-4.9001,-4.9001,-4.9585,-4.9902,-4.9902,-5.0964,-5.1633,-5.1831,-5.2302,-5.2702,-5.302,-5.302,-5.3082,-5.3185,-5.3185,-5.3185,-5.3185,-5.3185,-5.3185,-5.3185,-5.3185,-5.3185,-5.3185,-5.3185,-5.2729,-5.1977,-5.1885,-5.1316,-5.0343,-4.8857,-4.8306,-4.8306,0.0,-2.9152,-2.9096,-2.9055,-2.9028,-2.9005,-2.9005,-2.9005,-2.9005,-2.9005,-2.9078,-2.9249,-2.957,-2.9888,-3.0304,-3.0846,-3.2041,-3.2955,-3.3433,-3.4596,-3.5266,-3.5261,-3.5261,-3.5234,-3.5209,-3.5209,-3.5209,-3.5209,-3.5209,-3.5209,-3.519,-3.4866,-3.5152,-3.5946,-3.5611,-3.6107,-3.7196,-3.7196,-3.7387,-3.7674,-3.733,-3.7406,-3.775,-3.8266,-3.8457,-3.8498,-3.8833,-3.9183,0.0,-3.8881,-3.8707,-3.8658,-3.8465,-3.8489,-3.8602,-3.8629,-3.8438,-3.8069,-3.7587,-3.8616,-4.0121,-4.1356,-4.2083,-4.2861,-4.4293,-4.4333,-4.4401,-4.5483,-4.6041,-4.6566,-4.731,-4.8054,-4.8545,-4.8545,-4.8798,-4.9001,-4.9001,-4.9001,-4.9001,-4.9001,-4.9001,-4.9001,-4.9001,-4.9001,-4.9001,-4.9001,-4.9212,-4.9526,-4.989,-5.0338,-5.0991,-5.1757,-5.2018,-5.2412,-5.298,-5.2999,-5.3082,-5.3185,-5.3185,-5.3185,-5.3185,-5.3185,-5.3185,-5.3185,-5.3185,-5.3185,-5.3185,-5.3185,-5.3004,-5.2656,-5.2179,-5.1775,-5.1298,-4.9664,-4.9058,-4.8967,0.0,-2.9218,-2.9152,-2.9119,-2.9062,-2.9028,-2.9005,-2.9005,-2.9005,-2.9005,-2.9005,-2.9149,-2.9561,-2.9961,-3.0536,-3.1365,-3.2261,-3.3144,-3.3975,-3.4833,-3.5293,-3.5308,-3.5308,-3.5285,-3.5226,-3.5455,-3.5562,-3.5564,-3.5783,-3.5897,-3.5897,-3.5897,-3.6241,-3.6825,-3.6825,-3.7292,-3.8056,-3.8056,-3.819,-3.84,-3.8151,-3.819,-3.8457,-3.8858,-3.9145,-3.9376,-3.9455,-3.9514,-3.9371,-3.8619,-3.849,-3.8572,-3.8193,-3.8239,-3.8522,-3.8728,-3.8365,-3.799,-3.8396,-3.9529,-4.0696,-4.1102,-4.2168,-4.3301,-4.4079,-4.4445,-4.4818,-4.5551,-4.6295,-4.7022,-4.7753,-4.8511,-4.9001,-4.9001,-4.9001,-4.9001,-4.9001,-4.9001,-4.9001,-4.9001,-4.9001,-4.9001,-4.9001,-4.9001,-4.9001,-4.9001,-4.9001,-4.9199,-4.9644,-4.9959,-5.0525,-5.1465,-5.1824,-5.2291,-5.2893,-5.2893,-5.2977,-5.3124,-5.3124,-5.3164,-5.3185,-5.3185,-5.3185,-5.3185,-5.3185,-5.3185,-5.3185,-5.3185,-5.3185,-5.313,-5.2564,-5.2325,-5.216,-5.0785,-4.9978,-4.9519,0.0,0.0,-2.924,-2.9112,-2.9108,-2.9085,-2.9017,-2.9005,-2.9005,-2.9005,-2.9005,-2.9149,-2.9561,-2.9961,-3.055,-3.1426,-3.2295,-3.3178,-3.4031,-3.4855,-3.5308,-3.5308,-3.5308,-3.5304,-3.5304,-3.6058,-3.6455,-3.6462,-3.7234,-3.7617,-3.7617,-3.7617,-3.7636,-3.7655,-3.7655,-3.8151,-3.8954,-3.8954,-3.9451,-4.0148,-3.9298,-3.947,-4.0129,-3.9317,-3.9527,-4.0196,-3.9693,-3.9514,-3.9296,-3.7987,-3.7964,-3.8348,-3.7486,-3.798,-3.8774,-3.8199,-3.7974,-3.821,-3.9656,-3.9571,-3.9411,-4.0849,-4.1762,-4.2523,-4.3284,-4.4045,-4.4818,-4.5551,-4.6295,-4.7022,-4.7753,-4.8511,-4.9001,-4.9001,-4.9001,-4.9001,-4.9001,-4.9001,-4.9001,-4.9001,-4.9001,-4.9001,0.0,-4.9001,-4.9001,-4.9001,-4.9001,-4.9001,-4.9032,-5.0096,-5.068,-5.0751,-5.1866,-5.2508,-5.2613,-5.2613,-5.2743,-5.2999,-5.2999,-5.3063,-5.3185,-5.3185,-5.3185,-5.3185,-5.3185,-5.3185,-5.3185,-5.3185,-5.3185,-5.3185,-5.3167,-5.317,-5.3078,-5.2234,-5.0951,-4.961,0.0,0.0,0.0,-2.9229,-2.9163,-2.9119,-2.9123,-2.9062,-2.9017,-2.9062,-2.9808,0.0,0.0,0.0,0.0,0.0,-3.2677,-3.3215,-3.4054,-3.4932,-3.5412,-3.5372,-3.5364,-3.5618,-3.6163,-3.6431,-3.6845,-3.7423,-3.7699,-3.7816,-3.7774,-3.7774,-3.835,-3.9431,-3.9431,-4.0215,-4.1495,-4.095,-4.1542,-4.2642,-4.0718,-4.0766,-4.1877,-4.0414,-4.0051,-4.0253,0.0,-3.9658,-3.9296,-3.795,-3.7946,-3.8439,-3.8104,-3.805,-3.7951,-3.7123,-3.806,-3.9242,-3.8768,-3.9157,-3.9977,-4.095,-4.1745,-4.2489,-4.325,-4.4012,-4.4818,-4.5551,-4.5906,-4.6447,-4.7652,-4.8511,-4.9001,-4.9001,-4.9407,-4.956,-4.9069,-4.9001,-4.9001,-4.9001,-4.9001,0.0,0.0,0.0,0.0,-4.9001,-4.9001,-4.9168,-4.9585,-4.9959,-5.0515,-5.126,-5.1694,-5.2126,-5.259,-5.259,-5.2698,-5.2868,-5.2955,-5.302,-5.3082,-5.3164,-5.3185,-5.3185,-5.3185,-5.3185,-5.3185,-5.3185,-5.3185,-5.3185,-5.3185,-5.3185,-5.3167,-5.2913,-5.2123,-5.1042,0.0,0.0,0.0,0.0,0.0,0.0,0.0,0.0,0.0,0.0,0.0,0.0,0.0,0.0,0.0,0.0,0.0,-3.3556,-3.4089,-3.4993,-3.5486,-3.5446,-3.5446,-3.5681,-3.6163,-3.6489,-3.7057,-3.7893,-3.8199,-3.8471,-3.8736,-3.9025,-3.9734,-4.0788,-4.1074,-4.1791,-4.2766,-4.2259,-4.2661,-4.3475,-4.1587,-4.1454,-4.2259,-4.0835,-4.0491,0.0,-3.976,-3.9671,-3.9696,-3.8169,-3.8021,-3.8462,-3.8417,-3.8233,-3.8021,-3.7825,-3.8608,-3.9443,-3.9034,-3.9508,-4.0214,-4.0679,-4.1559,-4.2422,-4.2912,-4.3826,-4.475,-4.5213,-4.5517,-4.6075,-4.7293,-4.8122,-4.8697,-4.8968,-4.961,-4.983,-4.9103,-4.9221,-4.9306,-4.9035,-4.9001,-4.9001,0.0,0.0,0.0,-4.9001,-4.9001,-4.9168,-4.9555,-4.9774,-5.0244,-5.0964,-5.1398,-5.1799,-5.225,-5.2472,-5.2627,-5.2739,-5.285,-5.2934,-5.2915,-5.3017,-5.306,-5.306,-5.306,-5.3082,-5.3124,-5.3124,-5.3164,-5.3185,-5.3185,-5.3185,-5.3185,-5.3185,-5.2876,-5.2197,0.0,0.0,0.0,0.0,0.0,0.0,0.0,0.0,0.0,0.0,0.0,0.0,0.0,0.0,0.0,0.0,0.0,0.0,-3.4199,-3.5026,-3.55,-3.55,-3.55,-3.5486,-3.547,-3.6315,-3.7164,-3.7961,-3.8775,-3.9591,-4.0426,-4.1186,-4.1561,-4.1618,-4.2393,-4.2776,-4.2852,-4.2832,-4.2861,-4.2852,-4.1905,-4.1571,-4.1543,-4.0692,-4.0864,-4.1323,-3.9543,-3.9724,-4.0497,-3.8609,-3.821,-3.8526,-3.8476,-3.8633,-3.9036,-4.0073,-3.9547,-3.8928,-4.0371,-4.0441,-4.0096,-4.0096,-4.123,-4.2286,-4.2286,-4.3498,-4.4615,-4.4615,-4.5145,-4.5872,-4.6599,-4.7411,-4.8159,-4.8849,-4.9661,-4.9915,-4.912,-4.9627,-4.9813,-4.9086,-4.9001,-4.9001,-4.9001,0.0,0.0,-4.9001,0.0,-4.9001,-4.9001,-4.9555,-4.9861,-4.989,-5.0938,-5.1525,-5.1601,-5.2186,-5.2531,-5.2608,-5.2739,-5.2783,-5.2783,-5.2783,-5.2806,-5.2806,-5.2806,-5.289,-5.302,-5.2999,-5.3063,-5.3185,-5.3185,-5.3185,-5.3185,-5.3185,-5.3185,-5.2986,0.0,0.0,0.0,0.0,0.0,0.0,0.0,0.0,0.0,0.0,0.0,0.0,0.0,0.0,0.0,0.0,0.0,0.0,-3.4205,-3.5026,-3.55,-3.55,-3.55,-3.5762,-3.6351,-3.7224,-3.8081,-3.8939,-3.9754,-4.0249,-4.0485,-4.0626,-4.1023,-4.1618,-4.1762,-4.2527,-4.3616,-4.2422,-4.3015,-4.4508,-4.1798,-4.1808,-4.3283,-4.1819,-4.1772,-4.2402,-4.1923,-4.1852,-4.1647,-3.9514,-3.9475,-4.0216,-3.9465,-3.9842,-4.0493,-4.0139,-4.0118,-4.0175,-4.0026,-4.0048,-4.0096,-4.0096,-4.123,-4.2286,-4.2286,-4.3498,-4.4615,-4.4615,-4.4767,-4.5094,-4.5838,-4.7479,-4.8612,-4.8227,-5.0185,-5.1099,-4.9272,-4.9627,-4.9813,-4.9086,-4.9001,-4.9001,-4.9001,-4.9001,0.0,0.0,-4.9001,-4.9001,-4.9001,-4.9138,-4.9453,-4.989,-5.0187,-5.075,-5.1576,-5.2186,-5.2521,-5.2526,-5.2627,-5.2654,-5.2635,-5.2761,-5.285,-5.2955,-5.2955,-5.3039,-5.3143,-5.3042,-5.302,-5.3042,-5.2934,-5.2955,-5.3042,-5.3042,-5.3103,-5.2986,0.0,0.0,0.0,0.0,0.0,0.0,0.0,0.0,0.0,0.0,0.0,0.0,0.0,0.0,0.0,0.0,0.0,0.0,0.0,-3.5026,-3.5654,-3.6,-3.5692,-3.5885,-3.6673,-3.7546,-3.8238,-3.8719,-3.9919,-4.05,-4.0515,-4.0825,-4.1203,-4.1655,-4.1934,-4.2604,-4.3416,-4.2537,-4.2986,0.0,0.0,-4.2288,-4.3436,-4.247,-4.2622,-4.3291,-4.2928,-4.284,-4.2626,-4.0792,-4.0763,-4.1403,-4.0758,-4.0981,-4.1464,-4.128,-4.1049,-4.0818,-4.0553,-4.0451,-4.0353,-4.0146,-4.123,-4.2286,-4.2286,-4.3498,-4.4615,-4.4615,-4.4615,-4.4835,-4.5568,-4.6989,-4.8003,-4.7889,-5.0388,-5.1758,-5.0202,-5.0896,-5.1183,-5.0101,-4.9678,-4.9357,-4.9035,-4.9001,-4.9001,0.0,-4.9001,-4.9001,-4.9001,-4.9001,-4.9168,-4.9496,-4.9744,-5.0449,-5.1576,-5.1951,-5.2251,-5.2498,-5.2531,-5.2559,-5.2559,-5.2645,-5.2712,-5.2779,0.0,-5.2846,-5.2934,-5.285,-5.285,-5.2893,-5.2893,-5.2912,-5.2934,-5.2977,-5.2999,-5.2834,0.0,0.0,0.0,0.0,0.0,0.0,0.0,0.0,0.0,0.0,0.0,0.0,0.0,0.0,0.0,0.0,0.0,0.0,0.0,0.0,-3.6096,-3.6673,-3.6135,-3.6154,-3.6865,-3.7738,-3.8161,-3.8161,-3.9746,-4.0496,-4.0516,-4.1215,-4.1536,-4.1574,-4.2191,-4.2527,-4.2642,-4.2574,-4.266,-4.2786,-4.2671,-4.2757,-4.2966,0.0,-4.3463,-4.4083,-4.3386,-4.3412,-4.3572,-4.231,-4.2115,-4.2385,-4.2049,-4.2014,-4.2214,-4.2757,-4.2091,-4.1243,-4.1523,-4.1208,-4.0741,-4.044,-4.1332,-4.232,-4.2422,-4.3555,-4.4615,-4.4615,-4.4615,-4.4801,-4.5432,-4.6312,-4.7124,-4.7682,-5.0321,-5.2012,-5.1183,-5.2384,-5.2773,-5.1251,-5.049,-4.9796,-4.9069,-4.9001,-4.9001,-4.9001,-4.9001,-4.9001,-4.9001,-4.9001,-4.9001,-4.9001,-4.9585,-5.0366,-5.1355,-5.1525,-5.186,-5.2387,-5.2475,-5.2498,-5.2498,-5.2498,-5.2498,-5.2503,0.0,0.0,-5.2631,-5.2613,-5.2676,-5.2783,-5.289,-5.2868,-5.2783,-5.2893,-5.2872,-5.2678,0.0,0.0,0.0,0.0,0.0,0.0,0.0,0.0,0.0,0.0,-3.3734,-3.4529,0.0,0.0,0.0,0.0,0.0,0.0,0.0,0.0,0.0,-3.6731,-3.7257,-3.7623,-3.7777,-3.8623,-3.9073,-3.9073,-4.0035,-4.0496,-4.0496,-4.0633,-4.0705,-4.0715,-4.0725,-4.113,-4.1752,-4.1055,-4.1533,-4.2727,-4.203,-4.2555,-4.3796,-4.3796,0.0,0.0,-4.4914,-4.4744,-4.4524,-4.4062,-4.3797,-4.3516,-4.2474,-4.2592,-4.314,-4.3068,-4.2639,-4.2139,-4.2101,-4.1455,-4.0933,-4.1457,-4.1946,-4.2455,-4.3081,-4.3927,-4.4615,-4.4615,-4.4615,-4.4649,-4.4784,-4.6397,-4.7564,-4.7073,-4.9982,-5.1826,-5.0473,-5.1572,-5.1961,-5.0473,-5.0168,-4.9796,-4.9069,-4.9001,0.0,0.0,0.0,-4.9001,-4.9001,-4.9001,-4.9001,-4.9001,-4.9585,-4.9988,-5.0187,-5.1122,-5.1669,-5.1743,-5.2275,-5.2498,-5.2498,-5.2498,-5.2531,-5.2586,-5.2586,0.0,-5.2761,-5.2654,-5.2613,-5.2631,-5.2599,-5.2622,-5.2654,-5.2676,-5.2721,-5.2605,0.0,0.0,0.0,0.0,0.0,0.0,0.0,-3.131,-3.2277,-3.3473,-3.5488,-3.6501,-3.5628,-3.7004,-3.8007,0.0,0.0,0.0,0.0,0.0,0.0,0.0,-3.8027,-3.82,-3.8661,-3.9496,-3.9727,-3.9304,0.0,-4.0931,-4.0496,-4.0507,-4.0485,-4.0441,-4.0334,-4.0538,-4.0893,-4.0482,-4.1017,-4.2125,-4.2163,-4.2908,-4.4045,0.0,0.0,0.0,-4.5307,-4.5194,-4.5,-4.4565,-4.4318,-4.4046,-4.3125,-4.3083,-4.3359,-4.316,-4.2955,-4.2671,-4.2297,-4.1867,-4.1603,-4.1836,-4.231,-4.2799,-4.3288,-4.4012,-4.4615,-4.4615,-4.4615,-4.4615,-4.4615,-4.5788,-4.6769,-4.6786,-4.9238,-5.1183,-5.1234,-5.2215,-5.252,-5.1386,-5.0913,-5.0236,-4.912,-4.9001,-4.9001,-4.9001,0.0,-4.9001,-4.9001,-4.9001,-4.9001,-4.9001,-4.9273,-4.9585,-4.989,-5.0449,-5.0858,-5.1157,-5.1432,-5.1743,-5.2024,-5.2024,-5.2233,-5.2554,-5.2554,0.0,-5.2676,-5.2581,-5.2581,-5.2608,-5.2559,-5.2536,-5.2536,-5.2586,-5.2627,-5.2481,0.0,0.0,0.0,0.0,0.0,0.0,0.0,-3.1924,-3.3192,-3.4386,-3.6764,-3.7934,-3.6844,-3.7806,-3.8546,0.0,0.0,0.0,0.0,0.0,0.0,0.0,0.0,-3.8854,-3.9534,0.0,0.0,-3.9835,-4.1335,0.0,0.0,0.0,0.0,0.0,-4.0697,-4.0586,-4.0587,-4.0559,-4.1036,0.0,0.0,-4.3558,0.0,0.0,0.0,0.0,0.0,-4.5717,-4.5481,-4.4868,-4.4547,-4.4289,-4.3632,-4.3411,-4.3376,-4.3196,-4.3105,-4.3012,-4.2478,-4.2384,-4.2459,-4.2463,-4.2937,-4.3492,-4.3751,-4.4306,-4.472,-4.4626,-4.4615,-4.4615,-4.4615,-4.5196,-4.594,-4.6667,-4.8646,-5.0557,-5.1877,-5.2892,-5.3145,-5.2181,-5.1555,-5.0642,-4.9137,-4.9001,0.0,-4.9001,0.0,0.0,-4.9001,-4.9001,-4.9001,-4.9001,-4.9001,-4.9229,-4.9686,-4.9832,-5.0113,-5.0535,-5.0643,-5.1008,-5.1601,-5.1601,-5.1933,-5.2498,-5.2498,0.0,0.0,-5.2526,-5.2531,-5.2586,-5.2586,-5.2554,-5.2521,-5.2559,-5.2554,-5.2371,0.0,0.0,0.0,0.0,0.0,0.0,0.0,-3.1831,-3.2814,-3.5312,-3.6738,-3.7813,-3.8639,-3.9643,-4.0265,0.0,0.0,0.0,0.0,0.0,0.0,0.0,0.0,0.0,0.0,0.0,0.0,-4.1558,-4.2527,0.0,0.0,0.0,0.0,0.0,0.0,-4.1484,-4.1475,-4.1418,0.0,0.0,0.0,0.0,0.0,0.0,0.0,0.0,0.0,-4.7062,-4.6309,-4.5768,-4.5054,-4.4285,-4.3679,-4.3497,-4.3463,-4.3251,-4.3196,-4.3123,-4.2901,-4.3057,-4.3444,-4.4102,-4.4546,-4.4869,-4.5079,-4.5189,-4.5125,-4.4692,-4.4615,-4.4615,-4.4615,-4.5196,-4.594,-4.6667,-4.8646,-5.0371,-5.12,-5.257,-5.2959,-5.1488,-5.1251,-5.0642,-4.9137,-4.9001,-4.9001,-4.9001,0.0,0.0,-4.9001,-4.9001,-4.9001,-4.9001,-4.9001,-4.9032,-4.9094,-4.9644,-4.9902,-4.9988,-5.047,-5.1008,-5.1601,-5.1601,-5.1933,-5.2498,-5.2498,0.0,0.0,-5.2498,-5.2498,-5.2503,-5.2503,-5.2521,-5.2498,-5.2521,-5.2521,-5.2371,0.0,0.0,0.0,0.0,0.0,0.0,-3.1626,-3.263,-3.3985,-3.6068,-3.7389,-3.8467,-3.9373,-4.0553,-4.1066,-4.0554,0.0,0.0,0.0,0.0,0.0,0.0,0.0,0.0,0.0,0.0,-4.2058,-4.2585,-4.2931,0.0,0.0,0.0,0.0,0.0,0.0,-4.2317,-4.2307,-4.2278,0.0,0.0,0.0,0.0,0.0,0.0,0.0,0.0,0.0,0.0,-4.7228,-4.6853,-4.6048,-4.5115,-4.466,-4.4034,-4.348,-4.3358,-4.3597,-4.3907,-4.3776,-4.4127,-4.4641,-4.5096,-4.5325,-4.5405,-4.5312,-4.5303,-4.5178,-4.4692,-4.4615,-4.4615,-4.4615,-4.4852,-4.5415,-4.6599,-4.753,-4.868,-5.0304,-5.1454,-5.1725,-5.0659,-5.0947,-5.0642,0.0,0.0,-4.9001,0.0,0.0,0.0,-4.9001,-4.9001,-4.9001,-4.9001,-4.9001,-4.9001,-4.9001,-4.926,-4.9364,-4.9364,-4.9568,-4.9999,-5.0587,-5.0902,-5.1381,-5.1975,-5.2322,0.0,0.0,-5.2503,-5.2526,-5.2559,-5.2503,-5.2498,-5.2498,-5.2498,-5.2498,-5.2444,0.0,0.0,0.0,0.0,0.0,-3.0957,-3.1998,-3.3131,-3.4549,-3.6534,-3.763,-3.8674,-3.9808,-4.1272,-4.1835,-4.095,-4.145,0.0,0.0,0.0,0.0,0.0,0.0,0.0,0.0,0.0,-4.297,-4.3835,-4.4105,-4.4203,0.0,0.0,-4.3932,-4.3617,0.0,0.0,0.0,0.0,0.0,0.0,0.0,0.0,0.0,0.0,0.0,0.0,0.0,0.0,0.0,0.0,0.0,-4.6097,-4.5423,-4.4807,-4.4278,-4.3868,-4.4054,-4.4435,-4.4615,-4.5134,-4.5698,-4.5907,-4.6125,-4.619,-4.5852,-4.5648,-4.5399,-4.4906,-4.4692,-4.4615,-4.4615,-4.4615,-4.5089,-4.6549,-4.6972,-4.7817,-4.9813,-5.093,-5.1251,-5.0507,0.0,-5.0727,0.0,-4.9137,-4.9001,0.0,0.0,0.0,-4.9001,-4.9001,-4.9001,-4.9001,-4.9001,-4.9001,-4.9001,-4.9001,-4.9001,-4.9001,-4.9001,-4.9303,-4.9919,-5.0293,-5.0893,-5.1601,0.0,0.0,0.0,-5.2526,-5.2526,-5.2581,-5.2526,-5.2498,-5.2498,-5.2498,-5.2498,-5.2498,0.0,0.0,0.0,0.0,0.0,0.0,-3.2741,-3.3001,-3.3969,-3.6648,-3.724,-3.8127,-3.9995,-4.1927,-4.2739,-4.1865,-4.1788,0.0,0.0,0.0,0.0,0.0,0.0,0.0,0.0,0.0,-4.4701,-4.5575,-4.6432,-4.6865,-4.6865,-4.6733,-4.6205,-4.5323,0.0,0.0,0.0,0.0,0.0,0.0,0.0,0.0,0.0,0.0,0.0,0.0,0.0,0.0,0.0,0.0,0.0,0.0,0.0,-4.573,-4.6149,-4.4947,-4.4492,-4.4563,-4.5306,-4.5987,-4.6504,-4.6504,-4.7081,-4.7554,-4.7017,-4.6478,-4.5925,-4.5407,-4.4917,-4.4615,-4.4615,-4.4615,-4.5089,-4.6549,-4.7411,-4.8426,-4.9881,-5.1352,-5.2012,0.0,-5.1185,-5.0913,-5.0152,-4.9424,0.0,0.0,0.0,0.0,-4.9001,-4.9001,-4.9001,-4.9001,-4.9001,-4.9001,-4.9001,-4.9001,-4.9001,-4.9001,-4.9001,-4.9303,-4.989,-4.9919,-5.0532,0.0,0.0,0.0,0.0,-5.2498,-5.2498,-5.2498,-5.2498,-5.2498,-5.2498,-5.2498,-5.2498,-5.2498,0.0,0.0,0.0,0.0,0.0,0.0,0.0,-3.3473,-3.4531,-3.6516,-3.7151,-3.8277,-4.0579,-4.2172,-4.3201,-4.3489,-4.3508,0.0,0.0,0.0,0.0,0.0,0.0,0.0,0.0,0.0,-4.472,-4.5594,-4.6471,-4.6876,-4.6839,-4.7347,-4.7126,-4.6272,-4.5874,-4.5432,0.0,0.0,0.0,0.0,0.0,0.0,0.0,0.0,0.0,0.0,0.0,0.0,0.0,0.0,0.0,0.0,0.0,0.0,0.0,-4.6323,-4.6249,-4.6209,-4.6349,-4.6904,-4.742,-4.7337,-4.7518,-4.7554,-4.7017,-4.6776,-4.6382,-4.5485,-4.5188,-4.4998,-4.4654,-4.4615,-4.5089,-4.6549,-4.6989,-4.7665,-4.9137,-5.0168,-5.0524,-4.9796,-4.9712,-4.961,0.0,0.0,0.0,0.0,0.0,0.0,-4.9001,-4.9001,-4.9001,-4.9001,-4.9001,-4.9001,-4.9001,-4.9001,-4.9001,-4.9001,-4.9001,-4.9077,-4.9303,-4.9715,0.0,0.0,0.0,0.0,0.0,-5.2498,-5.2498,-5.2498,-5.2498,-5.2498,-5.2426,-5.1864,-5.1665,-5.1593,0.0,0.0,0.0,0.0,0.0,0.0,0.0,-3.3964,-3.4948,-3.659,-3.7209,-3.8451,-4.0942,-4.2335,-4.3566,-4.4682,-4.5086,0.0,0.0,0.0,0.0,0.0,0.0,0.0,-4.4759,-4.5105,-4.5701,-4.6528,-4.7413,-4.7818,-4.7789,-4.824,-4.7988,-4.7173,-4.6706,-4.6235,0.0,0.0,0.0,0.0,0.0,0.0,0.0,0.0,0.0,0.0,0.0,0.0,0.0,0.0,0.0,0.0,0.0,0.0,0.0,0.0,-4.739,-4.7457,-4.7302,-4.7583,-4.7861,-4.7738,-4.7717,-4.7615,-4.728,-4.7062,-4.666,-4.5775,-4.5433,-4.5152,-4.4692,-4.4615,-4.5089,-4.6549,-4.6786,-4.731,-4.8798,-4.9627,-4.9915,-4.9475,0.0,0.0,0.0,0.0,0.0,0.0,0.0,0.0,-4.9001,-4.9001,-4.9001,-4.9001,-4.9001,-4.9001,-4.9001,-4.9001,-4.9001,-4.9001,-4.9001,-4.9001,-4.9001,-4.9394,0.0,0.0,0.0,0.0,0.0,-5.2498,-5.2498,-5.2498,-5.2498,-5.2299,-5.1991,-5.1466,-5.1104,-5.0782,0.0,0.0,0.0,0.0,0.0,0.0,0.0,-3.4416,-3.5154,-3.6784,-3.7404,-3.8648,-4.1208,-4.2455,-4.3797,-4.5537,0.0,0.0,0.0,0.0,0.0,0.0,0.0,0.0,-4.5671,-4.649,-4.7288,-4.8105,-4.8971,-4.9394,-4.9385,-4.9258,-4.8804,-4.8017,-4.6974,-4.6481,0.0,0.0,0.0,0.0,0.0,0.0,0.0,0.0,0.0,0.0,0.0,0.0,0.0,0.0,0.0,0.0,0.0,0.0,0.0,0.0,0.0,0.0,0.0,-4.7968,-4.7881,-4.7738,-4.7717,-4.7717,-4.7717,-4.7302,0.0,-4.6262,-4.5724,-4.5232,-4.4816,-4.466,-4.5106,-4.6616,-4.6819,-4.731,0.0,-4.9593,0.0,0.0,-5.0016,0.0,-4.9069,0.0,0.0,0.0,0.0,0.0,0.0,-4.9001,-4.9001,-4.9001,-4.8951,-4.8951,-4.9001,-4.9001,-4.9001,-4.9001,-4.9001,-4.9001,-4.9001,-4.9001,0.0,0.0,0.0,0.0,0.0,-5.2426,-5.2444,-5.248,-5.2426,-5.1955,-5.1285,-5.1158,-5.0651,-5.0021,0.0,0.0,0.0,0.0,0.0,0.0,0.0,0.0,0.0,0.0,-3.7263,-3.8728,-4.203,-4.2829,-4.4047,0.0,0.0,0.0,0.0,0.0,0.0,0.0,0.0,0.0,-4.6567,-4.6797,-4.7288,-4.8105,-4.8971,-4.9375,-4.9326,-4.9238,-4.9071,-4.8769,-4.7201,-4.6156,0.0,0.0,0.0,0.0,0.0,0.0,0.0,0.0,0.0,0.0,-4.6225,-4.635,0.0,0.0,0.0,0.0,0.0,0.0,0.0,0.0,-4.8598,-4.8604,-4.8267,0.0,-4.7929,-4.7741,-4.7717,-4.7717,0.0,-4.7615,-4.7363,-4.6822,-4.6286,-4.5959,-4.604,-4.525,-4.5275,-4.7327,-4.7175,-4.731,-4.8798,-4.9154,0.0,-4.9255,-4.9255,-4.9187,-4.9018,0.0,0.0,0.0,0.0,-4.9001,0.0,-4.9001,-4.9001,-4.9001,-4.846,-4.8443,-4.9001,-4.9001,-4.9001,-4.9001,-4.9001,-4.9001,-4.9001,-4.9001,0.0,0.0,0.0,0.0,-5.1782,-5.1649,-5.1937,-5.2426,-5.181,-5.1466,-5.114,-4.9927,-4.9347,-4.9094,0.0,0.0,0.0,0.0,0.0,0.0,0.0,0.0,0.0,0.0,0.0,0.0,0.0,0.0,0.0,0.0,0.0,0.0,0.0,0.0,0.0,0.0,0.0,-4.5528,-4.6865,-4.725,-4.7855,-4.8702,-4.9538,-4.974,-4.9346,-4.9207,-4.8943,-4.8531,-4.7125,-4.6271,0.0,0.0,0.0,0.0,0.0,0.0,0.0,0.0,0.0,0.0,-4.5658,-4.5764,0.0,-4.647,-4.7165,-4.8064,0.0,0.0,0.0,0.0,-4.8917,-4.8693,-4.8305,-4.809,-4.797,-4.7822,-4.7738,-4.7717,-4.7717,-4.7717,-4.7554,-4.7017,-4.6683,-4.6451,-4.6342,-4.5861,-4.5964,-4.7517,-4.7505,0.0,0.0,0.0,-4.9001,-4.9001,-4.9001,-4.9001,0.0,0.0,0.0,0.0,0.0,-4.9001,0.0,-4.9001,-4.9001,-4.9001,-4.8261,-4.8075,-4.8494,-4.8156,-4.7986,-4.7986,-4.8342,-4.8511,-4.8511,-4.8511,-4.8839,0.0,0.0,0.0,-5.0544,-5.0705,-5.0995,-5.1357,-5.0927,-5.0524,-5.009,-4.9217,-4.8656,-4.8297,0.0,0.0,0.0,0.0,0.0,0.0,0.0,0.0,0.0,0.0,0.0,0.0,0.0,0.0,0.0,0.0,0.0,0.0,0.0,0.0,0.0,0.0,0.0,-4.6009,-4.6885,-4.7702,-4.8529,-4.9394,-5.0211,-5.0268,-4.9577,-4.9254,-4.8703,-4.7949,-4.7212,-4.6825,0.0,0.0,0.0,0.0,0.0,0.0,0.0,0.0,0.0,0.0,0.0,0.0,0.0,-4.6214,-4.6595,-4.7063,-4.8463,0.0,0.0,0.0,0.0,0.0,-4.8343,-4.813,-4.801,-4.7922,-4.7819,-4.7717,-4.7717,-4.7717,-4.7554,-4.7107,-4.6954,-4.6806,-4.6451,-4.6524,-4.6884,-4.7638,-4.7948,0.0,-4.8917,-4.9001,-4.9001,-4.9001,-4.9001,0.0,0.0,0.0,0.0,0.0,0.0,0.0,0.0,-4.9001,-4.8951,-4.8849,-4.8139,-4.7699,-4.7551,-4.7056,-4.6786,-4.6802,-4.7445,-4.775,-4.775,-4.775,-4.8014,0.0,0.0,0.0,-4.9204,-4.9708,-5.0003,-5.0093,-4.9967,-4.9492,-4.8873,-4.8746,-4.8297,-4.7717,0.0,0.0,0.0,0.0,0.0,0.0,0.0,0.0,0.0,0.0,0.0,0.0,0.0,0.0,0.0,0.0,0.0,0.0,0.0,0.0,0.0,-4.9029,-4.6826,-4.6009,-4.6885,-4.7702,-4.8529,-4.9394,-5.026,-5.0596,-5.0402,-4.9573,-4.8703,-4.7859,-4.8441,-4.8296,-4.7654,0.0,0.0,0.0,0.0,0.0,0.0,0.0,0.0,0.0,0.0,0.0,0.0,-4.5582,-4.655,-4.7824,-4.802,0.0,0.0,0.0,0.0,0.0,-4.8458,-4.8228,-4.8146,-4.7943,-4.7819,-4.7717,-4.7717,-4.7717,-4.7696,-4.7575,-4.7214,-4.7059,-4.7607,-4.741,-4.7465,-4.8394,0.0,-4.8883,0.0,0.0,-4.9001,-4.9001,0.0,0.0,0.0,0.0,0.0,0.0,0.0,0.0,0.0,-4.9001,-4.8714,-4.8075,-4.7361,-4.6667,-4.6041,-4.6532,-4.6786,-4.6786,-4.6904,-4.6972,-4.6972,-4.6972,-4.7014,0.0,0.0,-4.7809,-4.8567,-4.8933,-4.9492,-5.0039,-4.9347,-4.8999,-4.8818,-4.8152,-4.7826,-4.7717,0.0,0.0,0.0,0.0,0.0,0.0,0.0,0.0,0.0,0.0,0.0,0.0,0.0,0.0,0.0,0.0,0.0,0.0,0.0,0.0,0.0,-4.8702,-4.7163,-4.6682,-4.7528,-4.749,-4.7855,-4.8702,-4.9538,-4.9682,-4.9182,-4.8717,-4.8154,-4.7552,-4.8132,-4.8449,-4.8525,-4.8938,0.0,0.0,0.0,0.0,0.0,0.0,0.0,0.0,0.0,0.0,0.0,0.0,-4.6282,-4.7374,-4.7782,0.0,0.0,0.0,0.0,0.0,-4.7831,-4.7917,-4.8148,-4.7988,-4.7884,-4.778,-4.7717,-4.7717,-4.7717,-4.7717,-4.7511,-4.7449,-4.7787,-4.8116,-4.8551,-4.9238,0.0,-4.9001,-4.9001,-4.9001,-4.9001,0.0,0.0,0.0,0.0,0.0,0.0,0.0,0.0,0.0,0.0,0.0,-4.8071,-4.7344,-4.6583,-4.6041,-4.5703,-4.5635,-4.5602,-4.563,-4.6007,-4.621,-4.621,-4.621,-4.621,-4.6201,0.0,-4.6558,-4.7184,-4.7627,-4.8203,-4.8768,-4.8405,-4.8239,-4.8203,-4.7823,-4.7717,-4.7717,0.0,0.0,0.0,0.0,0.0,0.0,0.0,0.0,0.0,0.0,0.0,0.0,0.0,0.0,0.0,0.0,0.0,0.0,0.0,0.0,-4.8394,-4.8394,-4.7625,-4.7298,-4.7509,-4.7105,-4.7192,-4.7817,-4.8827,-4.9017,-4.8466,-4.8398,-4.8196,-4.7895,-4.8147,-4.8678,-4.9366,-4.9366,-4.9771,0.0,0.0,0.0,0.0,0.0,0.0,0.0,0.0,0.0,0.0,0.0,0.0,0.0,0.0,0.0,0.0,-4.7942,-4.7878,-4.7723,-4.7313,-4.7572,-4.7969,-4.8035,-4.7968,-4.7915,-4.7974,-4.7823,-4.7753,-4.7932,-4.7844,-4.7717,-4.7717,-4.8419,-4.9197,-4.9712,-4.9347,-4.9001,-4.9001,-4.9001,-4.9001,0.0,0.0,0.0,0.0,0.0,0.0,0.0,0.0,0.0,0.0,0.0,-4.731,-4.6566,-4.5991,-4.5618,-4.5449,-4.4874,-4.4615,-4.4615,-4.5162,-4.5449,-4.5449,-4.5449,-4.5449,-4.5444,-4.5329,-4.552,-4.595,-4.6478,-4.7039,-4.7511,-4.7511,-4.7593,-4.7717,-4.7717,-4.7717,-4.7717,0.0,0.0,0.0,0.0,0.0,0.0,0.0,0.0,0.0,0.0,0.0,0.0,0.0,0.0,0.0,0.0,0.0,0.0,0.0,0.0,-4.9317,-4.9317,-4.849,-4.7317,-4.5806,-4.6528,-4.6923,-4.6981,-4.8596,-4.9541,-4.984,-4.9784,-4.9713,-4.9614,-4.966,-4.986,-5.0206,-5.0206,-5.0245,-5.0314,-5.0438,0.0,0.0,0.0,0.0,0.0,0.0,0.0,0.0,0.0,0.0,0.0,0.0,0.0,-4.8796,-4.7688,-4.7188,-4.7069,-4.7456,-4.737,-4.7332,-4.8024,-4.8046,-4.806,-4.868,-4.8242,-4.7895,-4.8656,-4.8203,-4.7717,-4.7717,-4.8117,-4.8705,-4.9415,-4.9234,-4.9001,-4.9001,0.0,0.0,0.0,0.0,0.0,0.0,0.0,0.0,0.0,0.0,0.0,0.0,0.0,0.0,-4.5805,-4.5737,-4.5365,-4.4699,-4.4632,-4.4615,-4.4615,-4.4649,-4.4682,-4.4682,-4.4682,-4.4682,-4.471,-4.5133,-4.5329,-4.5407,-4.5943,-4.6478,-4.6954,-4.6954,-4.7258,-4.7717,-4.7717,-4.7717,-4.7717,0.0,0.0,0.0,0.0,0.0,0.0,0.0,0.0,0.0,0.0,0.0,0.0,0.0,0.0,0.0,0.0,0.0,0.0,0.0,-4.7182,-4.7855,-4.7855,-4.7528,-4.6797,-4.5633,-4.5913,-4.6086,-4.6086,-4.7515,-4.8729,-4.9692,-4.9566,-4.9512,-4.9498,-4.9702,-4.9981,-5.0302,-5.0302,-5.0325,-5.0359,-5.0468,0.0,0.0,0.0,0.0,0.0,0.0,0.0,0.0,0.0,-4.6301,-4.7126,-4.68,-4.7065,-4.7357,-4.6745,-4.6486,-4.6401,-4.6353,-4.688,-4.746,-4.7647,-4.7901,-4.8247,-4.888,-4.8339,-4.7913,-4.8728,-4.8257,-4.7862,-4.8348,-4.8279,-4.8445,-4.9363,-4.91,-4.8848,-4.8995,0.0,0.0,0.0,0.0,0.0,0.0,0.0,0.0,0.0,0.0,0.0,0.0,0.0,0.0,-4.5026,-4.501,-4.4874,-4.4615,-4.4615,-4.4615,-4.4615,-4.4615,-4.4615,-4.4615,-4.4615,-4.4615,-4.4598,-4.4786,-4.5035,-4.5303,-4.5537,-4.5925,-4.643,-4.6776,-4.7236,-4.7717,-4.7717,-4.7717,-4.7717,0.0,0.0,0.0,0.0,0.0,0.0,0.0,0.0,0.0,0.0,0.0,0.0,0.0,0.0,0.0,0.0,0.0,0.0,-4.4786,-4.5855,-4.649,-4.649,-4.6759,-4.6624,-4.6009,-4.5748,-4.5594,-4.5594,-4.6879,-4.8123,-4.9311,-4.919,-4.9145,-4.9161,-4.9378,-4.9716,-5.0144,-5.0144,-5.0236,-5.0359,-5.0446,-4.9982,0.0,0.0,0.0,0.0,0.0,0.0,0.0,0.0,-4.6118,-4.6705,-4.6388,-4.6424,-4.6473,-4.5978,-4.5961,-4.607,-4.5998,-4.6853,-4.7748,-4.7699,-4.8016,-4.8488,-4.9008,-4.8405,-4.7995,-4.8749,-4.8257,-4.788,-4.842,-4.8241,0.0,0.0,-4.8531,-4.834,0.0,0.0,0.0,0.0,0.0,0.0,0.0,0.0,0.0,0.0,0.0,0.0,0.0,0.0,0.0,0.0,-4.4615,-4.4615,-4.4615,-4.4615,-4.4615,-4.4615,-4.4615,-4.4615,-4.4615,-4.4615,-4.4615,-4.4615,-4.4615,-4.4786,-4.5089,-4.5089,-4.5485,-4.6147,-4.6683,-4.7236,-4.7678,-4.7511,-4.7554,-4.7696,0.0,0.0,0.0,0.0,0.0,0.0,0.0,0.0,0.0,0.0,0.0,0.0,0.0,0.0,0.0,0.0,0.0,0.0,-4.3143,-4.4643,-4.5575,-4.5594,-4.6413,-4.6885,-4.6885,-4.6047,-4.5614,-4.5614,-4.6879,-4.7988,-4.8897,-4.8832,-4.8799,-4.878,-4.878,-4.9142,-4.9765,-4.9765,-4.9962,-5.0283,-5.0359,-4.9899,0.0,0.0,0.0,0.0,0.0,0.0,0.0,0.0,-4.6163,-4.6722,-4.5707,-4.5994,-4.6511,-4.5587,-4.5677,-4.6203,-4.6656,-4.741,-4.8131,-4.8255,-4.8495,-4.8772,-4.9117,-4.8509,-4.8097,-4.8749,-4.8239,-4.7717,-4.7717,-4.7864,0.0,-4.7289,-4.7429,0.0,0.0,0.0,0.0,0.0,0.0,0.0,0.0,0.0,0.0,0.0,0.0,0.0,0.0,0.0,0.0,0.0,-4.4615,-4.4615,-4.4615,-4.4615,-4.4615,-4.4615,-4.4615,-4.4615,-4.4615,-4.4615,-4.4615,-4.4615,-4.4615,-4.4615,-4.4615,-4.4615,-4.5196,-4.6147,-4.6683,-4.7214,-4.7636,-4.7107,-4.7236,-4.7615,0.0,0.0,0.0,0.0,0.0,0.0,0.0,0.0,0.0,0.0,0.0,0.0,0.0,0.0,0.0,0.0,0.0,0.0,-4.3124,-4.3566,-4.4085,-4.4662,-4.4932,-4.5355,-4.597,-4.6336,-4.6797,-4.7355,-4.721,-4.79,-4.9311,-4.871,-4.8254,-4.796,-4.796,-4.7871,-4.7768,-4.7768,-4.8275,-4.9125,-4.9168,-4.9541,-4.9879,0.0,0.0,0.0,0.0,0.0,0.0,0.0,0.0,0.0,-4.5506,-4.5965,-4.6461,-4.5547,-4.5808,-4.6283,-4.586,-4.6458,-4.72,-4.7226,-4.7842,-4.8418,-4.8382,-4.8129,-4.7933,-4.8046,-4.788,-4.7717,-4.7717,-4.7753,0.0,-4.7276,0.0,0.0,0.0,0.0,0.0,0.0,0.0,0.0,0.0,0.0,0.0,0.0,0.0,0.0,0.0,0.0,0.0,0.0,-4.4615,-4.4615,-4.4615,-4.4615,-4.4615,-4.4615,-4.4615,-4.4615,-4.4615,-4.4615,-4.4615,-4.4615,-4.4615,-4.4615,-4.4615,-4.4615,-4.5196,-4.6116,-4.6286,-4.666,-4.7107,-4.6954,-4.6999,-4.7107,0.0,0.0,0.0,0.0,0.0,0.0,0.0,0.0,0.0,0.0,-4.4546,-4.4903,0.0,0.0,0.0,0.0,0.0,0.0,0.0,-4.2585,-4.2951,-4.3797,-4.4124,-4.4874,-4.6086,-4.6951,-4.7703,-4.8381,-4.7776,-4.7859,-4.8611,-4.8402,-4.7979,-4.742,-4.7753,-4.7627,-4.7183,-4.7183,-4.7546,-4.8137,-4.8175,-4.8665,-4.9256,0.0,0.0,0.0,0.0,0.0,0.0,0.0,0.0,0.0,-4.5419,-4.5734,-4.6077,-4.5833,-4.6271,-4.6758,-4.6479,-4.7097,-4.7728,-4.7462,-4.7953,-4.8402,-4.8092,-4.7907,-4.7819,-4.7717,-4.7717,-4.7717,-4.7717,-4.7717,0.0,0.0,0.0,0.0,0.0,0.0,0.0,0.0,0.0,0.0,0.0,0.0,0.0,0.0,0.0,0.0,0.0,0.0,0.0,0.0,-4.4615,-4.4615,-4.4615,-4.4615,-4.4615,-4.4615,-4.4615,-4.4615,-4.4615,-4.4615,-4.4615,-4.4615,-4.4615,-4.4615,-4.4615,-4.4615,-4.5196,-4.6074,-4.5868,-4.6238,-4.6863,-4.643,-4.6406,-4.6548,0.0,0.0,0.0,0.0,0.0,0.0,0.0,0.0,0.0,0.0,-4.4521,-4.4935,0.0,0.0,0.0,0.0,0.0,0.0,0.0,0.0,-4.22,-4.3066,-4.4028,-4.5355,-4.7086,-4.7818,-4.8419,-4.8881,-4.8353,-4.7829,-4.7352,-4.7849,-4.7664,-4.6911,-4.7664,-4.7684,-4.7222,-4.7222,-4.7217,-4.7193,-4.7219,-4.7488,-4.7758,-4.6919,0.0,0.0,0.0,0.0,0.0,0.0,0.0,0.0,-4.5534,-4.5523,-4.5617,-4.6224,-4.6823,-4.7394,-4.7814,-4.8517,-4.9001,-4.8384,-4.8495,-4.8604,-4.8113,-4.7847,-4.7699,-4.7699,-4.7717,-4.7717,-4.7717,-4.7717,-4.7363,0.0,0.0,0.0,0.0,0.0,0.0,0.0,0.0,0.0,0.0,0.0,0.0,0.0,0.0,0.0,0.0,0.0,0.0,-4.4615,-4.4615,-4.4615,-4.4615,-4.4615,-4.4615,0.0,-4.4615,-4.4615,-4.4615,-4.4615,-4.4615,-4.4615,-4.4615,-4.4615,-4.4615,-4.4615,-4.5196,-4.6067,-4.5511,-4.5943,-4.6707,-4.5673,-4.5614,-4.5968,0.0,0.0,0.0,0.0,0.0,0.0,0.0,0.0,0.0,0.0,0.0,0.0,0.0,0.0,0.0,0.0,0.0,0.0,0.0,0.0,-4.22,-4.3066,-4.5182,-4.7124,-4.8836,-4.8841,-4.9017,-4.943,-4.7969,-4.7387,-4.7588,-4.6799,-4.5993,-4.5223,-4.5406,-4.5074,-4.437,-4.437,-4.4879,-4.5701,-4.5951,-4.6654,-4.7445,-4.6825,-4.6604,0.0,0.0,0.0,0.0,0.0,0.0,0.0,-4.6356,-4.6336,-4.6249,-4.5719,-4.6397,-4.7187,-4.6668,-4.7226,-4.7938,-4.7803,-4.8053,-4.8267,-4.8052,-4.7927,-4.784,-4.7717,-4.7717,-4.7717,-4.7717,-4.7717,0.0,0.0,0.0,0.0,0.0,0.0,0.0,0.0,0.0,0.0,0.0,0.0,0.0,0.0,0.0,0.0,0.0,0.0,0.0,-4.4615,-4.4615,-4.4615,-4.4615,-4.4615,-4.4615,0.0,-4.4615,-4.4615,-4.4615,-4.4615,-4.4615,-4.4615,-4.4615,-4.4615,-4.4615,-4.4615,-4.5196,-4.6067,-4.5511,-4.5699,-4.6196,-4.5537,-4.5381,-4.5459,0.0,0.0,0.0,0.0,0.0,0.0,0.0,0.0,0.0,0.0,0.0,0.0,0.0,0.0,0.0,0.0,0.0,0.0,0.0,-4.2019,-4.2547,-4.422,-4.6336,-4.7875,-4.8759,-4.8914,-4.899,-4.8938,-4.7109,-4.6663,-4.7489,-4.7187,-4.6636,-4.5847,-4.5847,-4.5406,-4.4617,-4.4232,-4.4289,-4.4649,-4.4819,-4.5326,-4.5948,-4.5798,-4.5749,-4.5715,-4.5484,0.0,0.0,0.0,0.0,0.0,0.0,0.0,-4.5969,-4.5899,-4.6282,-4.6777,-4.6989,-4.7311,-4.7635,-4.7866,-4.8089,-4.8208,-4.811,-4.8028,-4.7925,-4.7819,-4.7738,-4.7717,-4.7717,-4.7717,0.0,0.0,0.0,0.0,0.0,0.0,0.0,0.0,0.0,0.0,0.0,0.0,0.0,0.0,0.0,0.0,0.0,-4.4615,-4.4615,-4.4615,-4.4615,-4.4615,-4.4615,-4.4615,-4.4615,-4.4615,-4.4615,-4.4615,-4.4615,-4.4615,-4.4615,-4.4615,-4.4615,-4.4615,-4.4615,-4.4615,-4.5052,-4.5665,-4.5152,-4.5267,-4.5665,-4.5152,-4.4971,-4.4971,0.0,0.0,0.0,0.0,0.0,0.0,0.0,0.0,0.0,0.0,0.0,0.0,0.0,0.0,0.0,0.0,0.0,0.0,0.0,-4.2258,-4.3085,-4.5498,-4.7067,-4.7933,-4.803,-4.8458,-4.8447,-4.7914,-4.6319,-4.6125,-4.7261,-4.7554,-4.7407,-4.6892,-4.6746,-4.6305,-4.5645,-4.4837,-4.4276,-4.3926,-4.3974,-4.4136,-4.436,-4.4624,-4.4751,-4.4837,-4.5184,-4.5415,-4.5579,-4.5579,0.0,0.0,0.0,0.0,-4.543,-4.6099,-4.6206,-4.6334,-4.7447,-4.7682,-4.7711,-4.818,-4.8306,-4.8267,-4.8207,-4.811,-4.801,-4.7925,-4.7801,-4.7717,-4.7717,0.0,0.0,0.0,0.0,0.0,0.0,0.0,0.0,0.0,0.0,0.0,0.0,0.0,0.0,0.0,0.0,0.0,-4.4615,-4.4615,-4.4615,-4.4615,-4.4615,-4.4615,-4.4615,-4.4615,-4.4615,-4.4615,-4.4615,-4.4615,-4.4615,-4.4615,-4.4615,-4.4615,-4.4615,-4.4615,-4.4615,-4.4615,-4.4879,-4.5267,-4.4786,-4.4906,-4.5241,-4.4759,-4.4615,-4.4615,0.0,0.0,0.0,0.0,0.0,0.0,0.0,0.0,0.0,0.0,-4.2389,-4.2735,-4.2674,-4.1943,0.0,0.0,0.0,0.0,-4.0843,0.0,0.0,-4.5518,-4.6547,-4.7271,-4.7739,-4.7554,-4.7221,-4.6809,-4.6281,-4.6395,-4.7095,-4.5792,-4.5498,-4.603,-4.5333,-4.4948,-4.4819,-4.3993,-4.3624,-4.3582,-4.3894,-4.4017,-4.4094,-4.436,-4.4599,-4.4819,-4.4868,-4.5514,-4.6358,-4.6358,-4.6358,0.0,0.0,0.0,-4.5326,-4.543,-4.5769,-4.6127,-4.6315,-4.6971,-4.7711,-4.818,-4.8306,-4.8267,-4.8207,-4.8187,-4.8148,0.0,-4.7827,-4.7717,0.0,0.0,0.0,0.0,0.0,0.0,0.0,0.0,0.0,0.0,0.0,0.0,0.0,0.0,0.0,0.0,0.0,0.0,-4.4615,-4.4615,-4.4615,-4.4615,-4.4615,-4.4615,-4.4615,-4.4615,-4.4615,-4.4615,-4.4615,-4.4615,-4.4615,-4.4615,-4.4615,-4.4615,-4.4615,-4.4615,-4.4615,-4.4615,-4.4879,-4.5267,-4.4786,-4.4906,-4.5241,-4.4759,-4.4615,-4.4615,0.0,0.0,0.0,0.0,0.0,0.0,0.0,0.0,0.0,0.0,0.0,-4.2072,-4.2152,-4.1642,0.0,0.0,0.0,0.0,-4.12,-4.2393,0.0,0.0,-4.597,-4.6215,-4.6303,-4.596,-4.5596,-4.52,-4.442,-4.5073,-4.7076,-4.5902,-4.6049,-4.7205,-4.6397,-4.5792,-4.5314,-4.4507,-4.3901,-4.3496,-4.3666,-4.3992,-4.4393,-4.4385,-4.4748,-4.524,-4.5117,-4.5401,-4.5831,-4.5831,-4.5831,-4.5831,-4.5831,0.0,0.0,0.0,-4.547,-4.5767,-4.6342,-4.7018,-4.7711,-4.818,-4.8306,-4.8287,-4.8267,-4.8226,-4.8187,-4.811,-4.797,0.0,0.0,0.0,0.0,0.0,0.0,0.0,0.0,0.0,0.0,0.0,0.0,0.0,0.0,0.0,0.0,0.0,0.0,-4.4615,-4.4615,-4.4615,-4.4615,-4.4615,-4.4615,-4.4615,-4.4615,-4.4615,-4.4615,-4.4615,-4.4615,-4.4615,-4.4615,-4.4615,-4.4615,-4.4615,-4.4615,-4.4615,-4.4615,-4.4615,-4.472,-4.4906,-4.4665,-4.472,-4.4879,-4.4682,-4.4615,-4.4615,0.0,0.0,0.0,0.0,0.0,0.0,0.0,0.0,0.0,0.0,0.0,0.0,-4.1795,0.0,0.0,0.0,0.0,0.0,-4.1431,0.0,0.0,0.0,0.0,-4.4911,-4.4397,-4.4321,-4.4081,-4.37,-4.2804,-4.3897,-4.6782,-4.6177,-4.6764,-4.8269,-4.7461,-4.6636,-4.5847,-4.5039,-4.436,-4.3791,-4.3791,-4.4158,-4.4707,-4.4758,-4.5212,-4.5761,-4.5401,-4.533,-4.5339,-4.5141,-4.5129,-4.5173,-4.5173,-4.5173,0.0,0.0,0.0,-4.5022,-4.6177,-4.6785,-4.7256,-4.7942,-4.8126,-4.8162,-4.827,0.0,-4.8226,0.0,-4.813,0.0,0.0,0.0,0.0,0.0,0.0,0.0,0.0,0.0,0.0,0.0,0.0,0.0,0.0,0.0,0.0,0.0,-4.4615,-4.4615,-4.4615,-4.4615,-4.4615,-4.4615,-4.4615,-4.4615,-4.4615,-4.4615,-4.4615,-4.4615,-4.4615,-4.4615,-4.4615,-4.4615,-4.4615,-4.4615,-4.4615,-4.4615,-4.4615,-4.4615,-4.4615,-4.4615,-4.4615,-4.4615,-4.4615,-4.4615,-4.4615,-4.4615,0.0,0.0,0.0,0.0,0.0,0.0,0.0,0.0,0.0,0.0,0.0,0.0,-4.1589,-4.1089,-4.0563,-4.0157,0.0,0.0,0.0,0.0,0.0,0.0,0.0,0.0,-4.2184,-4.2781,-4.2917,-4.2567,-4.2404,-4.3552,-4.5957,-4.592,-4.6764,-4.8269,-4.7461,-4.6636,-4.5847,-4.5039,-4.4673,-4.4654,-4.4654,-4.4672,-4.4782,-4.5534,-4.6058,-4.6271,-4.5465,-4.5365,-4.5467,-4.4706,-4.463,-4.4831,-4.4831,-4.4831,-4.4692,0.0,0.0,0.0,-4.5233,-4.5692,-4.6035,-4.7309,-4.7633,-4.7751,-4.8198,0.0,-4.8287,-4.8287,0.0,0.0,0.0,0.0,0.0,0.0,0.0,0.0,0.0,0.0,0.0,0.0,0.0,0.0,0.0,0.0,0.0,0.0,-4.4615,-4.4615,-4.4615,-4.4615,-4.4615,-4.4615,-4.4615,-4.4615,-4.4615,-4.4615,-4.4615,-4.4615,-4.4615,-4.4615,-4.4615,-4.4615,-4.4615,-4.4615,-4.4615,-4.4615,-4.4615,-4.4615,-4.4615,-4.4615,-4.4615,-4.4615,-4.4615,-4.4615,-4.4615,-4.4615,0.0,0.0,0.0,0.0,0.0,0.0,0.0,0.0,0.0,0.0,0.0,0.0,0.0,-4.1523,-4.1029,-3.9811,-4.0032,0.0,0.0,0.0,0.0,0.0,0.0,0.0,-4.2771,-4.2379,-4.2273,-4.2495,-4.1838,-4.2746,-4.5131,-4.5131,-4.5718,-4.6764,-4.7003,-4.6929,-4.6581,-4.526,-4.4691,-4.4691,-4.4691,-4.5021,-4.5516,-4.6022,-4.662,-4.709,-4.6442,-4.596,-4.5556,-4.527,-4.4889,-4.4452,-4.3943,-4.3773,-4.3617,-4.28,-4.2868,-4.3267,-4.365,-4.4509,-4.5466,-4.5934,-4.6662,-4.7389,-4.7755,-4.8089,-4.8306,-4.8306,0.0,0.0,0.0,0.0,0.0,0.0,0.0,0.0,0.0,0.0,0.0,0.0,0.0,0.0,0.0,0.0,0.0,0.0,0.0,0.0,-4.4615,-4.4615,-4.4615,-4.4615,-4.4615,-4.4615,-4.4615,-4.4615,-4.4615,-4.4615,-4.4615,-4.4615,-4.4615,-4.4615,-4.4615,-4.4615,-4.4615,-4.4615,-4.4615,-4.4615,-4.4615,-4.4615,-4.4615,-4.4615,-4.4615,-4.4615,-4.4615,-4.4615,0.0,0.0,0.0,0.0,0.0,0.0,0.0,0.0,-4.1791,-4.2598,0.0,0.0,0.0,0.0,-4.1721,-4.0447,-4.0575,-4.0788,-4.0869,-4.0869,0.0,0.0,0.0,0.0,-4.2623,-4.195,-4.1876,-4.2465,-4.1546,-4.2343,-4.4691,-4.4691,-4.5131,-4.5902,-4.6177,-4.6581,-4.7003,-4.5681,-4.5112,-4.5112,-4.5112,-4.5259,-4.5608,-4.6631,-4.7032,-4.6993,-4.6617,-4.614,-4.5615,-4.5075,-4.4793,-4.4485,-4.3376,-4.2665,-4.2164,-4.1792,-4.208,-4.2462,-4.2322,-4.3314,-4.4506,-4.5064,-4.5626,-4.6302,-4.7219,0.0,-4.7901,-4.7901,0.0,0.0,0.0,0.0,0.0,0.0,0.0,0.0,0.0,0.0,0.0,0.0,0.0,0.0,0.0,0.0,0.0,0.0,0.0,0.0,-4.4615,-4.4615,-4.4615,-4.4615,-4.4615,-4.4615,-4.4615,-4.4615,-4.4615,-4.4615,-4.4615,-4.4615,-4.4615,-4.4615,-4.4615,-4.4615,-4.4615,-4.4615,-4.4615,-4.4615,-4.4615,-4.4615,-4.4615,-4.4615,-4.4615,-4.4615,-4.4615,-4.4615,0.0,0.0,0.0,0.0,0.0,0.0,0.0,0.0,-4.2598,-4.3404,0.0,0.0,0.0,0.0,0.0,-4.2044,-4.1989,-4.204,-4.2183,-4.2183,0.0,0.0,0.0,0.0,-4.16,-4.1468,-4.1762,-4.2441,-4.1566,-4.2343,-4.4654,-4.4654,-4.5094,-4.5828,-4.5057,-4.5572,-4.7003,-4.6177,-4.5865,-4.5902,-4.5865,-4.5424,-4.5021,-4.7388,-4.7315,-4.5975,-4.5975,-4.5957,-4.57,-4.4121,-4.4306,-4.4899,-4.3188,-4.1549,-4.0362,-4.0877,-4.1058,-4.114,0.0,0.0,0.0,-4.4655,0.0,0.0,-4.6526,0.0,-4.7039,0.0,0.0,0.0,0.0,0.0,0.0,0.0,0.0,0.0,0.0,0.0,0.0,0.0,0.0,0.0,0.0,0.0,0.0,0.0,0.0,-4.4615,-4.4615,-4.4615,-4.4615,-4.4615,-4.4615,-4.4615,-4.4615,-4.4615,-4.4615,-4.4615,-4.4615,-4.4615,-4.4615,-4.4615,-4.4615,-4.4615,-4.4615,-4.4615,-4.4615,-4.4615,-4.4615,-4.4615,-4.4615,-4.4615,-4.4615,-4.4615,-4.4615,-4.4615,0.0,0.0,0.0,0.0,0.0,-4.4764,-4.5002,-4.3479,-4.2598,0.0,0.0,0.0,-4.2359,-4.1838,-4.1582,-4.1703,-4.1707,-4.1735,-4.1822,-4.1836,-4.1992,-4.231,-4.2667,-4.2937,-4.3153,-4.258,-4.2608,-4.3267,-4.2393,-4.2616,-4.3828,-4.3828,-4.4268,-4.5021,-4.48,-4.5278,-4.614,-4.4745,-4.4837,-4.5847,-4.5278,-4.559,-4.6507,-4.7168,-4.7516,-4.7645,-4.7645,-4.7278,-4.6691,0.0,-4.5533,-4.4444,-4.2251,-4.0446,-3.9178,-3.931,-4.0178,-4.0871,-3.9771,0.0,0.0,0.0,0.0,0.0,0.0,0.0,0.0,0.0,0.0,0.0,0.0,0.0,0.0,0.0,0.0,0.0,0.0,0.0,0.0,0.0,0.0,0.0,0.0,0.0,0.0,0.0,-4.4615,-4.4615,-4.4615,-4.4615,-4.4615,-4.4615,-4.4615,-4.4615,-4.4615,-4.4615,-4.4615,-4.4615,-4.4615,-4.4615,-4.4615,-4.4615,-4.4615,-4.4615,-4.4615,-4.4615,-4.4615,-4.4615,-4.4615,-4.4615,-4.4615,-4.4615,-4.4615,-4.4615,-4.4615,-4.4615,0.0,0.0,0.0,0.0,-4.625,-4.57,-4.57,-4.4635,-4.3975,0.0,0.0,0.0,-4.3387,-4.2875,-4.2535,-4.2405,-4.2384,-4.2415,-4.2495,-4.2492,-4.2656,-4.3028,-4.3116,-4.3338,-4.3701,-4.2924,-4.2857,-4.3548,-4.2707,-4.2708,-4.3515,-4.3515,-4.3736,-4.4195,-4.4195,-4.4452,-4.4819,-4.3534,-4.392,-4.5388,-4.5259,-4.5571,-4.6214,-4.7223,-4.7461,0.0,0.0,0.0,-4.7003,-4.6324,-4.5241,0.0,-4.1756,-4.0453,-3.9643,-3.9294,-4.0341,-4.1315,-4.0065,-4.0983,-4.2116,-4.1329,0.0,0.0,0.0,-4.4001,0.0,0.0,0.0,0.0,0.0,0.0,0.0,0.0,0.0,0.0,0.0,0.0,0.0,0.0,0.0,0.0,0.0,-4.4615,-4.4615,-4.4615,-4.4615,-4.4615,-4.4615,-4.4615,-4.4615,-4.4615,-4.4615,-4.4615,-4.4615,-4.4615,-4.4615,-4.4615,-4.4615,-4.4615,-4.4615,-4.4615,-4.4615,-4.4615,-4.4615,-4.4615,-4.4615,-4.4615,-4.4615,-4.4615,-4.4615,-4.4615,-4.4615,-4.4615,-4.4615,-4.4615,0.0,0.0,-4.8306,-4.8306,-4.7626,-4.7094,-4.7094,-4.6434,-4.5902,0.0,-4.5902,-4.5663,-4.5021,-4.4801,-4.4452,-4.3827,-4.3606,-4.355,-4.371,-4.3637,-4.3634,-4.3771,-4.3771,-4.3719,-4.3582,-4.2899,-4.2864,-4.3515,-4.2782,-4.28,-4.3515,-4.3515,-4.3515,-4.3515,-4.3423,-4.3369,-4.3331,-4.2598,-4.313,-4.4507,-4.5314,-4.5369,-4.5186,0.0,-4.7205,-4.6012,-4.592,-4.6361,-4.6727,-4.5205,-4.4176,0.0,0.0,0.0,-4.0948,-4.023,-4.1111,-4.2121,-4.1315,-4.1682,-4.2268,-4.2084,0.0,0.0,-4.2782,-4.3239,-4.3534,0.0,0.0,0.0,0.0,0.0,0.0,0.0,0.0,0.0,0.0,0.0,0.0,0.0,0.0,0.0,-4.4654,-4.4682,-4.4699,-4.4615,-4.4615,-4.4615,-4.4615,-4.4615,-4.4615,-4.4615,-4.4615,-4.4615,-4.4615,-4.4615,-4.4615,-4.4615,-4.4615,-4.4615,-4.4615,-4.4615,-4.4615,-4.4615,-4.4615,-4.4615,-4.4615,-4.4615,-4.4615,-4.4615,-4.4615,-4.4615,-4.4615,-4.4615,-4.4615,-4.4615,0.0,-4.7626,-4.8306,-4.8306,-4.7626,-4.7094,-4.7094,-4.6434,-4.5902,-4.5902,-4.5902,-4.6085,-4.6581,-4.548,-4.4911,-4.5388,-4.425,-4.379,-4.4451,-4.3863,-4.3532,-4.3549,-4.3617,-4.36,-4.3513,-4.3418,-4.3418,-4.3515,-4.3332,-4.3349,-4.3515,-4.3515,-4.3515,-4.3478,-4.2818,-4.2525,-4.2525,-4.2378,-4.2488,-4.2837,-4.3644,-4.5039,-4.6599,-4.6434,-4.6581,-4.6782,-4.614,-4.5993,-4.5993,-4.5021,-4.4176,-4.3331,0.0,0.0,0.0,-4.0912,-4.1552,-4.2121,-4.1315,-4.1682,-4.1992,0.0,0.0,0.0,-4.0671,-4.1589,-4.2396,0.0,0.0,0.0,0.0,0.0,0.0,0.0,0.0,0.0,0.0,0.0,0.0,0.0,0.0,0.0,-4.4722,-4.5128,-4.5229,-4.4649,-4.4615,-4.4615,-4.4615,-4.4615,-4.4615,-4.4615,-4.4615,-4.4615,-4.4615,-4.4615,-4.4615,-4.4615,-4.4615,-4.4615,-4.4615,-4.4615,-4.4615,-4.4615,-4.4615,-4.4615,-4.4615,-4.4615,-4.4615,-4.4615,-4.4615,-4.4615,-4.4615,-4.4615,-4.4615,-4.4615,-4.7021,-4.7736,-4.8306,-4.8306,-4.7957,-4.77,-4.77,-4.737,-4.7095,-4.7095,-4.7095,-4.7113,-4.7094,-4.6379,-4.5737,-4.5351,-4.4929,-4.4525,-4.4121,-4.4103,-4.392,-4.3533,-4.3531,-4.3531,-4.3515,-4.3531,-4.3531,-4.3515,-4.3515,-4.3515,-4.3515,-4.3515,-4.3515,-4.3478,-4.3075,-4.2892,-4.2837,-4.2047,-4.2158,-4.2965,-4.3773,0.0,-4.5902,-4.5902,-4.6159,-4.6416,-4.559,-4.5296,-4.5241,-4.4838,-4.4433,0.0,-4.269,-4.2304,-4.2213,0.0,-4.2268,-4.28,-4.2415,0.0,0.0,-4.1405,0.0,0.0,0.0,-4.1717,-4.2304,-4.2304,0.0,0.0,0.0,0.0,0.0,0.0,0.0,0.0,0.0,0.0,0.0,0.0,0.0,0.0,-4.5032,-4.506,-4.4993,-4.4632,-4.4615,-4.4615,-4.4615,-4.4615,-4.4615,-4.4615,-4.4615,-4.4615,-4.4615,-4.4615,-4.4615,-4.4615,-4.4615,-4.4615,-4.4615,-4.4615,-4.4615,-4.4615,-4.4615,-4.4615,-4.4615,-4.4615,-4.4615,-4.4615,-4.4615,-4.4615,-4.4615,-4.4615,-4.4615,-4.4615,-4.6911,-4.7736,-4.8306,-4.8306,-4.8306,-4.8306,-4.8306,-4.8306,-4.8306,-4.8306,-4.8306,-4.8048,-4.7388,-4.7186,-4.6636,-4.548,-4.57,-4.5406,-4.4268,-4.4507,-4.4488,-4.3992,-4.368,-4.357,-4.3718,-4.3588,-4.3515,-4.3515,-4.3515,-4.3515,-4.3515,-4.3515,-4.3515,-4.3496,-4.3332,-4.3276,-4.3167,-4.1735,-4.1937,-4.3332,0.0,-4.4416,-4.4782,-4.5424,-4.5663,-4.5571,-4.4764,-4.447,-4.447,-4.447,-4.447,-4.425,-4.2947,-4.2983,0.0,0.0,0.0,0.0,0.0,0.0,0.0,0.0,0.0,-4.2451,0.0,0.0,0.0,-4.2965,0.0,0.0,0.0,0.0,0.0,0.0,0.0,0.0,0.0,0.0,0.0,0.0,0.0,0.0,0.0,-4.4906,-4.4615,-4.4615,-4.4615,-4.4615,-4.4615,-4.4615,-4.4615,-4.4615,-4.4615,-4.4615,-4.4615,-4.4615,-4.4615,-4.4615,-4.4615,-4.4615,-4.4615,-4.4615,-4.4615,-4.4615,-4.4615,-4.4615,-4.4615,-4.4615,-4.4615,-4.4615,-4.4615,-4.4615,-4.4615,-4.4615,-4.4615,-4.4615,-4.6801,-4.7736,-4.8306,-4.8306,-4.8306,-4.8306,-4.8306,-4.8306,-4.8306,-4.8306,-4.8306,-4.8269,-4.8177,-4.7516,-4.7314,-4.7847,-4.6673,-4.614,-4.6654,-4.5443,-4.4984,-4.559,-4.425,-4.3828,-4.4562,-4.3864,-4.3515,-4.3515,-4.3515,-4.3515,-4.3515,-4.3515,-4.3515,-4.3478,-4.2745,-4.2433,-4.2378,-4.148,-4.1625,0.0,-4.2543,-4.3442,0.0,-4.48,-4.4838,-4.4727,-4.392,-4.3626,-4.3626,0.0,-4.3626,-4.3606,0.0,-4.3441,-4.3478,-4.3404,0.0,0.0,0.0,0.0,0.0,0.0,-4.2837,0.0,0.0,0.0,-4.2983,-4.1662,0.0,0.0,0.0,0.0,0.0,0.0,0.0,0.0,0.0,0.0,0.0,0.0,0.0,0.0,0.0,-4.4961,-4.4615,-4.4615,-4.4615,-4.4615,-4.4615,-4.4615,-4.4615,-4.4615,-4.4615,-4.4615,-4.4615,-4.4615,-4.4615,-4.4615,-4.4615,-4.4615,-4.4615,-4.4615,-4.4615,-4.4615,-4.4615,-4.4615,-4.4615,-4.4615,-4.4615,-4.4615,-4.4615,-4.4615,-4.4615,-4.4615,-4.4615,-4.4615,-4.6782,-4.7369,-4.7736,-4.8233,-4.8306,-4.8306,-4.8306,-4.8306,-4.8306,-4.8306,-4.8306,-4.8306,-4.8306,-4.8012,-4.7736,-4.7608,-4.7425,-4.704,-4.6452,-4.6195,-4.603,-4.5902,-4.4819,-4.436,-4.4691,-4.3901,-4.3515,-4.3515,-4.3515,-4.3515,-4.3515,-4.3515,-4.3515,-4.3515,-4.3626,-4.3699,-4.3644,-4.2837,-4.269,0.0,0.0,0.0,0.0,-4.3828,-4.3993,-4.3956,-4.3608,-4.3515,-4.3515,0.0,-4.3515,0.0,0.0,0.0,0.0,0.0,0.0,0.0,0.0,0.0,0.0,0.0,0.0,0.0,-4.2653,0.0,-4.3296,0.0,0.0,0.0,0.0,0.0,0.0,0.0,0.0,0.0,0.0,0.0,0.0,0.0,0.0,0.0,0.0,0.0,0.0,0.0,0.0,-4.4615,-4.4615,-4.4615,-4.4615,-4.4615,-4.4615,-4.4615,-4.4615,-4.4615,-4.4615,-4.4615,-4.4615,-4.4615,-4.4615,-4.4615,-4.4615,-4.4615,-4.4615,-4.4615,-4.4615,-4.4615,-4.4615,-4.4615,-4.4615,-4.4615,-4.4615,-4.4615,-4.4615,-4.4615,-4.6302,-4.6854,-4.7278,-4.7865,-4.8159,-4.8306,-4.8306,-4.8306,-4.8306,-4.8306,-4.8306,-4.8306,-4.8306,-4.8306,-4.8067,-4.748,-4.7957,-4.781,0.0,-4.6892,-4.6929,-4.6562,-4.559,-4.5039,-4.5039,-4.4232,-4.3718,-4.3515,-4.3515,-4.3515,-4.3515,-4.3515,-4.3515,-4.3533,-4.4103,-4.4488,-4.4636,-4.3828,-4.3736,-4.4066,-4.3039,-4.2635,-4.269,-4.3277,-4.3515,-4.3515,-4.3515,-4.3515,-4.3515,-4.3515,-4.3515,0.0,-4.3515,0.0,0.0,0.0,0.0,0.0,-4.3515,0.0,0.0,0.0,0.0,0.0,0.0,0.0,0.0,0.0,0.0,0.0,0.0,0.0,0.0,0.0,0.0,0.0,0.0,0.0,0.0,0.0,0.0,0.0,0.0,0.0,0.0,0.0,0.0,0.0,-4.4615,-4.4615,-4.4615,-4.4615,-4.4615,-4.4615,-4.4615,-4.4615,-4.4615,-4.4615,-4.4615,-4.4496,-4.4265,-4.4265,-4.4147,-4.3988,-4.4164,-4.4265,-4.4282,-4.4513,-4.4615,-4.4615,-4.4615,-4.4615,-4.4615,-4.4615,-4.4615,-4.4615,-4.5108,-4.6241,-4.7113,-4.7131,-4.7773,-4.8306,-4.8306,-4.8306,-4.8306,-4.8306,-4.8306,-4.8306,-4.8306,-4.8306,-4.8306,-4.8269,-4.8306,-4.8288,-4.8233,-4.7516,-4.7443,-4.8196,-4.6709,-4.5865,-4.5865,-4.5076,-4.4287,-4.3515,-4.3515,-4.3515,-4.3515,-4.3515,-4.3515,-4.3515,-4.3533,-4.3975,-4.4636,-4.3828,-4.4397,-4.5681,-4.4085,-4.346,-4.346,0.0,-4.3515,-4.3515,-4.3515,0.0,0.0,-4.3515,-4.3515,0.0,0.0,0.0,0.0,0.0,0.0,0.0,0.0,0.0,0.0,-4.3515,0.0,0.0,0.0,0.0,-4.3277,0.0,0.0,0.0,0.0,0.0,0.0,0.0,0.0,0.0,0.0,0.0,0.0,0.0,0.0,0.0,0.0,0.0,0.0,0.0,0.0,0.0,-4.4615,-4.4615,-4.4615,-4.4615,-4.4615,-4.4615,-4.4615,-4.4615,-4.4615,-4.4615,-4.4615,-4.4181,-4.3426,-4.3426,-4.3064,-4.2405,-4.3132,-4.3426,-4.3494,-4.4265,-4.4615,-4.4615,-4.4615,-4.4615,-4.4615,-4.4615,-4.4615,-4.4615,-4.4689,-4.5519,-4.6347,-4.687,-4.7052,-4.7373,-4.8176,-4.8306,-4.8306,-4.8306,-4.8306,-4.8306,-4.8306,-4.8306,-4.8306,0.0,0.0,-4.8306,-4.8306,-4.8048,-4.8012,-4.8306,-4.7278,-4.6691,0.0,-4.592,-4.5094,-4.4287,-4.4287,-4.4011,-4.3515,-4.3515,-4.3515,-4.3533,-4.4066,-4.4745,0.0,0.0,0.0,0.0,0.0,-4.3515,-4.3515,0.0,0.0,-4.3515,-4.3515,-4.3515,0.0,-4.3515,-4.3515,-4.3515,-4.3515,-4.3515,-4.3515,-4.3515,-4.3515,0.0,0.0,0.0,-4.3515,-4.3515,0.0,0.0,0.0,0.0,0.0,0.0,0.0,0.0,0.0,0.0,0.0,0.0,0.0,0.0,0.0,0.0,0.0,0.0,0.0,0.0,0.0,0.0,0.0,0.0,-4.4615,0.0,0.0,-4.4615,-4.4615,-4.4615,-4.4615,-4.4615,-4.4615,-4.4615,-4.4316,-4.3809,-4.3809,-4.342,-4.2675,-4.2675,-4.254,-4.2303,-4.2557,-4.2963,-4.3409,-4.3707,-4.4113,-4.4615,-4.4615,-4.4615,-4.4615,-4.4615,-4.4615,-4.4615,-4.463,-4.4945,-4.5481,-4.6323,-4.6568,-4.6949,-4.7922,-4.8055,-4.8113,-4.8287,-4.8306,0.0,-4.8306,0.0,-4.8306,0.0,-4.8306,-4.8306,-4.8306,-4.8306,0.0,-4.8306,-4.7791,-4.7388,0.0,0.0,0.0,0.0,0.0,-4.4287,-4.3515,-4.3515,-4.3515,-4.3533,-4.4048,-4.4874,-4.5902,-4.5902,-4.6232,0.0,0.0,-4.401,0.0,0.0,-4.3515,-4.3515,0.0,-4.3515,-4.3515,-4.3515,-4.3515,-4.3515,-4.3515,-4.3515,-4.3515,-4.3515,-4.3515,-4.3515,-4.3515,-4.3515,0.0,-4.3515,-4.3112,0.0,-4.2378,0.0,0.0,0.0,0.0,0.0,0.0,0.0,0.0,0.0,0.0,0.0,0.0,-4.4195,0.0,0.0,0.0,0.0,0.0,0.0,-4.4615,-4.4615,-4.4615,0.0,0.0,0.0,-4.4615,-4.4615,-4.4615,-4.4615,-4.4615,-4.4316,-4.391,-4.3392,-4.3149,-4.2625,-4.1914,-4.1914,-4.1762,-4.1525,-4.1779,-4.2337,-4.3031,-4.3274,-4.3876,-4.4615,-4.4615,-4.4615,-4.4615,-4.4615,-4.4615,-4.4615,-4.4907,-4.4615,-4.4632,-4.5536,-4.6341,-4.7026,0.0,0.0,-4.7775,0.0,-4.8306,-4.8306,-4.8306,-4.8306,-4.8306,-4.8306,-4.8306,-4.8306,-4.8306,-4.8306,0.0,0.0,-4.8306,-4.7938,-4.7186,0.0,0.0,0.0,0.0,0.0,-4.357,-4.3533,-4.3515,-4.3515,-4.3515,0.0,-4.5902,-4.5902,-4.6783,-4.8049,-4.6471,-4.4892,-4.3497,-4.3497,-4.3497,-4.3497,-4.3497,-4.3479,-4.3497,-4.3479,-4.3497,-4.3497,-4.3497,-4.3497,-4.3496,-4.346,-4.3441,-4.3424,-4.337,-4.3369,-4.3369,-4.3352,0.0,0.0,0.0,0.0,-4.3222,0.0,0.0,0.0,0.0,0.0,0.0,0.0,0.0,0.0,0.0,0.0,0.0,0.0,0.0,0.0,0.0,-4.4993,-4.4541,-4.4547,-4.4547,0.0,0.0,0.0,-4.4615,-4.4615,-4.4615,-4.4581,-4.4547,-4.3792,-4.3358,-4.3274,-4.2574,-4.1863,-4.1153,-4.1153,-4.0747,-4.0146,-4.0832,-4.1559,-4.2286,-4.3047,-4.3826,-4.4547,-4.4581,-4.4615,-4.4615,-4.4615,-4.4615,-4.4615,-4.5278,-4.5191,-4.5191,-4.5431,-4.5972,-4.6654,0.0,0.0,0.0,0.0,-4.8306,-4.8306,-4.8306,-4.8306,-4.8306,-4.8306,-4.8306,0.0,0.0,0.0,0.0,-4.8306,-4.8306,-4.8214,-4.8012,-4.7975,-4.7498,-4.647,0.0,0.0,-4.4378,-4.3773,-4.3515,-4.3515,0.0,-4.4378,-4.5902,-4.5902,-4.614,-4.6434,-4.5424,-4.438,0.0,0.0,-4.3358,-4.3304,-4.3463,-4.3392,-4.3286,-4.3394,-4.3429,-4.3429,-4.3429,-4.3445,-4.3386,-4.2782,-4.2598,-4.2419,-4.152,-4.1478,-4.1632,-4.1339,-4.1495,-4.1645,0.0,0.0,0.0,0.0,0.0,0.0,0.0,0.0,0.0,0.0,0.0,0.0,0.0,0.0,0.0,-4.4911,0.0,0.0,0.0,-4.4193,-4.3492,-4.3701,-4.3724,0.0,0.0,0.0,0.0,-4.4615,-4.4615,-4.4299,-4.3724,-4.3494,-4.2861,-4.1762,-4.1576,-4.1102,-4.0383,-4.0383,-4.0282,-4.0113,-4.0316,-4.0798,-4.1542,-4.2286,-4.3031,-4.3775,-4.4378,-4.4615,-4.4615,-4.4615,-4.4615,-4.4615,-4.5397,-4.5397,-4.5397,-4.5397,0.0,0.0,-4.716,-4.7291,0.0,-4.821,-4.8306,0.0,-4.8306,-4.8306,-4.8306,-4.8306,-4.8306,0.0,-4.8306,0.0,0.0,-4.8306,-4.8306,-4.8306,-4.8306,-4.8306,0.0,-4.7094,0.0,0.0,-4.4673,-4.3883,0.0,0.0,0.0,-4.4195,-4.5406,-4.5755,-4.5682,-4.5279,-4.4839,0.0,0.0,-4.3323,-4.3251,-4.316,-4.3322,-4.3304,-4.3214,-4.3287,-4.334,-4.3394,-4.3394,-4.3191,-4.284,-4.2382,-4.1877,-4.1321,-4.0654,-4.0527,-4.0509,-4.0293,-4.042,-4.058,-4.058,-4.1067,-4.1607,0.0,0.0,0.0,0.0,0.0,0.0,0.0,0.0,0.0,0.0,0.0,0.0,0.0,-4.371,0.0,0.0,0.0,0.0,0.0,0.0,0.0,0.0,0.0,0.0,-4.4615,-4.4248,-4.3859,-4.3392,-4.275,-4.2033,-4.1204,-4.0865,-4.0493,-4.0096,-4.0096,-4.0096,-4.0096,-4.0096,-4.051,-4.1238,-4.1644,-4.2455,-4.3477,-4.4282,-4.4615,-4.4615,-4.4615,-4.4615,-4.4615,-4.5344,-4.543,-4.5465,0.0,0.0,0.0,0.0,-4.6817,0.0,-4.8093,0.0,-4.823,-4.8287,-4.8306,-4.8306,-4.8306,0.0,-4.8306,-4.8306,-4.8306,-4.8306,-4.8306,-4.8306,-4.8306,-4.8306,-4.8306,-4.7957,0.0,0.0,0.0,-4.4837,0.0,0.0,0.0,0.0,0.0,0.0,-4.5461,-4.537,-4.4748,-4.4638,-4.4163,-4.3488,-4.3379,-4.3287,-4.3213,-4.3178,-4.316,-4.316,-4.3178,-4.3269,-4.3359,-4.3359,-4.2883,-4.2278,-4.2025,-4.1196,-4.0293,-3.9986,-3.9728,-3.9521,-3.9483,-3.9591,-3.9701,-3.9701,-4.0074,-4.0583,-4.1288,-4.1777,-4.2334,0.0,0.0,0.0,0.0,0.0,0.0,0.0,0.0,0.0,0.0,0.0,0.0,0.0,0.0,0.0,0.0,0.0,0.0,0.0,0.0,0.0,-4.4615,-4.3927,0.0,-4.324,0.0,-4.1255,-4.1052,-4.0417,-4.0096,-4.0096,-4.0096,-4.0096,-4.0096,-4.0096,-4.0468,-4.1068,-4.117,-4.2083,-4.346,-4.4164,-4.4513,-4.4615,-4.4615,-4.4615,-4.4615,-4.5086,-4.5573,-4.5823,0.0,0.0,-4.5477,-4.6193,-4.6315,-4.6654,-4.7591,-4.7715,-4.7877,-4.8267,-4.8306,-4.8306,-4.8306,-4.8306,0.0,0.0,0.0,0.0,-4.8306,-4.8306,-4.8306,-4.8306,-4.8306,-4.8233,0.0,0.0,0.0,-4.5663,0.0,0.0,0.0,0.0,0.0,-4.4727,-4.4856,0.0,-4.5535,-4.4876,-4.4802,-4.5033,-4.436,-4.403,-4.3844,-4.3192,-4.2939,-4.2975,-4.3086,-4.3141,-4.316,-4.316,-4.3105,-4.2704,-4.1053,-4.0401,-3.9802,-3.7796,-3.7463,-3.7598,-3.7246,-3.7937,-3.8651,-3.8651,-3.9226,-3.9802,-3.9945,-4.0499,-4.1157,-4.1741,0.0,0.0,0.0,0.0,0.0,0.0,0.0,0.0,0.0,0.0,0.0,0.0,0.0,0.0,0.0,0.0,0.0,0.0,0.0,0.0,0.0,-4.4479,0.0,0.0,0.0,-4.1491,-4.0299,-4.0163,-4.0096,-4.0096,-4.0096,-4.0096,-4.0096,-4.0096,-4.018,-4.035,-4.095,-4.2083,-4.3409,-4.3572,-4.4012,-4.4615,-4.4615,-4.4615,-4.4615,-4.6313,-4.6251,-4.6097,-4.5829,0.0,0.0,0.0,-4.5632,0.0,-4.7093,-4.7248,-4.7421,-4.7877,-4.7713,-4.7754,-4.8267,-4.8093,-4.8035,-4.8287,-4.8306,-4.8306,-4.8306,-4.8306,-4.8306,-4.8306,-4.8306,-4.8306,-4.8306,0.0,0.0,-4.5865,0.0,0.0,-4.3533,0.0,-4.4342,0.0,0.0,0.0,-4.526,-4.5126,-4.5025,-4.4901,-4.4147,-4.3782,-4.3593,-4.2565,-4.218,-4.2218,-4.2536,-4.2514,-4.2376,-4.2376,-4.2109,-4.1608,-4.0642,-3.9924,-3.9095,-3.7544,-3.7127,-3.7002,-3.6433,-3.6731,-3.7157,-3.7157,-3.7621,-3.8154,-3.8596,-3.9108,-3.97,-4.0386,-4.1254,0.0,0.0,0.0,0.0,0.0,0.0,0.0,0.0,0.0,0.0,0.0,0.0,0.0,0.0,0.0,0.0,0.0,0.0,0.0,0.0,0.0,0.0,0.0,0.0,0.0,-4.0096,-4.0096,-4.0096,-4.0096,-4.0096,-4.0096,-4.0096,-4.0096,-4.0096,-4.0163,-4.0899,-4.1847,-4.2878,-4.3267,-4.3893,-4.4615,-4.4615,-4.4615,-4.4615,-4.7181,-4.6725,0.0,0.0,-4.549,0.0,-4.5005,-4.5086,-4.5511,-4.6566,-4.6683,-4.6873,-4.7399,-4.7093,-4.716,-4.7935,-4.7653,-4.7611,-4.7975,-4.7995,-4.8053,-4.8152,-4.8152,-4.8191,-4.8306,-4.8306,-4.8306,0.0,0.0,0.0,0.0,0.0,0.0,0.0,0.0,0.0,0.0,0.0,-4.5307,-4.49,-4.5387,-4.5291,-4.4752,-4.3957,-4.3579,-4.3308,-4.1987,-4.1455,-4.141,-4.1782,-4.1799,-4.1648,-4.1648,-4.1225,-4.0654,-4.0411,-3.9652,-3.8713,-3.7887,-3.7357,-3.6894,-3.6319,-3.6029,-3.591,-3.591,-3.6156,-3.6568,-3.7195,-3.7813,-3.8503,-3.9356,-4.017,0.0,0.0,0.0,0.0,0.0,0.0,0.0,0.0,0.0,0.0,0.0,0.0,0.0,0.0,0.0,0.0,-4.4316,-4.4513,0.0,0.0,0.0,-4.2455,-4.2286,0.0,-4.0265,0.0,-4.0096,-4.0096,-4.0096,-4.0096,-4.0096,-4.0096,-4.0096,-4.0096,-4.0163,-4.0899,-4.1627,-4.2371,-4.3115,-4.3893,-4.4615,-4.4615,-4.4615,-4.4615,0.0,0.0,0.0,0.0,0.0,0.0,-4.4978,-4.5005,-4.5239,-4.5918,-4.6,-4.6244,-4.689,-4.6822,-4.6799,-4.7004,-4.6999,-4.6999,-4.7044,-4.7044,-4.7226,-4.7653,-4.7653,-4.7856,-4.8287,-4.8306,-4.8306,0.0,0.0,-4.7058,0.0,0.0,0.0,0.0,0.0,0.0,0.0,-4.4921,-4.4971,-4.5117,-4.5668,-4.5899,-4.5851,-4.4863,-4.4183,-4.3564,-4.203,-4.123,-4.0873,-4.0919,-4.1185,-4.1503,-4.1503,-4.1468,-4.1187,-4.0099,-3.9692,-3.9348,-3.8187,-3.7367,-3.6801,-3.6734,-3.6192,-3.5644,-3.5644,-3.5667,-3.5728,-3.5779,-3.6797,-3.7992,-3.9029,-3.9703,-4.0172,0.0,0.0,0.0,0.0,0.0,-4.1188,-4.0264,0.0,0.0,0.0,0.0,0.0,0.0,0.0,0.0,-4.3555,-4.4198,-4.4265,-4.3527,0.0,-4.298,-4.2303,-4.1508,0.0,-4.0096,-4.0096,-4.0096,-4.0096,-4.0096,-4.0096,-4.0096,-4.0096,-4.0096,-4.0163,-4.0899,-4.1627,-4.2371,-4.3115,-4.3893,-4.4615,-4.4615,-4.4615,-4.4615,0.0,0.0,0.0,0.0,0.0,0.0,0.0,-4.4831,-4.4978,-4.5213,-4.5302,-4.5572,-4.6116,-4.5885,-4.5985,-4.6724,-4.6478,-4.6478,-4.6886,-4.6908,-4.7115,-4.7591,-4.7611,-4.7816,-4.8287,-4.8267,-4.8228,0.0,0.0,0.0,0.0,0.0,0.0,0.0,0.0,-4.5022,-4.5151,-4.5534,-4.5558,-4.5396,-4.5834,-4.5859,-4.5544,-4.468,-4.423,-4.3801,-4.196,-4.1199,-4.0966,-4.0531,-4.049,-4.0659,-4.0659,-4.0659,-4.0566,-4.0092,-3.9934,-3.9732,-3.88,-3.8328,-3.7912,-3.7032,-3.6575,-3.6197,-3.5701,-3.56,-3.56,-3.56,-3.6026,-3.6529,-3.6949,-3.8036,-3.8877,0.0,0.0,0.0,0.0,0.0,0.0,-4.018,0.0,-4.1085,0.0,0.0,0.0,0.0,0.0,0.0,0.0,0.0,0.0,-4.4113,0.0,-4.2151,-4.2286,-4.1119,-4.0375,-4.0096,-4.0096,-4.0096,-4.0096,-4.0096,-4.0096,-4.0096,-4.0096,-4.0096,-4.0163,-4.0899,-4.1627,-4.2371,-4.3115,-4.3893,-4.4615,-4.4615,-4.4615,-4.4615,-4.8171,0.0,-4.6949,0.0,-4.5399,-4.4964,-4.4632,-4.4682,-4.4737,-4.4737,-4.4831,-4.5042,-4.5451,-4.5159,-4.5266,-4.6133,-4.5843,-4.5843,-4.6352,-4.6352,-4.6572,-4.7164,-4.7252,0.0,-4.8034,-4.811,-4.8052,-4.7913,-4.7913,0.0,0.0,0.0,0.0,0.0,-4.494,-4.52,-4.5321,-4.5804,-4.5716,-4.5267,-4.5691,-4.5563,-4.5013,-4.444,-4.4096,-4.376,-4.2123,-4.139,-4.1119,-4.0595,-4.0282,-4.0096,-4.0096,-4.0096,-4.0096,-4.0096,-4.0096,-3.9994,-3.9469,-3.9157,-3.8734,-3.7726,-3.7134,-3.666,-3.6079,-3.5752,-3.56,-3.56,-3.56,-3.5735,-3.6191,-3.7231,-3.816,-3.8488,0.0,0.0,0.0,0.0,0.0,0.0,-4.0544,-4.0882,-4.0882,0.0,0.0,0.0,0.0,0.0,0.0,0.0,0.0,0.0,0.0,0.0,0.0,-4.0739,-4.0096,-4.0096,-4.0096,-4.0096,-4.0096,-4.0096,-4.0096,-4.0096,-4.0096,-4.0231,-4.0485,-4.1221,-4.1965,-4.2692,-4.347,-4.4096,-4.4615,-4.4615,-4.4615,-4.4615,-4.8054,-4.7889,-4.7445,-4.5974,-4.5703,-4.5432,-4.4716,-4.4615,-4.4615,-4.4615,-4.4598,-4.4709,-4.4978,-4.4886,-4.4858,-4.5005,-4.5005,-4.5059,-4.5203,-4.5113,-4.5389,0.0,0.0,-4.684,-4.7511,-4.7829,-4.7733,-4.7216,0.0,0.0,-4.6395,0.0,-4.5198,-4.5181,-4.5135,-4.524,-4.5494,-4.5355,-4.5035,-4.4654,-4.5125,-4.5035,-4.4569,-4.4301,-4.3878,-4.3318,-4.2557,-4.1813,-4.1204,-4.1187,-4.0696,-4.0096,-4.0096,-4.0096,-4.0096,-4.0096,-4.0096,-4.0096,-4.0096,-3.9554,-3.8988,-3.8971,-3.7895,-3.6795,-3.6795,-3.618,-3.56,-3.56,-3.56,-3.6056,-3.7577,-3.7889,-3.8379,-3.9842,0.0,0.0,0.0,0.0,0.0,0.0,-4.0113,-4.0113,-4.0113,0.0,0.0,0.0,0.0,0.0,0.0,0.0,0.0,-4.1288,-4.1221,0.0,-4.1221,-4.046,-4.0096,-4.0096,-4.0096,-4.0096,-4.0096,-4.0096,-4.0096,-4.0096,-4.0096,-4.0493,-4.1238,-4.1982,-4.2726,-4.346,-4.4265,-4.4598,-4.4615,-4.4615,-4.4615,-4.4615,-4.8024,-4.7889,-4.7415,-4.5974,-4.5703,-4.5449,-4.4716,-4.4615,-4.4615,-4.4615,-4.4615,-4.4626,-4.4737,-4.4682,-4.4737,0.0,-4.4858,-4.4913,0.0,-4.5032,-4.5266,-4.5835,-4.5918,-4.6203,-4.6723,-4.6809,-4.6763,-4.6601,0.0,0.0,0.0,-4.5521,-4.5181,-4.4791,-4.4772,-4.4803,-4.4879,-4.4824,-4.4748,-4.4598,-4.4759,-4.4748,-4.4581,-4.4504,-4.4364,-4.4113,-4.3335,-4.2912,-4.2615,-4.2117,-4.1779,-4.1491,-4.1001,-4.0493,-4.0096,-4.0096,-4.0096,-4.0096,-4.0096,-3.9943,-3.9639,-3.9123,-3.8633,-3.8159,-3.7652,-3.6958,-3.6265,-3.5701,-3.56,-3.5904,-3.6958,-3.755,-3.8227,-3.9174,-3.9774,0.0,0.0,0.0,0.0,0.0,-4.0096,-4.0096,0.0,-4.0096,0.0,0.0,0.0,0.0,0.0,0.0,0.0,0.0,-4.0967,0.0,-4.1204,-4.0485,-4.0096,-4.0096,-4.0096,-4.0096,-4.0096,-4.0096,-4.0096,-4.013,-4.0629,-4.0984,-4.1305,-4.254,-4.3172,-4.3477,-4.4282,-4.4615,-4.4615,-4.4615,-4.4615,-4.4615,-4.8409,-4.8294,-4.7953,-4.6752,-4.6312,-4.5855,-4.5111,-4.4784,-4.4615,-4.4615,-4.4615,-4.4615,-4.4615,-4.4615,0.0,-4.4737,-4.472,-4.4776,-4.4913,-4.4886,-4.5015,-4.5416,-4.5511,-4.5724,-4.6081,0.0,0.0,-4.5925,-4.5759,-4.5477,-4.5152,-4.5152,-4.4944,-4.4615,-4.4615,-4.4615,-4.4615,-4.4615,-4.4615,-4.4615,-4.4615,-4.4615,-4.4615,-4.4615,-4.4615,-4.4547,-4.4028,-4.3673,-4.3325,-4.2878,-4.2523,-4.2219,-4.1762,-4.1288,-4.0823,-4.0265,-4.0096,-4.0096,-4.0096,-4.0096,-3.9994,-3.9537,-3.9191,-3.8802,-3.8075,-3.7533,-3.706,-3.6586,-3.6462,-3.6705,-3.7489,-3.799,-3.8548,-3.9276,-4.0045,-4.0434,-4.0146,0.0,0.0,0.0,0.0,0.0,0.0,-4.0265,0.0,0.0,0.0,0.0,0.0,0.0,0.0,-4.1484,-4.0587,0.0,-4.0781,-4.0333,-4.0096,-4.0096,-4.0096,-4.0096,-4.0096,-4.0096,-4.0265,-4.0527,-4.1001,-4.1525,-4.2117,-4.3003,-4.3589,-4.391,-4.4412,-4.4615,-4.4615,-4.4615,-4.4615,-4.4615,-4.9001,-4.9001,0.0,0.0,-4.7293,0.0,-4.5821,-4.506,-4.4615,-4.4615,-4.4615,-4.4615,-4.4615,-4.4615,-4.4615,-4.4615,0.0,0.0,0.0,-4.4682,-4.4709,-4.4951,-4.5169,-4.5337,-4.5529,-4.5835,-4.5767,-4.5267,-4.4797,-4.4615,-4.4615,-4.4615,-4.4615,-4.4615,-4.4615,-4.4615,-4.4615,-4.4615,-4.4615,-4.4615,-4.4615,-4.4615,-4.4615,-4.4615,-4.4615,-4.4615,-4.4615,-4.4113,-4.3477,-4.3477,-4.3031,-4.2439,-4.2388,-4.2371,-4.2083,-4.0671,-4.0231,-4.018,-4.018,-4.0146,-4.0096,-4.0096,-3.9588,-3.887,-3.8142,-3.799,-3.7973,-3.7922,-3.7905,-3.8125,-3.8853,-3.8988,-3.9242,-4.0062,-4.0747,-4.0967,-4.0282,0.0,0.0,0.0,0.0,0.0,0.0,-4.0493,-4.0383,0.0,0.0,0.0,0.0,0.0,-4.0798,-4.013,-4.0096,-4.0096,-4.0096,-4.0096,-4.0096,-4.0096,-4.0096,-4.0096,-4.0096,-4.0096,-4.046,-4.1136,-4.1238,-4.2066,-4.3325,-4.3426,-4.3927,-4.4615,-4.4615,-4.4615,-4.4615,-4.4615,-4.4615,-4.4615,0.0,0.0,-4.8781,-4.8024,-4.7293,-4.6549,-4.5821,-4.506,-4.4615,-4.4615,-4.4615,-4.4615,-4.4615,-4.4615,-4.4615,-4.4615,-4.4615,-4.4598,-4.4654,-4.4626,-4.4626,-4.4682,-4.4748,-4.4803,-4.4831,-4.4923,-4.4896,-4.4759,-4.4654,-4.4615,-4.4615,-4.4615,-4.4615,-4.4615,-4.4615,-4.4615,-4.4615,-4.4615,-4.4615,-4.4615,-4.4615,-4.4615,-4.4615,-4.4615,-4.4615,-4.4615,-4.4615,-4.4496,-4.4316,-4.4316,-4.4209,-4.3955,-4.3335,-4.3149,-4.2963,-4.2049,-4.1373,-4.0933,-4.0933,-4.0536,-4.0096,-4.0096,-3.9977,-3.9656,-3.8903,-3.8734,-3.8582,-3.8024,-3.7905,-3.8125,-3.8853,-3.8988,-3.9428,-4.073,-4.1085,-4.1136,-4.0967,-4.1085,0.0,0.0,-4.0096,-4.018,-4.035,-4.0214,-4.018,0.0,0.0,0.0,0.0,-4.0282,-4.0282,-4.0113,-4.0096,-4.0096,-4.0096,-4.0096,-4.0096,-4.0096,-4.0096,-4.0096,-4.0096,-4.0096,-4.0197,-4.0434,-4.1542,-4.2236,-4.2642,-4.3826,-4.4445,-4.4615,-4.4615,-4.4615,-4.4615,-4.4615,-4.4615,-4.4615,-4.9001,-4.9001,-4.8883,-4.8477,-4.78,-4.7056,-4.6312,-4.5568,-4.4976,-4.4649,-4.4615,-4.4615,-4.4615,-4.4615,-4.4615,-4.4615,-4.4615,-4.4615,-4.4615,-4.4615,-4.4615,-4.4615,-4.4615,-4.4615,-4.4615,-4.4615,-4.4615,-4.4615,-4.4615,-4.4615,-4.4615,-4.4615,-4.4615,-4.4615,-4.4615,-4.4615,-4.4615,-4.4615,-4.4615,-4.4615,-4.4615,-4.4615,-4.4615,-4.4615,-4.4615,-4.4615,-4.4615,-4.4615,-4.4615,-4.4615,-4.4615,-4.453,-4.4079,-4.3944,-4.3859,-4.3453,-4.232,-4.1204,-4.1204,-4.0646,-4.0096,-4.0096,-4.0096,-3.9994,-3.9605,-3.9503,-3.9402,-3.8988,-3.8903,-3.9022,-3.9436,-3.9766,-4.0273,-4.1068,-4.1474,-4.1593,-4.1255,-4.1204,0.0,-4.0197,-4.0096,-4.0231,-4.0561,-4.0316,-4.0248,-4.0561,0.0,0.0,-4.0096,-4.0096,-4.0096,-4.0096,-4.0096,-4.0096,-4.0096,-4.0096,-4.0096,-4.0096,-4.0096,-4.0096,-4.0096,-4.0096,-4.0282,-4.0663,-4.1796,-4.2489,-4.2895,-4.4079,-4.4615,-4.4615,-4.4615,-4.4615,-4.4542,-4.4207,-4.4105,-4.4047,-4.9001,-4.9001,-4.9001,-4.9001,-4.8308,-4.753,-4.6887,-4.6075,-4.5314,-4.4682,-4.4615,-4.4615,-4.4615,-4.4615,-4.4615,-4.4615,-4.4615,-4.4615,-4.4615,-4.4615,-4.4615,-4.4615,-4.4615,-4.4615,-4.4615,-4.4615,-4.4615,-4.4615,-4.4615,-4.4615,-4.4615,-4.4615,-4.4615,-4.4615,-4.4615,-4.4615,-4.4615,-4.4615,-4.4615,-4.4615,-4.4615,-4.4615,-4.4615,-4.4615,-4.4615,-4.4615,-4.4615,-4.4615,-4.4615,-4.4615,-4.4615,-4.4615,-4.4615,-4.4615,-4.4615,-4.4615,-4.3132,-4.1508,-4.1407,-4.073,-4.0096,-4.0096,-4.0096,-4.0096,-4.0096,-4.0096,-4.0096,-4.0096,-4.0197,-4.0282,-4.0282,-4.0865,-4.1407,-4.1508,-4.1965,-4.2066,-4.1457,0.0,-4.0933,-4.0197,-4.0096,-4.0367,-4.0967,-4.0485,-4.0367,-4.0984,-4.0443,-4.0096,0.0,-4.0096,-4.0096,-4.0096,-4.0096,-4.0096,-4.0096,-4.0096,-4.0096,-4.0096,-4.0096,-4.0096,-4.0096,-4.0096,-4.0426,-4.1085,-4.1914,-4.2588,-4.3137,-4.4041,-4.444,-4.4412,-4.431,-4.4338,-4.4338,-4.3617,-4.3363,-4.3257,-4.9001,-4.9001,-4.9001,-4.9001,-4.7868,-4.6921,-4.6802,-4.5664,-4.4733,-4.4615,-4.4615,-4.4615,-4.4615,-4.4615,-4.4615,-4.4615,-4.4615,-4.4615,-4.4615,-4.4615,-4.4615,-4.4615,-4.4615,-4.4615,-4.4615,-4.4615,-4.4615,-4.4615,-4.4615,-4.4615,-4.4615,-4.4615,-4.4615,-4.4615,-4.4615,-4.4615,-4.4615,-4.4615,-4.4615,-4.4615,-4.4615,-4.4615,-4.4615,-4.4615,-4.4615,-4.4615,-4.4615,-4.4615,-4.4615,-4.4615,-4.4615,-4.4615,-4.4615,-4.4615,-4.4615,-4.4615,-4.3859,-4.2929,-4.2286,-4.1145,-4.0096,-4.0096,-4.0096,-4.0096,-4.0096,-4.0096,-4.0096,-4.0096,-4.0595,-4.1035,-4.1035,-4.1627,-4.2337,-4.298,-4.2642,-4.2252,-4.2151,0.0,-4.0933,-4.0197,-4.0096,-4.0146,-4.0265,-4.018,-4.0146,-4.0265,-4.0163,-4.0096,-4.0096,-4.0096,-4.0096,-4.0096,-4.0096,-4.0096,-4.0096,-4.0096,-4.0096,-4.0096,-4.0096,-4.0096,-4.0096,-4.0096,-4.0163,-4.035,-4.1721,-4.2024,-4.1737,-4.3128,-4.3676,-4.3601,-4.3061,-4.3183,-4.3588,-4.2892,-4.2676,-4.2645,-4.9001,-4.9001,-4.9001,-4.9001,-4.8443,-4.7851,-4.7462,-4.6819,-4.6092,-4.5297,-4.5179,-4.5026,-4.4649,-4.4615,-4.4615,-4.4615,-4.4615,-4.4615,-4.4615,-4.4615,-4.4615,-4.4615,-4.4615,-4.4615,-4.4615,-4.4615,-4.4615,-4.4615,-4.4615,-4.4615,-4.4615,-4.4615,-4.4615,-4.4615,-4.4615,-4.4615,-4.4615,-4.4615,-4.4615,-4.4615,-4.4615,-4.4615,-4.4615,-4.4615,-4.4615,-4.4615,-4.4615,-4.4615,-4.4615,-4.4615,-4.4615,-4.4615,-4.4615,-4.4615,-4.4615,-4.4615,-4.4028,-4.3139,-4.2016,-4.1204,-4.0595,-4.0197,-4.0096,-4.0096,-4.0096,-4.0096,-4.0096,-4.0096,-4.0679,-4.1204,-4.1204,-4.2134,-4.3014,-4.3325,-4.2777,0.0,0.0,-4.1305,-4.0485,-4.0146,-4.0096,-4.0096,-4.0096,-4.0096,-4.0096,-4.0096,-4.0096,-4.0096,-4.0096,-4.0096,-4.0096,-4.0096,-4.0096,-4.0096,-4.0096,-4.0096,-4.0096,-4.0096,-4.0096,-4.0096,-4.0096,-4.0096,-4.0333,-4.0747,-4.1433,-4.1799,-4.1964,-4.2679,-4.2953,-4.2923,-4.2614,-4.2707,-4.2892,-4.2205,-4.1949,-4.1901,-4.9001,-4.9001,-4.9001,-4.9001,-4.8866,-4.8562,-4.7973,-4.7736,-4.7259,-4.6109,-4.5821,-4.5483,-4.4936,-4.4716,-4.4615,-4.4615,-4.4615,-4.4615,-4.4615,-4.4615,-4.4615,-4.4615,-4.4615,-4.4615,-4.4615,-4.4615,-4.4615,-4.4615,-4.4615,-4.4615,-4.4615,-4.4615,-4.4615,-4.4615,-4.4615,-4.4615,-4.4615,-4.4615,-4.4615,-4.4615,-4.4615,-4.4615,-4.4615,-4.4615,-4.4615,-4.4615,-4.4615,-4.4615,-4.4615,-4.4615,-4.4615,-4.4615,-4.4615,-4.4615,-4.4615,-4.4615,-4.4147,-4.3403,-4.2083,-4.1593,-4.1271,-4.0527,-4.0367,-4.0316,-4.0146,-4.0231,-4.0367,-4.0367,-4.1068,-4.1711,-4.1711,-4.2794,-4.3639,-4.3426,0.0,0.0,0.0,-4.0925,-4.0096,-4.0096,-4.0096,-4.0096,-4.0096,-4.0096,-4.0096,-4.0096,-4.0096,-4.0096,-4.0096,-4.0096,-4.0096,-4.0096,-4.0096,-4.0096,-4.0096,-4.0096,-4.0096,-4.0096,-4.0096,-4.0096,-4.0113,-4.0282,-4.0646,-4.1229,-4.1632,-4.1922,-4.2164,-4.2415,-4.2426,-4.2269,-4.2078,-4.2141,-4.2173,-4.1525,-4.1276,-4.1176,-4.9001,-4.9001,-4.9001,-4.9001,-4.8443,-4.7939,-4.7889,-4.7327,-4.6836,-4.6718,-4.6126,-4.5686,-4.5618,-4.4993,-4.4615,-4.4615,-4.4615,-4.4615,-4.4615,-4.4615,-4.4615,-4.4615,-4.4615,-4.4615,-4.4615,-4.4615,-4.4615,-4.4615,-4.4615,-4.4615,-4.4615,-4.4615,-4.4615,-4.4615,-4.4615,-4.4615,-4.4615,-4.4615,-4.4615,-4.4615,-4.4615,-4.4615,-4.4615,-4.4615,-4.4615,-4.4615,-4.4615,-4.4615,-4.4615,-4.4615,-4.4615,-4.4615,-4.4615,-4.4615,-4.4615,-4.4615,-4.4564,-4.4344,-4.3487,-4.2743,-4.2033,-4.1305,-4.1119,-4.0933,-4.0265,-4.0629,-4.1119,-4.1119,-4.2269,-4.3223,-4.3223,-4.3944,-4.4265,-4.3511,0.0,0.0,-4.139,-4.062,-4.0096,-4.0096,-4.0096,-4.0096,-4.0096,-4.0096,-4.0096,-4.0096,-4.0096,-4.0096,-4.0096,-4.0096,-4.0096,-4.0096,-4.0096,-4.0096,-4.0096,-4.0096,-4.0096,-4.0096,-4.0096,-4.0096,-4.013,-4.0798,-4.1153,-4.1288,-4.2655,-4.2575,-4.1533,-4.2229,-4.2141,-4.1525,-4.0904,-4.1024,-4.1492,-4.0802,-4.0593,-4.0558,-4.9001,-4.9001,-4.9001,-4.9001,-4.8781,-4.8595,-4.8595,-4.8342,-4.8003,-4.7547,-4.6836,-4.621,-4.5754,-4.5026,-4.4615,-4.4615,-4.4615,-4.4615,-4.4615,-4.4615,-4.4615,-4.4615,-4.4615,-4.4615,-4.4615,-4.4615,-4.4615,-4.4615,-4.4615,-4.4615,-4.4615,-4.4615,-4.4615,-4.4615,-4.4615,-4.4615,-4.4615,-4.4615,-4.4615,-4.4615,-4.4615,-4.4615,-4.4615,-4.4615,-4.4615,-4.4615,-4.4615,-4.4615,-4.4615,-4.4615,-4.4615,-4.4615,-4.4615,-4.4615,-4.4615,-4.4615,-4.4615,-4.4547,-4.4215,-4.3572,-4.2811,-4.2066,-4.188,-4.1813,-4.1525,-4.1677,-4.188,-4.188,-4.2692,-4.3392,-4.3392,-4.3656,-4.3775,-4.3443,0.0,-4.1525,-4.1238,-4.0561,-4.0096,-4.0096,-4.0096,-4.0096,-4.0096,-4.0096,-4.0096,-4.0096,-4.0096,-4.0096,-4.0096,-4.0096,-4.0096,-4.0096,-4.0096,-4.0096,-4.0096,-4.0096,-4.0096,-4.0096,-4.0096,-4.035,-4.0781,-4.1068,-4.1711,-4.2554,-4.2278,-4.2122,-4.2055,-4.148,-4.1125,-4.0836,-4.0593,-4.0646,-4.0836,-4.0578,-4.047,-4.0401,-4.9001,-4.9001,-4.9001,-4.9001,-4.9001,-4.9001,-4.9001,-4.9001,-4.8832,-4.8325,-4.7614,-4.687,-4.6126,-4.5382,-4.4869,-4.4632,-4.4615,-4.4615,-4.4615,-4.4615,-4.4615,-4.4615,-4.4615,-4.4615,-4.4615,-4.4615,-4.4615,-4.4615,-4.4615,-4.4615,-4.4615,-4.4615,-4.4615,-4.4615,-4.4615,-4.4615,-4.4615,-4.4615,-4.4615,-4.4615,-4.4615,-4.4615,-4.4615,-4.4615,-4.4615,-4.4615,-4.4615,-4.4615,-4.4615,-4.4615,-4.4615,-4.4615,-4.4615,-4.4615,-4.4615,-4.4615,-4.4615,-4.4615,-4.4615,-4.4198,-4.3589,-4.2828,-4.2642,-4.2574,-4.2337,-4.2472,-4.2642,-4.2642,-4.325,-4.3792,-4.3792,-4.3561,-4.3308,-4.3098,-4.2016,-4.1119,-4.0882,-4.0434,-4.0096,-4.0096,-4.0096,-4.0096,-4.0096,-4.0096,-4.0096,-4.0096,-4.0096,-4.0096,-4.0096,-4.0096,-4.0096,-4.0096,-4.0096,-4.0096,-4.0096,-4.0096,-4.0096,-4.0096,-4.0096,-4.0476,-4.1221,-4.1441,-4.2236,-4.3337,-4.245,-4.2237,-4.2426,-4.1276,-4.0681,-4.0489,-4.0489,-4.0489,-4.0489,-4.0455,-4.0366,-4.0296,-4.9001,-4.9001,-4.9001,-4.9001,-4.9001,-4.9001,-4.9001,-4.9001,-4.9001,-4.9001,-4.8359,-4.7631,-4.687,-4.6143,-4.5399,-4.4666,-4.4615,-4.4615,-4.4615,-4.4615,-4.4615,-4.4615,-4.4615,-4.4615,-4.4615,-4.4615,-4.4615,-4.4615,-4.4615,-4.4615,-4.4615,-4.4615,-4.4615,-4.4615,-4.4615,-4.4615,-4.4615,-4.4615,-4.4615,-4.4615,-4.4615,-4.4615,-4.4615,-4.4615,-4.4615,-4.4615,-4.4615,-4.4615,-4.4615,-4.4615,-4.4615,-4.4615,-4.4615,-4.4615,-4.4615,-4.4615,-4.4615,-4.4615,-4.4615,-4.4615,-4.4429,-4.3623,-4.3392,-4.3234,-4.2472,-4.2878,-4.3392,-4.3392,-4.4045,-4.4615,-4.4615,-4.3944,-4.3139,-4.2422,-4.1677,-4.0933,-4.0214,-4.0096,-4.0096,-4.0096,-4.0096,-4.0096,-4.0096,-4.0096,-4.0096,-4.0096,-4.0096,-4.0096,-4.0096,-4.0096,-4.0096,-4.0096,-4.0096,-4.0096,-4.0096,-4.0096,-4.0096,-4.0096,-4.0096,-4.0476,-4.1238,-4.1965,-4.2709,-4.3399,-4.3477,-4.3106,-4.2458,-4.1771,-4.1091,-4.0489,-4.0489,-4.0489,-4.0489,-4.0347,-4.0312,-4.0277,-4.9001,-4.9001,-4.9001,-4.9001,-4.9001,-4.9001,-4.9001,-4.8578,-4.8426,-4.8934,-4.7902,-4.7039,-4.6819,-4.6143,-4.5399,-4.4666,-4.4615,-4.4615,-4.4615,-4.4615,-4.4615,-4.4615,-4.4615,-4.4615,-4.4615,-4.4615,-4.4615,-4.4615,-4.4615,-4.4615,-4.4615,-4.4615,-4.4615,-4.4615,-4.4615,-4.4615,-4.4615,-4.4615,-4.4615,-4.4615,-4.4615,-4.4615,-4.4615,-4.4615,-4.4615,-4.4615,-4.4615,-4.4615,-4.4615,-4.4615,-4.4615,-4.4615,-4.4615,-4.4615,-4.4615,-4.4615,-4.4615,-4.4615,-4.4615,-4.4615,-4.4547,-4.4282,-4.4231,-4.4164,-4.3972,-4.4062,-4.4231,-4.4231,-4.4418,-4.4615,-4.4615,-4.3944,-4.3139,-4.2422,-4.1677,-4.0933,-4.0214,-4.0096,-4.0096,-4.0096,-4.0096,-4.0096,-4.0096,-4.0096,-4.0096,-4.0096,-4.0096,-4.0096,-4.0096,-4.0096,-4.0096,-4.0096,-4.0096,-4.0096,-4.0096,-4.0096,-4.0096,-4.0096,-4.0096,-4.0773,-4.1982,-4.2202,-4.2745,-4.3448,-4.2977,-4.2426,-4.1739,-4.1091,-4.0681,-4.0489,-4.0489,-4.0436,-4.0331,-4.0296,-4.0121,-3.991,-4.9001,-4.9001,-4.9001,-4.9001,-4.9001,-4.9001,-4.9001,-4.8629,-4.8409,-4.8545,-4.78,-4.7005,-4.643,-4.5974,-4.5399,-4.4666,-4.4615,-4.4615,-4.4615,-4.4615,-4.4615,-4.4615,-4.4615,-4.4615,-4.4615,-4.4615,-4.4615,-4.4615,-4.4615,-4.4615,-4.4615,-4.4615,-4.4615,-4.4615,-4.4615,-4.4615,-4.4615,-4.4615,-4.4615,-4.4615,-4.4615,-4.4615,-4.4615,-4.4615,-4.4615,-4.4615,-4.4615,-4.4615,-4.4615,-4.4615,-4.4615,-4.4615,-4.4615,-4.4615,-4.4615,-4.4615,-4.4615,-4.4615,-4.4615,-4.4615,-4.4615,-4.4615,-4.4615,-4.4615,-4.4615,-4.4615,-4.4615,-4.4615,-4.4615,-4.4615,-4.4615,-4.3944,-4.3139,-4.2422,-4.1677,-4.0933,-4.0214,-4.0096,-4.0096,-4.0096,-4.0096,-4.0096,-4.0096,-4.0096,-4.0096,-4.0096,-4.0096,-4.0096,-4.0096,-4.0096,-4.0096,-4.0096,-4.0096,-4.0096,-4.0096,-4.0096,-4.0248,-4.0536,-4.0248,-4.0745,-4.1946,-4.1902,-4.2159,-4.2558,-4.2234,-4.182,-4.136,-4.0734,-4.0489,-4.0489,-4.0436,-4.0366,-4.0277,-4.0121,-3.991,-3.9696,-4.9001,-4.9001,-4.9001,-4.9001,-4.9001,-4.9001,-4.9001,-4.8951,-4.8697,-4.8075,-4.7922,-4.7382,-4.6041,-4.5838,-4.55,-4.4767,-4.4649,-4.4615,-4.4615,-4.4615,-4.4615,-4.4615,-4.4615,-4.4615,-4.4615,-4.4615,-4.4615,-4.4615,-4.4615,-4.4615,-4.4615,-4.4615,-4.4615,-4.4615,-4.4615,-4.4615,-4.4615,-4.4615,-4.4615,-4.4615,-4.4615,-4.4615,-4.4615,-4.4615,-4.4615,-4.4615,-4.4615,-4.4615,-4.4615,-4.4615,-4.4615,-4.4615,-4.4615,-4.4615,-4.4615,-4.4615,-4.4615,-4.4615,-4.4615,-4.4615,-4.4615,-4.4615,-4.4615,-4.4615,-4.4615,-4.4615,-4.4615,-4.4615,-4.4615,-4.4615,-4.4615,-4.3995,-4.325,-4.2422,-4.1728,-4.1018,-4.0214,-4.0096,-4.0096,-4.0096,-4.0096,-4.0096,-4.0096,-4.0096,-4.0096,-4.0096,-4.0096,-4.0096,-4.0096,-4.0096,-4.0096,-4.0096,-4.0096,-4.0096,-4.0096,-4.018,-4.0493,-4.1085,-4.0434,-4.0546,-4.1387,-4.1314,-4.1265,-4.1242,-4.1388,-4.136,-4.1176,-4.0646,-4.047,-4.047,-4.0331,-4.0277,-4.0191,-3.9839,-3.9696,-3.9661,-4.9001,-4.9001,-4.9001,-4.9001,-4.9001,-4.9001,-4.9001,-4.8528,-4.8308,-4.8714,-4.8244,-4.777,-4.7449,-4.6921,-4.6261,-4.5534,-4.4925,-4.4615,-4.4615,-4.4615,-4.4615,-4.4615,-4.4615,-4.4615,-4.4615,-4.4615,-4.4615,-4.4615,-4.4615,-4.4615,-4.4615,-4.4615,-4.4615,-4.4615,-4.4615,-4.4615,-4.4615,-4.4615,-4.4615,-4.4615,-4.4615,-4.4615,-4.4615,-4.4615,-4.4615,-4.4615,-4.4615,-4.4615,-4.4615,-4.4615,-4.4615,-4.4615,-4.4615,-4.4615,-4.4615,-4.4615,-4.4615,-4.4615,-4.4615,-4.4615,-4.4615,-4.4615,-4.4615,-4.4615,-4.4615,-4.4615,-4.4615,-4.4615,-4.4615,-4.4615,-4.4615,-4.4479,-4.3876,-4.2506,-4.2168,-4.1593,-4.0299,-4.0096,-4.0096,-4.0096,-4.0096,-4.0096,-4.0096,-4.0096,-4.0096,-4.0096,-4.0096,-4.0096,-4.0096,-4.0096,-4.0096,-4.0096,-4.0096,-4.0096,-4.0096,-4.0663,-4.0747,-4.035,-4.018,-4.0546,-4.1314,-4.1314,-4.129,-4.1271,-4.133,-4.1024,-4.0489,-4.0226,-4.0207,-4.0331,-4.0137,-3.996,-3.9839,-3.9717,-3.9589,-3.9445,-4.9001,-4.9001,-4.9001,-4.9001,-4.9001,-4.9001,-4.9001,-4.868,-4.8443,-4.8477,-4.8125,-4.7784,-4.7411,-4.7022,-4.6498,-4.5771,-4.501,-4.4615,-4.4615,-4.4615,-4.4615,-4.4615,-4.4615,-4.4615,-4.4615,-4.4615,-4.4615,-4.4615,-4.4615,-4.4615,-4.4615,-4.4615,-4.4615,-4.4615,-4.4615,-4.4615,-4.4615,-4.4615,-4.4615,-4.4615,-4.4615,-4.4615,-4.4615,-4.4615,-4.4615,-4.4615,-4.4615,-4.4615,-4.4615,-4.4615,-4.4615,-4.4615,-4.4615,-4.4615,-4.4615,-4.4615,-4.4615,-4.4615,-4.4615,-4.4615,-4.4615,-4.4615,-4.4615,-4.4615,-4.4615,-4.4615,-4.4615,-4.4615,-4.4615,-4.4615,-4.4615,-4.4615,-4.4225,-4.3014,-4.2523,-4.1897,-4.0781,-4.0333,-4.0096,-4.0096,-4.0096,-4.0096,-4.0096,-4.0096,-4.0096,-4.0096,-4.0096,-4.0096,-4.0096,-4.0096,-4.0096,-4.0096,-4.0426,-4.0323,-3.967,-4.0715,-4.0731,-3.973,-4.0364,-4.0934,-4.1377,-4.1051,-4.0642,-4.0235,-4.0628,-4.0509,-4.0016,-3.9996,-4.0066,-4.0137,-3.996,-3.9803,-3.9696,-3.9589,-3.9481,-3.9388,-4.9001,-4.9001,-4.9001,-4.9001,-4.9001,-4.9001,-4.9001,-4.9001,-4.8781,-4.8159,-4.8075,-4.7868,-4.7242,-4.7056,-4.6684,-4.5957,-4.5314,-4.4987,-4.4987,-4.4987,-4.4987,-4.4987,-4.4987,-4.4936,-4.4801,-4.4801,-4.4733,-4.4615,-4.4615,-4.4615,-4.4615,-4.4615,-4.4615,-4.4615,-4.4615,-4.4615,-4.4615,-4.4615,-4.4615,-4.4615,-4.4615,-4.4615,-4.4615,-4.4615,-4.4615,-4.4615,-4.4615,-4.4615,-4.4615,-4.4615,-4.4615,-4.4615,-4.4615,-4.4615,-4.4615,-4.4615,-4.4615,-4.4615,-4.4615,-4.4615,-4.4615,-4.4615,-4.4615,-4.4615,-4.4615,-4.4615,-4.4615,-4.4615,-4.4615,-4.4615,-4.4615,-4.4615,-4.4333,-4.3511,-4.2895,-4.2185,-4.1322,-4.0663,-4.0248,-4.0113,-4.0096,-4.0096,-4.0096,-4.0096,-4.0096,-4.0096,-4.0096,-4.0096,-4.0096,-4.0096,-4.0163,-4.0282,-4.0762,-4.0567,-3.957,-4.0722,-4.0754,-3.969,-4.0814,-4.1298,-4.1237,-4.0626,-3.9891,-3.9172,-3.9893,-4.0016,-3.9717,-3.9854,-3.9925,-3.9925,-3.9732,-3.9661,-3.9625,-3.9445,-3.9388,-3.9388,-4.9001,-4.9001,-4.9001,-4.9001,-4.9001,-4.9001,-4.9001,-4.9001,-4.8968,-4.8866,-4.8849,-4.8815,-4.8714,-4.8139,-4.7462,-4.6718,-4.6549,-4.6481,-4.6481,-4.6481,-4.6481,-4.6481,-4.6481,-4.6194,-4.5568,-4.5551,-4.5229,-4.4615,-4.4615,-4.4615,-4.4615,-4.4615,-4.4615,-4.4615,-4.4615,-4.4615,-4.4615,-4.4615,-4.4615,-4.4615,-4.4615,-4.4615,-4.4615,-4.4615,-4.4615,-4.4615,-4.4615,-4.4615,-4.4615,-4.4615,-4.4615,-4.4615,-4.4615,-4.4615,-4.4615,-4.4615,-4.4615,-4.4615,-4.4615,-4.4615,-4.4615,-4.4615,-4.4615,-4.4615,-4.4615,-4.4615,-4.4615,-4.4615,-4.4615,-4.4615,-4.4615,-4.4615,-4.4333,-4.3511,-4.3308,-4.2777,-4.139,-4.1119,-4.0798,-4.018,-4.0096,-4.0096,-4.0096,-4.0096,-4.0096,-4.0096,-4.0096,-4.0096,-4.0096,-4.0096,-4.0375,-4.1035,-4.0575,-4.0558,-4.1016,-4.1246,-4.129,-4.1118,-4.1342,-4.1054,-4.0306,-4.0176,-3.9939,-3.9596,-3.9722,-3.9753,-3.9696,-3.9553,-3.9589,-3.9732,-3.9517,-3.946,-3.946,-3.9424,-3.9388,-3.9388,-4.9001,-4.9001,-4.9001,-4.9001,-4.9001,-4.9001,-4.9001,-4.9001,-4.9001,-4.9001,-4.9001,-4.9001,-4.9001,-4.8359,-4.7753,-4.7445,-4.7039,-4.6786,-4.6786,-4.6786,-4.6786,-4.6786,-4.6786,-4.665,-4.6312,-4.5906,-4.5551,-4.5213,-4.4818,-4.4615,-4.4615,-4.4615,-4.4615,-4.4615,-4.4615,-4.4615,-4.4615,-4.4615,-4.4615,-4.4615,-4.4615,-4.4615,-4.4615,-4.4615,-4.4615,-4.4615,-4.4615,-4.4615,-4.4615,-4.4615,-4.4615,-4.4615,-4.4615,-4.4615,-4.4615,-4.4615,-4.4615,-4.4615,-4.4615,-4.4615,-4.4615,-4.4615,-4.4615,-4.4615,-4.4615,-4.4615,-4.4615,-4.4615,-4.4615,-4.4615,-4.4615,-4.4615,-4.4496,-4.413,-4.3707,-4.3156,-4.2513,-4.2066,-4.1542,-4.0798,-4.0696,-4.0544,-4.0146,-4.0096,-4.0096,-4.0096,-4.0096,-4.0096,-4.0096,-4.0476,-4.0693,-4.0652,-4.1161,-4.1054,-4.0234,-4.1053,-4.1087,-4.0353,-4.0763,-4.0886,-4.0772,-4.037,-4.001,-3.9681,-3.9681,-3.9625,-3.9517,-3.946,-3.9445,-3.9517,-3.9409,-3.9388,-3.9388,-3.9388,-3.9388,-3.9388]},{"header":{"parameterUnit":"m.s-1","parameterCategory":1,"la1":30.6,"la2":28.766,"lo1":-90.7593,"lo2":-88.6598,"dy":0.0162,"dx":0.0183,"nx":116,"ny":114,"refTime":"2024-05-29T12:00:00:Z","depth":0,"parameterNumber":3,"parameterNumberName":"V-component_of_WINDS"},"data":[0.0,0.0,0.0,0.0,0.0,0.0,0.0,0.0,0.0,0.0,0.0,0.0,0.0,0.0,0.0,0.0,0.0,0.0,0.0,0.0,0.0,0.0,0.0,0.0,0.0,0.0,0.0,0.0,0.0,0.0,0.0,0.0,0.0,0.0,0.0,0.0,0.0,0.0,0.0,0.0,0.0,0.0,0.0,0.0,0.0,0.0,0.0,0.0,0.0,0.0,0.0,0.0,0.0,0.0,0.0,0.0,0.0,0.0,0.0,0.0,0.0,0.0,0.0,0.0,0.0,0.0,0.0,0.0,0.0,0.0,0.0,0.0,0.0,0.0,0.0,0.0,0.0,0.0,0.0,0.0,0.0,0.0,0.0,0.0,0.0,0.0,0.0,0.0,0.0,0.0,0.0,0.0,0.0,0.0,0.0,0.0,0.0,0.0,0.0,0.0,0.0,0.0,0.0,0.0,0.0,0.0,0.0,0.0,0.0,0.0,0.0,0.0,0.0,0.0,0.0,0.0,0.0,0.0,0.0,0.0,0.0,0.0,0.0,0.0,0.0,0.0,0.0,0.0,0.0,0.0,0.0,0.0,0.0,0.0,0.0,0.0,0.0,0.0,0.0,0.0,0.0,0.0,0.0,0.0,0.0,0.0,0.0,0.0,0.0,0.0,0.0,0.0,0.0,0.0,0.0,0.0,0.0,0.0,0.0,0.0,0.0,0.0,0.0,0.0,0.0,0.0,0.0,0.0,0.0,0.0,0.0,0.0,0.0,0.0,0.0,0.0,0.0,0.0,0.0,0.0,0.0,0.0,0.0,0.0,0.0,0.0,0.0,0.0,0.0,0.0,0.0,0.0,0.0,0.0,0.0,0.0,0.0,0.0,0.0,0.0,0.0,0.0,0.0,0.0,0.0,0.0,0.0,0.0,0.0,0.0,0.0,0.0,0.0,0.0,0.0,0.0,0.0,0.0,0.0,0.0,0.0,0.0,0.0,0.0,0.0,0.0,0.0,0.0,0.0,0.0,0.0,0.0,0.0,0.0,0.0,0.0,0.0,0.0,0.0,0.0,0.0,0.0,0.0,0.0,0.0,0.0,0.0,0.0,0.0,0.0,0.0,0.0,0.0,0.0,0.0,0.0,0.0,0.0,0.0,0.0,0.0,0.0,0.0,0.0,0.0,0.0,0.0,0.0,0.0,0.0,0.0,0.0,0.0,0.0,0.0,0.0,0.0,0.0,0.0,0.0,0.0,0.0,0.0,0.0,0.0,0.0,0.0,0.0,0.0,0.0,0.0,0.0,0.0,0.0,0.0,0.0,0.0,0.0,0.0,0.0,0.0,0.0,0.0,0.0,0.0,0.0,0.0,0.0,0.0,0.0,0.0,0.0,0.0,0.0,0.0,0.0,0.0,0.0,0.0,0.0,0.0,0.0,0.0,0.0,0.0,0.0,0.0,0.0,0.0,0.0,0.0,0.0,0.0,0.0,0.0,0.0,0.0,0.0,0.0,0.0,0.0,0.0,0.0,0.0,0.0,0.0,0.0,0.0,0.0,0.0,0.0,0.0,0.0,0.0,0.0,0.0,0.0,0.0,0.0,0.0,0.0,0.0,0.0,0.0,0.0,0.0,0.0,0.0,0.0,0.0,0.0,0.0,0.0,0.0,0.0,0.0,0.0,0.0,0.0,0.0,0.0,0.0,0.0,0.0,0.0,0.0,0.0,0.0,0.0,0.0,0.0,0.0,0.0,0.0,0.0,0.0,0.0,0.0,0.0,0.0,0.0,0.0,0.0,0.0,0.0,0.0,0.0,0.0,0.0,0.0,0.0,0.0,0.0,0.0,0.0,0.0,0.0,0.0,0.0,0.0,0.0,0.0,0.0,0.0,0.0,0.0,0.0,0.0,0.0,0.0,0.0,0.0,0.0,0.0,0.0,0.0,0.0,0.0,0.0,0.0,0.0,0.0,0.0,0.0,0.0,0.0,0.0,0.0,0.0,0.0,0.0,0.0,0.0,0.0,0.0,0.0,0.0,0.0,0.0,0.0,0.0,0.0,0.0,0.0,0.0,0.0,0.0,0.0,0.0,0.0,0.0,0.0,0.0,0.0,0.0,0.0,0.0,0.0,0.0,0.0,0.0,0.0,0.0,0.0,0.0,0.0,0.0,0.0,0.0,0.0,0.0,0.0,0.0,0.0,0.0,0.0,0.0,0.0,0.0,0.0,0.0,0.0,0.0,0.0,0.0,0.0,0.0,0.0,0.0,0.0,0.0,0.0,0.0,0.0,0.0,0.0,0.0,0.0,0.0,0.0,0.0,0.0,0.0,0.0,0.0,0.0,0.0,0.0,0.0,0.0,0.0,0.0,0.0,0.0,0.0,0.0,0.0,0.0,0.0,0.0,0.0,0.0,0.0,0.0,0.0,0.0,0.0,0.0,0.0,0.0,0.0,0.0,0.0,0.0,0.0,0.0,0.0,0.0,0.0,0.0,0.0,0.0,0.0,0.0,0.0,0.0,0.0,0.0,0.0,0.0,0.0,0.0,0.0,0.0,0.0,0.0,0.0,0.0,0.0,0.0,0.0,0.0,0.0,0.0,0.0,0.0,0.0,0.0,0.0,0.0,0.0,0.0,0.0,0.0,0.0,0.0,0.0,0.0,0.0,0.0,0.0,0.0,0.0,0.0,0.0,0.0,0.0,0.0,0.0,0.0,0.0,0.0,0.0,0.0,0.0,0.0,0.0,0.0,0.0,0.0,0.0,0.0,0.0,0.0,0.0,0.0,0.0,0.0,0.0,0.0,0.0,0.0,0.0,0.0,0.0,0.0,0.0,0.0,0.0,0.0,0.0,0.0,0.0,0.0,0.0,0.0,0.0,0.0,0.0,0.0,0.0,0.0,0.0,0.0,0.0,0.0,0.0,0.0,0.0,0.0,0.0,0.0,0.0,0.0,0.0,0.0,0.0,0.0,0.0,0.0,0.0,0.0,0.0,0.0,0.0,0.0,0.0,0.0,0.0,0.0,0.0,0.0,0.0,0.0,0.0,0.0,0.0,0.0,0.0,0.0,0.0,0.0,0.0,0.0,0.0,0.0,0.0,0.0,0.0,0.0,0.0,0.0,0.0,0.0,0.0,0.0,0.0,0.0,0.0,0.0,0.0,0.0,0.0,0.0,0.0,0.0,0.0,0.0,0.0,0.0,0.0,0.0,0.0,0.0,0.0,0.0,0.0,0.0,0.0,0.0,0.0,0.0,0.0,0.0,0.0,0.0,0.0,0.0,0.0,0.0,0.0,0.0,0.0,0.0,0.0,0.0,0.0,0.0,0.0,0.0,0.0,0.0,0.0,0.0,0.0,0.0,0.0,0.0,0.0,0.0,0.0,0.0,0.0,0.0,0.0,0.0,0.0,0.0,0.0,0.0,0.0,0.0,0.0,0.0,0.0,0.0,0.0,0.0,0.0,0.0,0.0,0.0,0.0,0.0,0.0,0.0,0.0,0.0,0.0,0.0,0.0,0.0,0.0,0.0,0.0,0.0,0.0,0.0,0.0,0.0,0.0,0.0,0.0,0.0,0.0,0.0,0.0,0.0,0.0,0.0,0.0,0.0,0.0,0.0,0.0,0.0,0.0,0.0,0.0,0.0,0.0,0.0,0.0,0.0,0.0,0.0,0.0,0.0,0.0,0.0,0.0,0.0,0.0,0.0,0.0,0.0,0.0,0.0,0.0,0.0,0.0,0.0,0.0,0.0,0.0,0.0,0.0,0.0,0.0,0.0,0.0,0.0,0.0,0.0,0.0,0.0,0.0,0.0,0.0,0.0,0.0,0.0,0.0,0.0,0.0,0.0,0.0,0.0,0.0,0.0,0.0,0.0,0.0,0.0,0.0,0.0,0.0,0.0,0.0,0.0,0.0,0.0,0.0,0.0,0.0,0.0,0.0,0.0,0.0,0.0,0.0,0.0,0.0,0.0,0.0,0.0,0.0,0.0,0.0,0.0,0.0,0.0,0.0,0.0,0.0,0.0,0.0,0.0,0.0,0.0,0.0,0.0,0.0,0.0,0.0,0.0,0.0,0.0,0.0,0.0,0.0,0.0,0.0,0.0,0.0,0.0,0.0,0.0,0.0,0.0,0.0,0.0,0.0,0.0,0.0,0.0,0.0,0.0,0.0,0.0,0.0,0.0,0.0,0.0,0.0,0.0,0.0,0.0,0.0,0.0,0.0,0.0,0.0,0.0,0.0,0.0,0.0,0.0,0.0,0.0,0.0,0.0,0.0,0.0,0.0,0.0,0.0,0.0,0.0,0.0,0.0,0.0,0.0,0.0,0.0,0.0,0.0,0.0,0.0,0.0,0.0,0.0,0.0,0.0,0.0,0.0,0.0,0.0,0.0,0.0,0.0,0.0,0.0,0.0,0.0,0.0,0.0,0.0,0.0,0.0,0.0,0.0,0.0,0.0,0.0,0.0,0.0,0.0,0.0,0.0,0.0,0.0,0.0,0.0,0.0,0.0,0.0,0.0,0.0,0.0,0.0,0.0,0.0,0.0,0.0,0.0,0.0,0.0,0.0,0.0,0.0,0.0,0.0,0.0,0.0,0.0,0.0,0.0,0.0,0.0,0.0,0.0,0.0,0.0,0.0,0.0,0.0,0.0,0.0,0.0,0.0,0.0,0.0,0.0,0.0,0.0,0.0,0.0,0.0,0.0,0.0,0.0,0.0,0.0,0.0,0.0,0.0,0.0,0.0,0.0,0.0,0.0,0.0,0.0,0.0,0.0,0.0,0.0,0.0,0.0,0.0,0.0,0.0,0.0,0.0,0.0,0.0,0.0,0.0,0.0,0.0,0.0,0.0,0.0,0.0,0.0,0.0,0.0,0.0,0.0,0.0,0.0,0.0,0.0,0.0,0.0,0.0,0.0,0.0,0.0,0.0,0.0,0.0,0.0,0.0,0.0,0.0,0.0,0.0,0.0,0.0,0.0,0.0,0.0,0.0,0.0,0.0,0.0,0.0,0.0,0.0,0.0,0.0,0.0,0.0,0.0,0.0,0.0,0.0,0.0,0.0,0.0,0.0,0.0,0.0,0.0,0.0,0.0,0.0,0.0,0.0,0.0,0.0,0.0,0.0,0.0,0.0,0.0,0.0,0.0,0.0,0.0,0.0,0.0,0.0,0.0,0.0,0.0,0.0,0.0,0.0,0.0,0.0,0.0,0.0,0.0,0.0,0.0,0.0,0.0,0.0,0.0,0.0,0.0,0.0,0.0,0.0,0.0,0.0,0.0,0.0,0.0,0.0,0.0,0.0,0.0,0.0,0.0,0.0,0.0,0.0,0.0,0.0,0.0,0.0,0.0,0.0,0.0,0.0,0.0,0.0,0.0,0.0,0.0,0.0,0.0,0.0,0.0,0.0,0.0,0.0,0.0,0.0,0.0,0.0,0.0,0.0,0.0,0.0,0.0,0.0,0.0,0.0,0.0,0.0,0.0,0.0,0.0,0.0,0.0,0.0,0.0,0.0,0.0,0.0,0.0,0.0,0.0,0.0,0.0,0.0,0.0,0.0,0.0,0.0,0.0,0.0,0.0,0.0,0.0,0.0,0.0,0.0,0.0,0.0,0.0,0.0,0.0,0.0,0.0,0.0,0.0,0.0,0.0,0.0,0.0,0.0,0.0,0.0,0.0,0.0,0.0,0.0,0.0,0.0,0.0,0.0,0.0,0.0,0.0,0.0,0.0,0.0,0.0,0.0,0.0,0.0,0.0,0.0,0.0,0.0,0.0,0.0,0.0,0.0,0.0,0.0,0.0,0.0,0.0,0.0,0.0,0.0,0.0,0.0,0.0,0.0,0.0,0.0,0.0,0.0,0.0,0.0,0.0,0.0,0.0,0.0,0.0,0.0,0.0,0.0,0.0,0.0,0.0,0.0,0.0,0.0,0.0,0.0,0.0,0.0,0.0,0.0,0.0,0.0,0.0,0.0,0.0,0.0,0.0,0.0,0.0,0.0,0.0,0.0,0.0,0.0,0.0,0.0,0.0,0.0,0.0,0.0,0.0,0.0,0.0,0.0,0.0,0.0,0.0,0.0,0.0,0.0,0.0,0.0,0.0,0.0,0.0,0.0,0.0,1.6406,0.0,0.0,0.0,0.0,0.0,0.0,0.0,0.0,0.0,0.0,0.0,0.0,0.0,0.0,0.0,0.0,0.0,0.0,0.0,0.0,0.0,0.0,0.0,0.0,0.7013,0.7119,0.6886,0.6943,0.6988,0.6988,0.0,0.0,0.0,0.0,0.0,0.6676,0.6587,0.6587,0.6676,0.6591,0.6493,0.6432,0.6143,0.5825,0.5488,0.0,0.0,0.0,0.0,0.0,0.0,0.0,0.0,0.0,0.0,0.0,0.0,0.0,0.0,0.0,0.0,0.0,0.0,0.0,0.0,0.0,0.0,0.0,0.0,0.0,0.0,0.0,0.0,0.0,0.0,0.0,0.0,0.0,0.0,0.0,0.0,0.0,0.0,0.0,0.0,0.0,0.0,0.0,0.0,0.0,0.0,0.0,0.0,0.0,0.0,0.0,0.0,0.0,0.0,0.0,0.0,0.0,0.0,0.0,0.0,0.0,0.0,0.0,0.0,0.0,0.0,0.0,0.0,0.0,0.0,0.0,1.656,0.0,0.0,0.0,0.0,0.0,0.0,0.0,0.0,0.0,0.0,0.0,0.0,0.0,0.0,0.0,0.0,0.0,0.0,0.0,0.0,0.0,0.7176,0.6465,0.6875,0.7062,0.6765,0.6935,0.7049,0.7082,0.7082,0.0,0.0,0.0,0.702,0.6988,0.6808,0.6804,0.6988,0.6845,0.6744,0.6742,0.6557,0.6203,0.5799,0.5582,0.0,0.0,0.0,0.0,0.0,0.0,0.0,0.0,0.0,0.0,0.0,0.0,0.0,0.0,0.0,0.0,0.0,0.0,0.0,0.0,0.0,0.0,0.0,0.0,0.0,0.0,0.0,0.0,0.0,0.0,0.0,0.0,0.0,0.0,0.0,0.0,0.0,0.0,0.0,0.0,0.0,0.0,0.0,0.0,0.0,0.0,0.0,0.0,0.0,0.0,0.0,0.0,0.0,0.0,0.0,0.0,0.0,0.0,0.0,0.0,0.0,0.0,0.0,1.7468,1.7455,1.728,1.728,1.728,1.7259,1.6967,1.6974,1.7186,0.0,0.0,0.0,0.0,0.0,0.0,0.0,0.0,0.0,0.0,0.0,0.0,0.0,0.0,0.0,0.0,0.0,0.0,0.0,0.0,0.7086,0.6453,0.6761,0.7004,0.6959,0.7086,0.7253,0.7441,0.7449,0.0,0.0,0.7192,0.7114,0.6992,0.6816,0.6812,0.6988,0.6963,0.6967,0.6952,0.6758,0.6627,0.6522,0.6052,0.5719,0.5583,0.0,0.0,0.0,0.0,0.0,0.0,0.0,0.0,0.0,0.0,0.0,0.0,0.0,0.0,0.0,0.0,0.0,0.0,0.0,0.0,0.0,0.0,0.0,0.0,0.0,0.0,0.0,0.0,0.0,0.0,0.0,0.0,0.0,0.0,0.0,0.0,0.0,0.0,0.0,0.0,0.0,2.0397,2.0061,0.0,0.0,0.0,0.0,0.0,0.0,0.0,0.0,0.0,0.0,0.0,0.0,0.0,1.736,1.7522,1.7562,1.7562,1.7522,1.7562,1.7562,1.7522,1.7522,1.7522,1.7522,1.7482,0.0,1.7199,1.7159,0.0,0.0,0.0,0.0,0.0,0.0,0.0,0.0,0.0,0.0,0.0,0.0,0.0,0.0,0.0,0.0,0.0,0.0,0.0,0.0,0.0,0.683,0.7066,0.6996,0.7123,0.7297,0.7472,0.7395,0.7305,0.7191,0.7317,0.7285,0.711,0.7033,0.7029,0.7106,0.7241,0.729,0.7286,0.7082,0.7001,0.6952,0.6663,0.6337,0.6049,0.5961,0.0,0.0,0.0,0.0,0.0,0.0,0.0,0.0,0.0,0.0,0.0,0.0,0.0,0.0,0.0,0.0,0.0,0.0,0.0,0.0,0.0,0.0,0.0,0.0,0.0,0.0,0.0,0.0,0.0,0.0,0.0,0.0,0.0,0.0,0.0,0.0,0.0,0.0,0.0,2.1266,2.1143,2.1041,2.0491,2.0006,0.0,0.0,0.0,0.0,0.0,0.0,0.0,0.0,0.0,1.7642,1.7816,1.7963,1.809,1.8096,1.8096,1.8096,1.8096,1.8003,1.7842,1.7842,1.7749,1.7582,1.7582,1.7508,1.744,1.744,1.7273,1.7005,0.0,0.0,0.0,0.0,1.6707,1.6727,0.0,0.0,0.0,0.0,0.0,0.0,0.0,0.0,0.0,0.0,0.0,0.0,0.6482,0.6743,0.6985,0.6931,0.7009,0.7159,0.7375,0.7273,0.7187,0.7187,0.7391,0.7403,0.7191,0.7187,0.7187,0.7187,0.7399,0.7484,0.748,0.7354,0.7293,0.7285,0.7188,0.6893,0.648,0.6362,0.6179,0.5989,0.0,0.0,0.0,0.0,0.0,0.0,0.0,0.0,0.0,0.0,0.0,0.0,0.0,0.0,0.0,0.0,0.0,0.0,0.0,0.0,0.0,0.0,0.0,0.0,0.0,0.0,0.0,0.0,0.0,0.0,0.0,0.0,0.0,0.0,0.0,0.0,0.0,2.2397,2.2336,2.2442,2.1833,2.1294,0.0,0.0,0.0,0.0,0.0,0.0,1.8704,1.8475,1.8238,1.815,1.8377,1.849,1.849,1.849,1.849,1.849,1.849,1.8377,1.8109,1.8109,1.8036,1.7809,1.7736,1.7702,1.7695,1.7615,1.7455,1.7313,1.7313,1.7128,1.6927,1.6927,1.6927,1.6961,0.0,0.0,0.0,0.0,0.0,0.0,0.0,0.0,0.0,0.0,0.0,0.7199,0.6482,0.6407,0.6526,0.6692,0.6704,0.6816,0.7004,0.7135,0.7187,0.7187,0.7391,0.7403,0.7191,0.7187,0.7187,0.7187,0.7399,0.7484,0.7484,0.7476,0.7472,0.7472,0.746,0.7198,0.6674,0.6666,0.6499,0.618,0.6169,0.0,0.0,0.0,0.0,0.0,0.0,0.0,0.0,0.0,0.0,0.0,0.0,0.0,0.0,0.0,0.0,0.0,0.0,0.0,0.0,0.0,0.0,0.0,0.0,0.0,0.0,0.0,0.0,0.0,0.0,0.0,0.0,0.0,0.0,0.0,0.0,0.0,0.0,2.5071,2.4495,0.0,0.0,0.0,0.0,2.0711,2.1028,2.0476,1.8624,1.9571,1.964,1.8519,1.8484,1.849,1.849,1.849,1.849,1.849,1.849,1.8484,1.847,1.847,1.8464,1.843,1.8095,1.7969,1.7949,1.7702,1.7575,1.7562,1.7562,1.7549,1.7535,1.7535,1.7535,1.7542,0.0,0.0,0.0,0.0,0.0,0.9311,0.9639,0.9353,0.9098,0.9131,0.8199,0.7396,0.7134,0.6789,0.6623,0.6688,0.6692,0.68,0.698,0.6939,0.6924,0.7082,0.7147,0.7241,0.7405,0.7409,0.7471,0.7588,0.7532,0.7427,0.7317,0.7317,0.7317,0.7317,0.7317,0.7272,0.7214,0.7069,0.6912,0.6696,0.673,0.6783,0.0,0.0,0.0,0.0,0.0,0.0,0.0,0.0,0.0,0.0,0.0,0.0,0.0,0.0,0.0,0.0,0.0,0.0,0.0,0.0,0.0,0.0,0.0,0.0,0.0,0.0,0.0,0.0,0.0,0.0,0.0,0.0,0.0,0.0,0.0,0.0,0.0,2.5412,2.5265,0.0,2.5097,2.4083,2.3143,2.2603,2.1406,2.0409,1.9545,1.9424,1.9207,1.8771,1.8951,1.9052,1.9052,1.9052,1.9052,1.9052,1.9052,1.8951,1.8771,1.8771,1.8664,1.8484,1.8377,1.8217,1.8016,1.7923,1.7762,1.7582,1.7582,1.7582,1.7582,1.7582,1.7582,1.7582,0.0,0.0,0.0,0.0,0.9104,0.9452,0.9653,0.9646,0.9575,0.9494,0.8522,0.7749,0.7521,0.6956,0.6603,0.6603,0.6603,0.6652,0.68,0.6751,0.6771,0.689,0.6955,0.717,0.7488,0.7442,0.7503,0.7684,0.7561,0.7395,0.7187,0.7187,0.7192,0.7135,0.72,0.7289,0.7395,0.7338,0.7202,0.706,0.7054,0.6973,0.6873,0.0,0.0,0.0,0.0,0.0,0.0,0.0,0.0,0.0,0.0,0.0,0.0,0.0,0.0,0.0,0.0,0.0,0.0,0.0,0.0,0.0,0.0,0.0,0.0,0.0,0.0,0.0,0.0,0.0,0.0,0.0,0.0,0.0,0.0,0.0,2.5043,2.5791,2.5767,2.5828,2.606,2.524,2.45,2.3979,2.2479,2.1284,2.0516,1.9956,1.9464,1.9072,1.9265,1.9424,1.9424,1.9424,1.9424,1.9424,1.9424,1.9265,1.9072,1.9072,1.8965,1.8778,1.8677,1.8517,1.8303,1.8069,1.7923,1.7729,1.7622,1.7582,1.7582,1.7582,1.7582,1.7582,0.0,0.0,0.0,0.8804,0.9292,0.9715,0.9715,1.0211,1.0333,0.962,0.8941,0.8264,0.7587,0.6843,0.6387,0.6387,0.6387,0.6387,0.6387,0.6587,0.6684,0.671,0.6894,0.7159,0.7506,0.7317,0.7317,0.7522,0.7522,0.7395,0.7187,0.7183,0.7123,0.6996,0.7135,0.7179,0.7199,0.7403,0.7382,0.7199,0.7199,0.7127,0.7076,0.0,0.0,0.0,0.0,0.0,0.0,0.0,0.0,0.0,0.0,0.0,0.0,0.0,0.0,0.0,0.0,0.0,0.0,0.0,0.0,0.0,0.0,0.0,0.0,0.0,0.0,0.0,0.0,0.0,0.0,0.0,0.0,0.0,2.5135,2.5478,2.5918,2.6357,2.6216,2.623,2.6593,2.6177,2.5503,2.4664,2.4375,2.3382,2.1323,2.1231,2.0666,1.9424,1.9424,1.9424,1.9424,1.9424,1.9424,1.9424,1.9424,1.9424,1.9424,1.9424,1.9424,1.9352,1.9065,1.8931,1.8821,1.8255,1.8009,1.7962,1.7702,1.7582,1.7582,1.7582,1.7582,1.7582,0.0,0.0,0.8804,0.8804,0.9292,0.9715,0.9715,1.0211,1.053,1.0333,0.9262,0.8425,0.8231,0.7129,0.6387,0.6387,0.6387,0.6387,0.6387,0.6465,0.655,0.6706,0.698,0.7339,0.7696,0.7677,0.7749,0.7949,0.7799,0.7555,0.7187,0.709,0.7037,0.6984,0.6875,0.6985,0.7191,0.7277,0.7342,0.7411,0.7411,0.7382,0.7375,0.0,0.0,0.0,0.0,0.0,0.0,0.0,0.0,0.0,0.0,0.0,0.0,0.0,0.0,0.0,0.0,0.0,0.0,0.0,0.0,0.0,0.0,0.0,0.0,0.0,0.0,0.0,0.0,0.0,0.0,0.0,2.5264,2.5557,2.5557,2.5928,2.6367,2.6797,2.7068,2.7315,2.7521,2.74,2.6789,2.5411,2.5248,2.4119,2.165,2.1479,2.0873,1.9424,1.9424,1.9424,1.9424,1.9424,1.9424,1.9424,1.9424,1.9424,1.9424,1.9424,1.9424,1.9366,1.9279,1.9125,1.8911,1.8751,1.8375,1.7962,1.7702,1.7582,1.7582,1.7582,1.7582,1.7582,0.0,0.8804,0.8844,0.8938,0.9372,0.9726,0.9846,1.0291,1.0593,1.0593,0.9364,0.849,0.849,0.7228,0.6387,0.6387,0.6387,0.6387,0.6387,0.6489,0.6647,0.6895,0.711,0.7331,0.7659,0.7664,0.7718,0.7834,0.7718,0.7513,0.7187,0.7119,0.7061,0.6984,0.6882,0.696,0.7187,0.7187,0.7326,0.7484,0.7484,0.7484,0.7484,0.7484,0.7983,0.8803,0.9545,1.0447,1.1413,1.2179,0.0,0.0,0.0,0.0,0.0,0.0,0.0,0.0,0.0,0.0,0.0,0.0,0.0,0.0,0.0,0.0,0.0,0.0,0.0,0.0,0.0,0.0,0.0,0.0,2.5723,2.6074,2.62,2.6494,2.6807,2.7236,2.751,2.7779,2.8028,2.796,2.752,2.6626,2.5397,2.3997,2.2428,2.1316,2.0314,1.9424,1.9424,1.9424,1.9424,1.9424,1.9424,1.9424,1.9424,1.9424,1.9424,1.9424,1.9424,0.0,1.9424,1.9265,1.9098,1.8978,1.8668,0.0,0.0,0.0,0.0,0.0,1.7582,1.7582,0.0,0.8884,0.8991,0.9217,0.9532,0.982,1.0043,1.0367,1.0593,1.0593,0.9364,0.849,0.849,0.7228,0.6387,0.6387,0.6387,0.6395,0.6448,0.6643,0.6895,0.7175,0.7207,0.7326,0.7518,0.7522,0.7522,0.7522,0.7522,0.7441,0.7215,0.7212,0.7119,0.7016,0.6975,0.7069,0.7187,0.7187,0.7326,0.7484,0.7484,0.7484,0.7484,0.7504,0.8086,0.8995,0.9969,1.0942,1.1918,1.2908,0.0,0.0,0.0,0.0,0.0,0.0,0.0,0.0,0.0,0.0,0.0,0.0,0.0,0.0,0.0,0.0,0.0,0.0,0.0,0.0,0.0,0.0,0.0,0.0,2.6211,2.666,2.7031,2.7129,2.7285,2.7679,2.7757,2.7933,2.8262,2.8067,2.796,2.796,2.5333,2.3663,2.3495,0.0,0.0,0.0,0.0,1.9424,1.9424,1.9424,1.9424,1.9424,1.9424,1.9424,1.9424,1.9424,1.9424,1.9424,1.9424,1.9424,1.9403,1.9085,1.8938,1.8818,1.8209,1.7856,1.7582,1.7582,1.7582,1.7582,0.0,0.9352,0.9532,0.9586,0.984,1.0053,1.0077,1.0367,1.0593,1.0593,0.9364,0.849,0.849,0.7228,0.6387,0.6387,0.6387,0.6481,0.6631,0.6944,0.7118,0.7187,0.7358,0.7528,0.7723,0.7723,0.7723,0.7723,0.7723,0.7625,0.7427,0.7175,0.7066,0.7159,0.6863,0.6915,0.7187,0.7187,0.7326,0.7484,0.7484,0.7484,0.75,0.769,0.7929,0.8404,0.9973,1.0898,1.1626,1.3054,1.3676,1.4033,1.5175,1.6259,0.0,0.0,0.0,0.0,0.0,0.0,0.0,0.0,0.0,0.0,0.0,0.0,0.0,0.0,0.0,0.0,0.0,0.0,0.0,2.6191,2.6914,2.7503,2.7529,2.7832,2.7949,2.7748,2.7969,2.8203,2.8281,2.8237,2.8237,2.8237,2.6789,2.5406,2.4172,2.2733,2.1224,1.9758,1.97,1.9649,1.9424,1.9424,1.9424,1.9424,0.0,0.0,1.9424,1.9424,1.9424,1.9424,1.9424,1.9424,1.9366,1.9305,1.9005,1.8544,1.8129,1.7856,1.7582,1.7582,1.7582,1.7582,0.9505,0.9621,0.9733,0.9873,1.002,1.0167,1.0314,1.0492,1.0593,1.0593,0.9652,0.8877,0.8522,0.7587,0.6806,0.6416,0.6505,0.6635,0.6849,0.7074,0.7227,0.735,0.7439,0.7561,0.7642,0.7642,0.7642,0.7642,0.7642,0.7603,0.748,0.7339,0.7302,0.7342,0.707,0.7102,0.7346,0.7223,0.7326,0.7484,0.7484,0.7484,0.7504,0.7731,0.7866,0.8226,1.0126,1.1015,1.1563,1.3274,1.3909,1.4193,1.5357,1.6588,1.7819,0.0,0.0,0.0,0.0,0.0,0.0,0.0,0.0,0.0,0.0,0.0,0.0,0.0,0.0,2.5215,2.5654,0.0,2.6514,2.6953,2.7444,2.7796,2.7949,2.8164,2.8213,2.7998,2.8164,2.8291,2.8291,2.8291,2.8291,2.8291,2.706,2.6,2.5215,2.3894,2.2387,2.0759,2.0702,2.0256,1.9424,1.9424,1.9424,1.9424,1.9424,1.9424,1.9424,1.9424,1.9424,1.9424,1.9424,1.9424,1.9424,1.9424,1.9105,1.8677,1.8384,1.7989,1.7582,1.7582,1.7582,1.7582,0.9925,0.99,0.9897,1.016,1.02,1.0281,1.0553,1.0593,1.0593,1.0593,0.9945,0.923,0.8587,0.7912,0.7199,0.6449,0.6619,0.6841,0.698,0.7155,0.7338,0.7476,0.7484,0.7484,0.7484,0.7484,0.7484,0.7484,0.7484,0.7484,0.7484,0.7447,0.7452,0.7476,0.7301,0.7342,0.7567,0.7387,0.7427,0.7581,0.7549,0.7557,0.7602,0.7792,0.7894,0.8279,1.0289,1.1117,1.1585,1.3483,1.4088,1.4292,1.5387,1.6646,1.7962,1.9265,2.0563,0.0,0.0,0.0,0.0,0.0,0.0,0.0,0.0,2.4609,2.4697,2.5262,2.5615,2.5996,2.6435,2.6855,2.7256,2.766,2.7787,2.791,2.8242,2.8291,2.8291,2.8291,2.8291,2.8291,2.8291,2.8291,2.8291,2.8291,2.6997,2.6164,2.6164,2.4552,2.3047,2.1813,2.1536,2.0816,1.9475,1.9482,1.9424,1.9424,1.9424,1.9424,1.9424,1.9424,1.9424,1.9424,1.9424,1.9424,1.9424,1.9424,1.9192,1.8905,1.8664,1.8237,1.7742,1.7622,1.7582,1.7582,0.0,1.0229,1.0311,1.0508,1.0546,1.0553,1.0586,1.0593,1.0593,1.0593,0.9945,0.923,0.8587,0.7912,0.7199,0.6449,0.6763,0.6967,0.6988,0.7302,0.7464,0.7484,0.7484,0.7484,0.7484,0.7484,0.7484,0.7484,0.7484,0.7484,0.748,0.7326,0.7338,0.7476,0.7301,0.7415,0.7767,0.7747,0.7797,0.7939,0.7829,0.7817,0.7955,0.7975,0.7996,0.8279,1.0289,1.1117,1.1585,1.3483,1.4088,1.4173,1.4699,1.569,1.6919,1.8337,1.9624,2.068,2.1153,2.1553,2.2197,2.3809,2.4033,2.416,0.0,2.5283,2.5282,2.6064,2.6279,2.6445,2.6865,2.7305,2.766,2.7708,2.7978,2.8242,2.8281,2.8291,2.8291,2.8291,2.8291,2.8291,2.8291,2.8291,2.8291,2.8291,2.7133,2.6463,2.6463,2.4309,2.2854,2.2402,2.1331,2.0429,1.9758,1.9758,1.9649,1.9424,1.9424,1.9424,1.9424,1.9424,1.9424,1.9424,1.9424,1.9424,1.9424,1.9424,1.9192,1.8918,1.8885,1.8677,1.8323,1.7782,1.7582,1.7582,0.0,1.018,1.0339,1.0396,1.053,1.0593,1.0593,1.0593,1.0593,1.0593,1.0333,0.9716,0.8619,0.7521,0.6788,0.6592,0.6701,0.6817,0.6916,0.7078,0.7215,0.7334,0.7334,0.7369,0.7484,0.7484,0.7484,0.7484,0.7484,0.7484,0.748,0.7411,0.7472,0.7682,0.7569,0.7675,0.7906,0.7906,0.7947,0.8008,0.7935,0.7951,0.8024,0.8134,0.8174,0.8447,1.0451,1.1235,0.0,1.3483,1.4088,1.4166,1.4573,1.5943,1.7592,1.8684,2.0063,2.132,2.1537,2.2295,2.3164,2.3877,2.4297,2.4746,2.5508,2.5596,2.5635,2.626,2.6582,2.6885,2.7314,2.7744,2.8027,2.8027,2.8174,2.8291,2.8291,2.8291,2.8291,2.8291,2.8291,2.8291,2.8291,2.8291,2.8291,2.8291,2.7843,2.7241,2.6527,2.558,2.4253,2.2572,2.2013,2.111,1.9809,1.9815,1.9649,1.9424,1.9424,1.9424,1.9424,1.9424,1.9424,1.9424,1.9424,1.9424,1.9424,1.9424,1.9292,1.9165,1.8991,1.8844,1.8671,1.8076,1.7856,1.7822,0.0,0.9989,1.018,1.0276,1.0434,1.053,1.0593,1.0593,1.0593,1.0593,1.0593,1.0072,0.8651,0.7228,0.6456,0.6595,0.66,0.6668,0.6797,0.6889,0.698,0.7103,0.7103,0.7219,0.7407,0.7455,0.7518,0.76,0.7606,0.763,0.763,0.763,0.7703,0.7869,0.7869,0.7927,0.8089,0.8089,0.8117,0.8162,0.8109,0.8117,0.8174,0.826,0.8321,0.8639,1.0618,1.1284,1.1569,1.3345,1.4057,1.423,1.4518,1.6035,1.7861,1.8837,2.0453,2.1934,2.2168,2.2822,2.3496,2.373,2.4346,2.5,2.5449,2.5596,2.581,2.6299,2.6728,2.7148,2.764,2.8008,2.8291,2.8291,2.8291,2.8291,2.8291,2.8291,2.8291,2.8291,2.8291,2.8291,2.8291,2.8291,2.8291,2.8291,2.8291,2.7906,2.7025,2.6354,2.5122,2.3183,2.2467,2.146,2.004,2.004,1.9873,1.9533,1.9533,1.9482,1.9424,1.9424,1.9424,1.9424,1.9424,1.9424,1.9424,1.9424,1.9424,1.9403,1.9132,1.9045,1.8985,1.8422,1.8129,1.7962,0.0,0.0,0.9926,1.0238,1.0308,1.0371,1.0561,1.0593,1.0593,1.0593,1.0593,1.0072,0.8651,0.7228,0.6389,0.6394,0.6534,0.66,0.6615,0.6775,0.6903,0.6903,0.6903,0.7022,0.7223,0.7336,0.7541,0.7792,0.7914,0.7996,0.7996,0.7996,0.8,0.8004,0.8004,0.8109,0.828,0.828,0.8385,0.858,0.8353,0.839,0.8575,0.8357,0.8402,0.8819,1.0636,1.1284,1.1547,1.308,1.3959,1.4385,1.4343,1.5538,1.7162,1.8271,2.0191,2.206,2.2838,2.2789,2.2754,2.3584,2.4111,2.4551,2.499,2.543,2.581,2.6299,2.6728,2.7148,2.764,2.8008,2.8291,2.8291,2.8291,2.8291,2.8291,2.8291,2.8291,2.8291,2.8291,2.8291,0.0,2.8291,2.8291,2.8291,2.8291,2.8291,2.8237,2.6009,2.4718,2.4616,2.2418,2.1081,2.0658,2.0658,2.0378,1.9815,1.9815,1.9642,1.9424,1.9424,1.9424,1.9424,1.9424,1.9424,1.9424,1.9424,1.9424,1.9424,1.9417,1.9352,1.9319,1.9011,1.8482,1.7995,0.0,0.0,0.0,0.9958,1.0149,1.0276,1.0206,1.0434,1.0561,1.0434,0.9577,0.0,0.0,0.0,0.0,0.0,0.6315,0.6306,0.6388,0.6474,0.6563,0.6676,0.6714,0.6843,0.7111,0.7164,0.7287,0.7486,0.7499,0.7608,0.7814,0.7814,0.802,0.8381,0.8381,0.8548,0.882,0.8564,0.8594,0.8773,0.8238,0.8294,0.8615,0.836,0.8376,0.874,0.0,1.0766,1.1547,1.3067,1.3952,1.442,1.4532,1.547,1.6897,1.8559,2.0772,2.2656,2.2383,2.2607,2.3023,2.3643,2.4102,2.4531,2.4971,2.541,2.581,2.6299,2.6504,2.6816,2.7581,2.8008,2.8291,2.8291,2.8525,2.8613,2.833,2.8291,2.8291,2.8291,2.8291,0.0,0.0,0.0,0.0,2.8291,2.8291,2.796,2.7133,2.6354,2.5186,2.3631,2.2813,2.1858,2.0716,2.0716,2.0493,2.0162,1.9931,1.9758,1.9649,1.9482,1.9424,1.9424,1.9424,1.9424,1.9424,1.9424,1.9424,1.9424,1.9424,1.9424,1.9417,1.9259,1.8971,1.8515,0.0,0.0,0.0,0.0,0.0,0.0,0.0,0.0,0.0,0.0,0.0,0.0,0.0,0.0,0.0,0.0,0.0,0.6181,0.6203,0.6249,0.6377,0.649,0.649,0.6613,0.6907,0.6969,0.7119,0.7323,0.7382,0.7522,0.7793,0.794,0.8174,0.8577,0.8637,0.874,0.8944,0.8598,0.8583,0.8796,0.8272,0.834,0.8694,0.8447,0.8468,0.0,0.95,1.0491,1.157,1.2725,1.3745,1.4524,1.4699,1.5641,1.7028,1.8859,2.0745,2.2145,2.1916,2.2466,2.3159,2.3486,2.3994,2.4492,2.4775,2.5303,2.5771,2.6103,2.6279,2.6602,2.7305,2.7783,2.8115,2.8271,2.8643,2.8769,2.835,2.8418,2.8467,2.831,2.8291,2.8291,0.0,0.0,0.0,2.8291,2.8291,2.796,2.7187,2.6744,2.5808,2.4309,2.3424,2.2523,2.1509,2.1067,2.073,2.0443,2.0155,1.9989,1.9982,1.9822,1.9707,1.9707,1.9707,1.9649,1.9533,1.9533,1.9482,1.9424,1.9424,1.9424,1.9424,1.9424,1.9245,1.8998,0.0,0.0,0.0,0.0,0.0,0.0,0.0,0.0,0.0,0.0,0.0,0.0,0.0,0.0,0.0,0.0,0.0,0.0,0.603,0.6176,0.63,0.63,0.63,0.6377,0.6574,0.6731,0.6972,0.7379,0.7493,0.7696,0.7904,0.8286,0.8503,0.8515,0.8625,0.8703,0.8718,0.8423,0.8477,0.8718,0.8478,0.8552,0.8783,0.8649,0.8686,0.8878,0.9311,1.0366,1.1612,1.2127,1.339,1.4741,1.4818,1.5953,1.7533,1.906,2.0042,2.0808,2.1465,2.2359,2.3091,2.3091,2.3744,2.4414,2.4414,2.505,2.5693,2.5693,2.6064,2.6484,2.6904,2.7373,2.7875,2.8203,2.8672,2.8818,2.8359,2.8652,2.876,2.834,2.8291,2.8291,2.8291,0.0,0.0,2.8291,0.0,2.8291,2.8291,2.7187,2.6581,2.6527,2.4364,2.3143,2.2974,2.1816,2.1024,2.0723,2.0443,2.0328,2.0328,2.0328,2.027,2.027,2.027,2.0104,1.9758,1.9815,1.9642,1.9424,1.9424,1.9424,1.9424,1.9424,1.9424,1.9285,0.0,0.0,0.0,0.0,0.0,0.0,0.0,0.0,0.0,0.0,0.0,0.0,0.0,0.0,0.0,0.0,0.0,0.0,0.5993,0.6176,0.63,0.63,0.63,0.6386,0.6532,0.6647,0.6843,0.7041,0.7144,0.7369,0.7595,0.7897,0.8207,0.8515,0.8687,0.8942,0.9172,0.8679,0.8703,0.9005,0.8314,0.8364,0.8855,0.8603,0.8736,0.9061,0.915,0.9903,1.0965,1.2175,1.3737,1.5186,1.5347,1.6452,1.7765,1.8081,1.973,2.1418,2.1282,2.2142,2.3091,2.3091,2.3744,2.4414,2.4414,2.505,2.5693,2.5693,2.5781,2.6035,2.6465,2.7412,2.8066,2.7914,2.8975,2.9502,2.8447,2.8652,2.876,2.834,2.8291,2.8291,2.8291,2.8291,0.0,0.0,2.8291,2.8291,2.8291,2.8014,2.7413,2.6527,2.5917,2.4753,2.303,2.1816,2.1153,2.1089,2.073,2.0608,2.0601,2.0385,2.0155,1.9931,1.9931,1.9764,1.954,1.97,1.9758,1.97,1.9989,1.9931,1.97,1.97,1.9591,1.9285,0.0,0.0,0.0,0.0,0.0,0.0,0.0,0.0,0.0,0.0,0.0,0.0,0.0,0.0,0.0,0.0,0.0,0.0,0.0,0.6176,0.6327,0.6388,0.6334,0.6368,0.6508,0.662,0.6742,0.6827,0.6994,0.7187,0.7326,0.7797,0.8102,0.8333,0.8627,0.8862,0.908,0.8606,0.8648,0.0,0.0,0.8555,0.8985,0.8834,0.8963,0.9202,0.9125,0.9792,1.0925,1.2471,1.4135,1.5583,1.5901,1.6609,1.7334,1.7469,1.8816,2.0296,2.0607,2.1565,2.2599,2.3003,2.3744,2.4414,2.4414,2.505,2.5693,2.5693,2.5693,2.582,2.6309,2.7129,2.7715,2.7718,2.9092,2.9883,2.8984,2.9385,2.9551,2.8926,2.8682,2.8496,2.831,2.8291,2.8291,0.0,2.8291,2.8291,2.8291,2.8291,2.796,2.7295,2.6799,2.536,2.303,2.232,2.171,2.1211,2.1024,2.0902,2.0902,2.0737,2.0565,2.0392,0.0,2.022,1.9989,2.0155,2.0155,2.004,2.004,2.0046,1.9989,1.9873,1.9815,1.9754,0.0,0.0,0.0,0.0,0.0,0.0,0.0,0.0,0.0,0.0,0.0,0.0,0.0,0.0,0.0,0.0,0.0,0.0,0.0,0.0,0.6405,0.6508,0.6412,0.6416,0.6542,0.6654,0.6729,0.6729,0.6964,0.7095,0.7098,0.7732,0.8027,0.8034,0.844,0.8652,0.8676,0.842,0.8486,0.8753,0.873,0.8893,0.9133,0.0,0.9238,0.942,0.9222,0.9923,1.1167,1.2784,1.4347,1.5689,1.6246,1.6444,1.6575,1.7113,1.7758,1.8579,1.9694,2.0827,2.1891,2.2763,2.3683,2.4434,2.4492,2.5146,2.5693,2.5693,2.5693,2.5801,2.623,2.6738,2.7207,2.7529,2.9053,3.0029,2.9551,3.0244,3.0469,2.959,2.915,2.875,2.833,2.8291,2.8291,2.8291,2.8291,2.8291,2.8291,2.8291,2.8291,2.8291,2.7133,2.5525,2.3472,2.3143,2.2482,2.1432,2.1268,2.1211,2.1211,2.1211,2.1211,2.1146,0.0,0.0,2.0666,2.0658,2.0551,2.0328,2.0104,2.0162,2.0328,2.004,2.0097,2.0221,0.0,0.0,0.0,0.0,0.0,0.0,0.0,0.0,0.0,0.0,0.9474,0.8609,0.0,0.0,0.0,0.0,0.0,0.0,0.0,0.0,0.0,0.6518,0.6569,0.6634,0.6661,0.681,0.6846,0.6846,0.7014,0.7095,0.7095,0.7439,0.759,0.7638,0.8101,0.8368,0.8542,0.8539,0.8733,0.9033,0.8838,0.8997,0.9359,0.9359,0.0,0.0,0.9547,1.0227,1.1308,1.2427,1.3599,1.4719,1.5617,1.6083,1.6344,1.6911,1.7662,1.8487,1.891,2.0331,2.1822,2.2334,2.3431,2.4512,2.4873,2.5361,2.5693,2.5693,2.5693,2.5713,2.5791,2.6787,2.7461,2.7178,2.8857,2.9922,2.9141,2.9775,3.0,2.9141,2.8965,2.875,2.833,2.8291,0.0,0.0,0.0,2.8291,2.8291,2.8291,2.8291,2.8291,2.7133,2.63,2.5917,2.3975,2.2869,2.27,2.1653,2.1211,2.1211,2.1211,2.1024,2.078,2.078,0.0,2.0385,2.0608,2.0658,2.0666,2.0852,2.0795,2.0608,2.0551,2.0436,2.0193,0.0,0.0,0.0,0.0,0.0,0.0,0.0,1.0136,1.0448,1.0876,0.98,0.8932,0.8718,0.7487,0.6702,0.0,0.0,0.0,0.0,0.0,0.0,0.0,0.6705,0.6736,0.6817,0.692,0.696,0.6886,0.0,0.7217,0.7095,0.737,0.7595,0.7724,0.8069,0.834,0.8552,0.8605,0.8718,0.8954,0.8962,0.912,0.9412,0.0,0.0,0.0,0.9579,0.9916,1.0596,1.215,1.3022,1.3782,1.5483,1.6108,1.6319,1.6838,1.7301,1.7839,1.8611,1.9467,2.0516,2.1953,2.2973,2.3907,2.4866,2.541,2.5693,2.5693,2.5693,2.5693,2.5693,2.6435,2.7002,2.7012,2.8428,2.9551,2.958,3.0146,3.0322,2.9668,2.9394,2.9004,2.8359,2.8291,2.8291,2.8291,0.0,2.8291,2.8291,2.8291,2.8291,2.8291,2.7736,2.7133,2.6527,2.536,2.4531,2.3855,2.3303,2.27,2.215,2.215,2.1702,2.0967,2.0967,0.0,2.0551,2.0845,2.0845,2.0723,2.0902,2.096,2.096,2.078,2.073,2.0673,0.0,0.0,0.0,0.0,0.0,0.0,0.0,1.0334,1.0665,1.0842,1.0023,0.9239,0.876,0.7563,0.6797,0.0,0.0,0.0,0.0,0.0,0.0,0.0,0.0,0.6851,0.6927,0.0,0.0,0.7024,0.7288,0.0,0.0,0.0,0.0,0.0,0.8141,0.8396,0.8581,0.8621,0.8723,0.0,0.0,0.9259,0.0,0.0,0.0,0.0,0.0,0.9717,0.9979,1.2075,1.2721,1.3119,1.5397,1.6123,1.6218,1.6744,1.6925,1.716,1.8195,1.8705,1.935,2.1287,2.2292,2.3125,2.4565,2.5131,2.543,2.5635,2.5693,2.5693,2.5693,2.6094,2.6523,2.6943,2.8086,2.9189,2.9951,3.0537,3.0684,3.0127,2.9766,2.9238,2.8369,2.8291,0.0,2.8291,0.0,0.0,2.8291,2.8291,2.8291,2.8291,2.8291,2.7853,2.6907,2.6636,2.6018,2.5058,2.4837,2.4125,2.2974,2.2974,2.2312,2.1211,2.1211,0.0,0.0,2.1089,2.1024,2.078,2.078,2.0967,2.1153,2.0902,2.0967,2.1159,0.0,0.0,0.0,0.0,0.0,0.0,0.0,1.0304,1.0307,1.0209,0.9587,0.8904,0.8257,0.7527,0.7055,0.0,0.0,0.0,0.0,0.0,0.0,0.0,0.0,0.0,0.0,0.0,0.0,0.7374,0.7499,0.0,0.0,0.0,0.0,0.0,0.0,0.8487,0.8532,0.8709,0.0,0.0,0.0,0.0,0.0,0.0,0.0,0.0,0.0,1.0057,1.0213,1.2264,1.2866,1.3065,1.5146,1.5832,1.5927,1.6494,1.6636,1.677,1.7279,1.8332,1.9399,1.9982,2.1069,2.2371,2.3843,2.4218,2.4501,2.5479,2.5693,2.5693,2.5693,2.6094,2.6523,2.6943,2.8086,2.9082,2.956,3.0351,3.0576,2.9726,2.959,2.9238,2.8369,2.8291,2.8291,2.8291,0.0,0.0,2.8291,2.8291,2.8291,2.8291,2.8291,2.8237,2.813,2.7025,2.6463,2.63,2.5232,2.4125,2.2974,2.2974,2.2312,2.1211,2.1211,0.0,0.0,2.1211,2.1211,2.1146,2.1146,2.1153,2.1211,2.1153,2.1153,2.1159,0.0,0.0,0.0,0.0,0.0,0.0,1.0238,1.0563,1.0879,1.1156,1.0106,0.9279,0.9181,0.8067,0.7241,0.7105,0.0,0.0,0.0,0.0,0.0,0.0,0.0,0.0,0.0,0.0,0.7463,0.7509,0.757,0.0,0.0,0.0,0.0,0.0,0.0,0.8609,0.8656,0.889,0.0,0.0,0.0,0.0,0.0,0.0,0.0,0.0,0.0,0.0,1.0308,1.1736,1.25,1.315,1.4619,1.5431,1.5879,1.6265,1.6626,1.6964,1.7299,1.7997,1.8949,1.996,2.0596,2.1536,2.3651,2.4088,2.4402,2.5479,2.5693,2.5693,2.5693,2.583,2.6221,2.6904,2.7441,2.8105,2.9043,2.9707,2.9863,2.9248,2.9414,2.9238,0.0,0.0,2.8291,0.0,0.0,0.0,2.8291,2.8291,2.8291,2.8291,2.8291,2.8291,2.8291,2.7799,2.7574,2.7574,2.7124,2.6236,2.5084,2.4347,2.3416,2.2263,2.1539,0.0,0.0,2.1146,2.1089,2.0902,2.1146,2.1211,2.1211,2.1211,2.1211,2.1189,0.0,0.0,0.0,0.0,0.0,1.0021,1.0358,1.0725,1.1101,1.1432,1.0259,0.9419,0.9465,0.8256,0.7377,0.7221,0.7309,0.0,0.0,0.0,0.0,0.0,0.0,0.0,0.0,0.0,0.7577,0.7729,0.7777,0.7894,0.0,0.0,0.839,0.8478,0.0,0.0,0.0,0.0,0.0,0.0,0.0,0.0,0.0,0.0,0.0,0.0,0.0,0.0,0.0,0.0,0.0,1.2838,1.4158,1.5046,1.568,1.6184,1.669,1.7168,1.7462,1.8007,1.8696,1.9664,1.9996,2.0626,2.2674,2.3384,2.3949,2.502,2.5479,2.5693,2.5693,2.5693,2.5966,2.6875,2.7119,2.7607,2.876,2.9404,2.959,2.916,0.0,2.9287,0.0,2.8369,2.8291,0.0,0.0,0.0,2.8291,2.8291,2.8291,2.8291,2.8291,2.8291,2.8291,2.8291,2.8291,2.8291,2.8291,2.7682,2.6472,2.5626,2.4411,2.2974,0.0,0.0,0.0,2.1089,2.1089,2.0845,2.1089,2.1211,2.1211,2.1211,2.1211,2.1211,0.0,0.0,0.0,0.0,0.0,0.0,1.0599,1.0683,1.067,1.0509,0.9674,0.8934,0.8547,0.796,0.7536,0.7429,0.7415,0.0,0.0,0.0,0.0,0.0,0.0,0.0,0.0,0.0,0.7882,0.7985,0.8187,0.8316,0.8316,0.882,0.8981,0.881,0.0,0.0,0.0,0.0,0.0,0.0,0.0,0.0,0.0,0.0,0.0,0.0,0.0,0.0,0.0,0.0,0.0,0.0,0.0,1.4803,1.5218,1.6359,1.6912,1.7218,1.7732,1.8347,1.8789,1.8789,1.9082,1.9576,2.0688,2.1735,2.2835,2.389,2.4962,2.5693,2.5693,2.5693,2.5966,2.6875,2.7373,2.7959,2.8799,2.9648,3.0029,0.0,2.9626,2.9394,2.8955,2.8535,0.0,0.0,0.0,0.0,2.8291,2.8291,2.8291,2.8291,2.8291,2.8291,2.8291,2.8291,2.8291,2.8291,2.8291,2.7682,2.6527,2.6472,2.5194,0.0,0.0,0.0,0.0,2.1211,2.1211,2.1211,2.1211,2.1211,2.1211,2.1211,2.1211,2.1211,0.0,0.0,0.0,0.0,0.0,0.0,0.0,1.0876,1.1095,1.1426,1.0085,0.9234,0.9602,0.8436,0.7617,0.7668,0.7672,0.0,0.0,0.0,0.0,0.0,0.0,0.0,0.0,0.0,0.7885,0.7988,0.8194,0.8371,0.8575,0.9043,0.916,0.9047,0.9542,0.9553,0.0,0.0,0.0,0.0,0.0,0.0,0.0,0.0,0.0,0.0,0.0,0.0,0.0,0.0,0.0,0.0,0.0,0.0,0.0,1.6632,1.7234,1.7507,1.785,1.8417,1.8919,1.9125,1.9199,1.9576,2.0688,2.1132,2.1937,2.3741,2.4344,2.4815,2.5586,2.5693,2.5966,2.6875,2.7129,2.7519,2.8369,2.8965,2.917,2.875,2.8701,2.8643,0.0,0.0,0.0,0.0,0.0,0.0,2.8291,2.8291,2.8291,2.8291,2.8291,2.8291,2.8291,2.8291,2.8291,2.8291,2.8291,2.8121,2.7682,2.6853,0.0,0.0,0.0,0.0,0.0,2.1211,2.1211,2.1211,2.1211,2.1211,2.1181,2.0955,2.0874,2.0845,0.0,0.0,0.0,0.0,0.0,0.0,0.0,1.075,1.081,1.1318,0.9796,0.8921,0.9593,0.8421,0.7682,0.7879,0.795,0.0,0.0,0.0,0.0,0.0,0.0,0.0,0.7892,0.7953,0.8058,0.8204,0.836,0.8539,0.8696,0.9159,0.9328,0.9223,0.9662,0.9722,0.0,0.0,0.0,0.0,0.0,0.0,0.0,0.0,0.0,0.0,0.0,0.0,0.0,0.0,0.0,0.0,0.0,0.0,0.0,0.0,1.7015,1.7684,1.8039,1.8504,1.8974,1.9227,1.9279,1.948,2.013,2.0585,2.1387,2.3135,2.384,2.4452,2.5479,2.5693,2.5966,2.6875,2.7012,2.7314,2.8174,2.8652,2.8818,2.8564,0.0,0.0,0.0,0.0,0.0,0.0,0.0,0.0,2.8291,2.8291,2.8291,2.8291,2.8291,2.8291,2.8291,2.8291,2.8291,2.8291,2.8291,2.8291,2.8291,2.752,0.0,0.0,0.0,0.0,0.0,2.1211,2.1211,2.1211,2.1211,2.113,2.1006,2.0794,2.0647,2.0453,0.0,0.0,0.0,0.0,0.0,0.0,0.0,1.0481,1.0122,1.0461,0.9023,0.8215,0.8759,0.8108,0.7723,0.7978,0.0,0.0,0.0,0.0,0.0,0.0,0.0,0.0,0.8002,0.8197,0.8391,0.8482,0.8635,0.871,0.8763,0.9241,0.9431,0.9388,0.9717,0.988,0.0,0.0,0.0,0.0,0.0,0.0,0.0,0.0,0.0,0.0,0.0,0.0,0.0,0.0,0.0,0.0,0.0,0.0,0.0,0.0,0.0,0.0,0.0,1.8593,1.8921,1.9227,1.9279,1.9279,1.9279,2.0078,0.0,2.219,2.3235,2.4304,2.542,2.5655,2.5976,2.6914,2.7031,2.7314,0.0,2.8633,0.0,0.0,2.8877,0.0,2.833,0.0,0.0,0.0,0.0,0.0,0.0,2.8291,2.8291,2.8291,2.8262,2.8262,2.8291,2.8291,2.8291,2.8291,2.8291,2.8291,2.8291,2.8291,0.0,0.0,0.0,0.0,0.0,2.1181,2.1189,2.1203,2.1181,2.0991,2.072,2.0669,2.0464,2.0146,0.0,0.0,0.0,0.0,0.0,0.0,0.0,0.0,0.0,0.0,0.9507,0.8852,0.8934,0.8131,0.7767,0.0,0.0,0.0,0.0,0.0,0.0,0.0,0.0,0.0,0.8211,0.8252,0.8391,0.8482,0.8635,0.8817,0.9086,0.9348,0.9594,0.9811,0.9872,0.9811,0.0,0.0,0.0,0.0,0.0,0.0,0.0,0.0,0.0,0.0,0.8776,0.8852,0.0,0.0,0.0,0.0,0.0,0.0,0.0,0.0,1.6025,1.6558,1.7747,0.0,1.8639,1.9168,1.9279,1.9279,0.0,1.948,1.9983,2.103,2.2139,2.3291,2.4738,2.5406,2.6074,2.7324,2.7236,2.7314,2.8174,2.8379,0.0,2.8437,2.8437,2.8398,2.8301,0.0,0.0,0.0,0.0,2.8291,0.0,2.8291,2.8291,2.8291,2.7978,2.7969,2.8291,2.8291,2.8291,2.8291,2.8291,2.8291,2.8291,2.8291,0.0,0.0,0.0,0.0,2.2515,2.1328,2.0984,2.1181,2.0933,2.0794,2.0662,2.0172,1.9938,1.9835,0.0,0.0,0.0,0.0,0.0,0.0,0.0,0.0,0.0,0.0,0.0,0.0,0.0,0.0,0.0,0.0,0.0,0.0,0.0,0.0,0.0,0.0,0.0,0.8028,0.8316,0.8385,0.8438,0.8587,0.8902,0.8994,0.8979,0.9509,0.9735,0.9708,0.9856,0.9835,0.0,0.0,0.0,0.0,0.0,0.0,0.0,0.0,0.0,0.0,0.8514,0.8585,0.0,0.9454,0.9757,0.9943,0.0,0.0,0.0,0.0,1.5482,1.6234,1.7641,1.822,1.8534,1.9018,1.9227,1.9279,1.9279,1.9279,1.9576,2.0688,2.1336,2.2156,2.3485,2.4577,2.561,2.6475,2.7014,0.0,0.0,0.0,2.8291,2.8291,2.8291,2.8291,0.0,0.0,0.0,0.0,0.0,2.8291,0.0,2.8291,2.8291,2.8291,2.7933,2.7826,2.7998,2.7803,2.7705,2.7705,2.791,2.8008,2.8008,2.8008,2.7351,0.0,0.0,0.0,2.2371,2.1003,2.0603,2.075,2.0511,2.0413,2.0237,1.9947,1.972,1.9513,0.0,0.0,0.0,0.0,0.0,0.0,0.0,0.0,0.0,0.0,0.0,0.0,0.0,0.0,0.0,0.0,0.0,0.0,0.0,0.0,0.0,0.0,0.0,0.8113,0.832,0.8411,0.8557,0.871,0.9136,0.9147,0.8798,0.9574,0.9743,0.9429,0.982,0.9953,0.0,0.0,0.0,0.0,0.0,0.0,0.0,0.0,0.0,0.0,0.0,0.0,0.0,0.914,0.9427,0.9575,1.0136,0.0,0.0,0.0,0.0,0.0,1.7536,1.8115,1.8429,1.8817,1.9078,1.9279,1.9279,1.9279,1.9576,2.0483,2.0783,2.1208,2.2156,2.3514,2.4732,2.5396,2.6784,0.0,2.8242,2.8291,2.8291,2.8291,2.8291,0.0,0.0,0.0,0.0,0.0,0.0,0.0,0.0,2.8291,2.8262,2.8203,2.7793,2.7539,2.7523,2.7168,2.7012,2.7021,2.7393,2.7568,2.7568,2.7568,2.7027,0.0,0.0,0.0,2.1971,2.0653,2.0139,2.0176,2.0124,1.9996,1.9808,1.9757,1.9513,1.9279,0.0,0.0,0.0,0.0,0.0,0.0,0.0,0.0,0.0,0.0,0.0,0.0,0.0,0.0,0.0,0.0,0.0,0.0,0.0,0.0,0.0,0.8645,0.8204,0.8113,0.832,0.8411,0.8557,0.871,0.8862,0.9092,0.9285,0.9468,0.9743,1.0064,1.0241,1.0266,1.0184,0.0,0.0,0.0,0.0,0.0,0.0,0.0,0.0,0.0,0.0,0.0,0.0,0.8706,0.9154,0.9458,0.977,0.0,0.0,0.0,0.0,0.0,1.7041,1.7852,1.8181,1.8764,1.9078,1.9279,1.9279,1.9279,1.9331,1.9524,2.0285,2.1075,2.157,2.255,2.386,2.5596,0.0,2.8223,0.0,0.0,2.8291,2.8291,0.0,0.0,0.0,0.0,0.0,0.0,0.0,0.0,0.0,2.8291,2.8125,2.7826,2.7344,2.6943,2.6582,2.6865,2.7012,2.7012,2.708,2.7119,2.7119,2.7119,2.7007,0.0,0.0,2.3253,2.3165,2.0834,1.9996,2.0154,1.9938,1.9859,1.9786,1.9455,1.9323,1.9279,0.0,0.0,0.0,0.0,0.0,0.0,0.0,0.0,0.0,0.0,0.0,0.0,0.0,0.0,0.0,0.0,0.0,0.0,0.0,0.0,0.0,0.8587,0.8316,0.8231,0.8381,0.8374,0.8438,0.8587,0.8902,0.9096,0.9115,0.947,1.0181,1.1088,1.0561,1.0298,1.0314,1.0346,0.0,0.0,0.0,0.0,0.0,0.0,0.0,0.0,0.0,0.0,0.0,0.0,0.8892,0.9316,0.9667,0.0,0.0,0.0,0.0,0.0,1.6762,1.7678,1.8122,1.8541,1.8862,1.9123,1.9279,1.9279,1.9279,1.9279,1.968,2.008,2.0284,2.1486,2.3288,2.5837,0.0,2.8291,2.8291,2.8291,2.8291,0.0,0.0,0.0,0.0,0.0,0.0,0.0,0.0,0.0,0.0,0.0,2.7754,2.7334,2.6894,2.6582,2.6387,2.6348,2.6328,2.6278,2.6562,2.668,2.668,2.668,2.668,2.654,0.0,2.3404,2.2886,2.1143,2.0152,1.9703,1.9557,1.9551,1.9536,1.9382,1.9279,1.9279,0.0,0.0,0.0,0.0,0.0,0.0,0.0,0.0,0.0,0.0,0.0,0.0,0.0,0.0,0.0,0.0,0.0,0.0,0.0,0.0,0.8533,0.8533,0.8397,0.834,0.8377,0.8306,0.8374,0.8431,0.8884,0.9251,0.9531,1.0067,1.0906,1.1997,1.1116,1.0625,1.0493,1.0493,1.0466,0.0,0.0,0.0,0.0,0.0,0.0,0.0,0.0,0.0,0.0,0.0,0.0,0.0,0.0,0.0,0.0,1.2678,1.3503,1.4249,1.6291,1.7315,1.7875,1.8199,1.8593,1.8995,1.9322,1.9382,1.9294,1.9426,1.933,1.9279,1.9279,2.0991,2.3203,2.5603,2.7283,2.8291,2.8291,2.8291,2.8291,0.0,0.0,0.0,0.0,0.0,0.0,0.0,0.0,0.0,0.0,0.0,2.7314,2.6885,2.6553,2.6338,2.624,2.5908,2.5693,2.5693,2.6074,2.624,2.624,2.624,2.624,2.6171,2.474,2.3633,2.2785,2.1735,2.0637,1.968,1.968,1.9532,1.9279,1.9279,1.9279,1.9279,0.0,0.0,0.0,0.0,0.0,0.0,0.0,0.0,0.0,0.0,0.0,0.0,0.0,0.0,0.0,0.0,0.0,0.0,0.0,0.0,0.8696,0.8696,0.855,0.8343,0.8025,0.8204,0.8327,0.8337,0.8623,0.963,1.1335,1.1665,1.205,1.237,1.2267,1.1683,1.0672,1.0672,1.068,1.0637,1.0033,0.0,0.0,0.0,0.0,0.0,0.0,0.0,0.0,0.0,0.0,0.0,0.0,0.0,1.0261,1.1614,1.2699,1.3775,1.5305,1.6484,1.7403,1.7896,1.8443,1.9053,1.9606,1.9491,1.9412,1.972,1.9536,1.9279,1.9279,2.1675,2.3821,2.4369,2.6593,2.8291,2.8291,0.0,0.0,0.0,0.0,0.0,0.0,0.0,0.0,0.0,0.0,0.0,0.0,0.0,0.0,2.6445,2.6406,2.6191,2.5742,2.5703,2.5693,2.5693,2.5713,2.5732,2.5732,2.5732,2.5732,2.5684,2.4569,2.4038,2.389,2.2844,2.1735,2.0783,2.0783,2.0181,1.9279,1.9279,1.9279,1.9279,0.0,0.0,0.0,0.0,0.0,0.0,0.0,0.0,0.0,0.0,0.0,0.0,0.0,0.0,0.0,0.0,0.0,0.0,0.0,0.8319,0.8438,0.8438,0.8381,0.8252,0.7995,0.8096,0.8126,0.8126,0.9505,1.1026,1.262,1.3107,1.3383,1.3437,1.2738,1.1769,1.0692,1.0692,1.0582,1.0417,0.9981,0.0,0.0,0.0,0.0,0.0,0.0,0.0,0.0,0.0,0.8477,0.9054,0.9097,0.9469,1.0174,1.1276,1.1914,1.2542,1.3785,1.5119,1.6284,1.6639,1.7553,1.852,1.9316,1.9408,1.9419,1.9749,1.9558,1.9338,1.9595,2.1118,2.2784,2.4076,2.5764,2.7216,2.8145,0.0,0.0,0.0,0.0,0.0,0.0,0.0,0.0,0.0,0.0,0.0,0.0,0.0,0.0,2.5996,2.5986,2.5908,2.5693,2.5693,2.5693,2.5693,2.5693,2.5693,2.5693,2.5693,2.5693,2.5684,2.5274,2.4707,2.4088,2.3642,2.2835,2.1836,2.1132,2.0233,1.9279,1.9279,1.9279,1.9279,0.0,0.0,0.0,0.0,0.0,0.0,0.0,0.0,0.0,0.0,0.0,0.0,0.0,0.0,0.0,0.0,0.0,0.0,0.7847,0.8085,0.8197,0.8197,0.8245,0.8221,0.8113,0.8015,0.7988,0.7988,1.0071,1.2054,1.3965,1.4454,1.4674,1.462,1.3868,1.2684,1.1232,1.1232,1.0907,1.0417,1.0091,0.9716,0.0,0.0,0.0,0.0,0.0,0.0,0.0,0.0,0.8391,0.8867,0.8964,0.9287,0.9825,1.0615,1.1194,1.1807,1.2973,1.4157,1.5227,1.625,1.7003,1.7768,1.8935,1.9189,1.9269,1.9696,1.9558,1.9345,1.9625,2.0664,0.0,0.0,2.4995,2.6315,0.0,0.0,0.0,0.0,0.0,0.0,0.0,0.0,0.0,0.0,0.0,0.0,0.0,0.0,0.0,0.0,2.5693,2.5693,2.5693,2.5693,2.5693,2.5693,2.5693,2.5693,2.5693,2.5693,2.5693,2.5693,2.5693,2.5274,2.4609,2.4609,2.3741,2.2383,2.1336,2.0233,1.9324,1.968,1.9576,1.9331,0.0,0.0,0.0,0.0,0.0,0.0,0.0,0.0,0.0,0.0,0.0,0.0,0.0,0.0,0.0,0.0,0.0,0.0,0.7607,0.7872,0.7985,0.7988,0.8184,0.832,0.832,0.8119,0.7992,0.7992,1.0071,1.2578,1.5417,1.5749,1.5914,1.5908,1.5908,1.4615,1.2408,1.2408,1.1764,1.0688,1.0417,1.0039,0.0,0.0,0.0,0.0,0.0,0.0,0.0,0.0,0.814,0.8343,0.8678,0.894,0.9146,0.9482,1.0441,1.168,1.3158,1.3651,1.4314,1.6911,1.6935,1.6793,1.8486,1.8925,1.9067,1.9696,1.9551,1.9279,1.9279,2.0502,0.0,2.2937,2.4362,0.0,0.0,0.0,0.0,0.0,0.0,0.0,0.0,0.0,0.0,0.0,0.0,0.0,0.0,0.0,0.0,0.0,2.5693,2.5693,2.5693,2.5693,2.5693,2.5693,2.5693,2.5693,2.5693,2.5693,2.5693,2.5693,2.5693,2.5693,2.5693,2.5693,2.4412,2.2383,2.1336,2.0285,1.9428,2.0483,2.0233,1.948,0.0,0.0,0.0,0.0,0.0,0.0,0.0,0.0,0.0,0.0,0.0,0.0,0.0,0.0,0.0,0.0,0.0,0.0,0.7604,0.7682,0.7773,0.7875,0.7923,0.7997,0.8106,0.817,0.8252,0.835,1.1008,1.2835,1.3965,1.6121,1.6556,1.5525,1.5525,1.4636,1.3023,1.3023,1.2485,1.1567,1.1295,1.07,1.0035,0.0,0.0,0.0,0.0,0.0,0.0,0.0,0.0,0.0,0.8691,0.9091,0.94,0.9577,0.9946,1.042,1.0693,1.2177,1.3813,1.4608,1.6008,1.7444,1.833,1.8716,1.9002,1.9351,1.9345,1.9279,1.9279,1.9658,0.0,2.274,0.0,0.0,0.0,0.0,0.0,0.0,0.0,0.0,0.0,0.0,0.0,0.0,0.0,0.0,0.0,0.0,0.0,0.0,2.5693,2.5693,2.5693,2.5693,2.5693,2.5693,2.5693,2.5693,2.5693,2.5693,2.5693,2.5693,2.5693,2.5693,2.5693,2.5693,2.4412,2.2492,2.2139,2.1387,2.0483,2.0783,2.068,2.0483,0.0,0.0,0.0,0.0,0.0,0.0,0.0,0.0,0.0,0.0,1.2145,1.0832,0.0,0.0,0.0,0.0,0.0,0.0,0.0,0.7509,0.7573,0.7723,0.778,0.7913,0.8126,0.8279,0.8734,0.9459,1.1746,1.3498,1.4688,1.6666,1.7049,1.6097,1.621,1.5475,1.4144,1.4144,1.3242,1.1835,1.1677,1.0956,0.9965,0.0,0.0,0.0,0.0,0.0,0.0,0.0,0.0,0.0,0.8829,0.9149,0.9427,0.9638,1.0205,1.0795,1.1212,1.251,1.4025,1.4965,1.6045,1.7199,1.816,1.875,1.9078,1.9279,1.9279,1.9279,1.9279,1.9279,0.0,0.0,0.0,0.0,0.0,0.0,0.0,0.0,0.0,0.0,0.0,0.0,0.0,0.0,0.0,0.0,0.0,0.0,0.0,0.0,2.5693,2.5693,2.5693,2.5693,2.5693,2.5693,2.5693,2.5693,2.5693,2.5693,2.5693,2.5693,2.5693,2.5693,2.5693,2.5693,2.4412,2.2534,2.2994,2.224,2.0987,2.1836,2.1887,2.1582,0.0,0.0,0.0,0.0,0.0,0.0,0.0,0.0,0.0,0.0,1.2086,1.0529,0.0,0.0,0.0,0.0,0.0,0.0,0.0,0.0,0.7441,0.7594,0.7763,0.7997,0.8303,0.8539,0.9467,1.1061,1.2336,1.4167,1.6536,1.7238,1.7348,1.7132,1.7348,1.671,1.5457,1.5457,1.4099,1.1986,1.1883,1.1018,0.9879,0.9599,0.0,0.0,0.0,0.0,0.0,0.0,0.0,0.0,0.9057,0.921,0.9333,0.9773,1.0864,1.2147,1.3372,1.3969,1.4748,1.6897,1.6757,1.6499,1.8048,1.8848,1.9272,1.9272,1.9279,1.9279,1.9279,1.9279,1.9983,0.0,0.0,0.0,0.0,0.0,0.0,0.0,0.0,0.0,0.0,0.0,0.0,0.0,0.0,0.0,0.0,0.0,0.0,2.5693,2.5693,2.5693,2.5693,2.5693,2.5693,0.0,2.5693,2.5693,2.5693,2.5693,2.5693,2.5693,2.5693,2.5693,2.5693,2.5693,2.4412,2.2593,2.3692,2.2844,2.1285,2.3335,2.3493,2.2793,0.0,0.0,0.0,0.0,0.0,0.0,0.0,0.0,0.0,0.0,0.0,0.0,0.0,0.0,0.0,0.0,0.0,0.0,0.0,0.0,0.7441,0.7594,0.7967,0.8309,0.8611,0.9549,1.0811,1.2382,1.2573,1.3588,1.5405,1.64,1.674,1.6516,1.6526,1.6239,1.5712,1.5712,1.5016,1.3918,1.3068,1.212,1.1117,0.9953,0.9482,0.0,0.0,0.0,0.0,0.0,0.0,0.0,0.9326,0.9427,0.9462,0.9614,1.0712,1.1929,1.2069,1.3653,1.5403,1.5879,1.6781,1.7687,1.8265,1.8698,1.9026,1.9279,1.9279,1.9279,1.9279,1.9279,0.0,0.0,0.0,0.0,0.0,0.0,0.0,0.0,0.0,0.0,0.0,0.0,0.0,0.0,0.0,0.0,0.0,0.0,0.0,2.5693,2.5693,2.5693,2.5693,2.5693,2.5693,0.0,2.5693,2.5693,2.5693,2.5693,2.5693,2.5693,2.5693,2.5693,2.5693,2.5693,2.4412,2.2593,2.3692,2.3285,2.2282,2.3642,2.3939,2.3791,0.0,0.0,0.0,0.0,0.0,0.0,0.0,0.0,0.0,0.0,0.0,0.0,0.0,0.0,0.0,0.0,0.0,0.0,0.0,0.7456,0.7502,0.7797,0.817,0.8442,0.8598,0.9785,1.1198,1.2884,1.3064,1.4044,1.5832,1.671,1.6974,1.6744,1.6744,1.6526,1.6239,1.6099,1.5412,1.44,1.3863,1.3051,1.2043,1.0784,1.03,1.0187,0.9305,0.0,0.0,0.0,0.0,0.0,0.0,0.0,0.9562,0.9704,1.0685,1.188,1.2536,1.4126,1.5765,1.6423,1.7206,1.7905,1.8167,1.8436,1.8757,1.9078,1.9227,1.9279,1.9279,1.9279,0.0,0.0,0.0,0.0,0.0,0.0,0.0,0.0,0.0,0.0,0.0,0.0,0.0,0.0,0.0,0.0,0.0,2.5693,2.5693,2.5693,2.5693,2.5693,2.5693,2.5693,2.5693,2.5693,2.5693,2.5693,2.5693,2.5693,2.5693,2.5693,2.5693,2.5693,2.5693,2.5693,2.4716,2.3393,2.4452,2.4196,2.3393,2.4452,2.4864,2.4864,0.0,0.0,0.0,0.0,0.0,0.0,0.0,0.0,0.0,0.0,0.0,0.0,0.0,0.0,0.0,0.0,0.0,0.0,0.0,0.7451,0.7597,0.7971,0.8299,0.856,0.8793,0.9969,1.1464,1.3231,1.383,1.5042,1.6794,1.7191,1.7255,1.7125,1.7072,1.6911,1.6613,1.6319,1.557,1.4538,1.4394,1.3757,1.2877,1.1853,1.1365,1.1023,0.9965,0.9446,0.9325,0.9325,0.0,0.0,0.0,0.0,0.9657,0.9799,1.0668,1.1875,1.3158,1.4521,1.5906,1.7298,1.7582,1.7687,1.7964,1.8167,1.8429,1.8757,1.9071,1.9279,1.9279,0.0,0.0,0.0,0.0,0.0,0.0,0.0,0.0,0.0,0.0,0.0,0.0,0.0,0.0,0.0,0.0,0.0,2.5693,2.5693,2.5693,2.5693,2.5693,2.5693,2.5693,2.5693,2.5693,2.5693,2.5693,2.5693,2.5693,2.5693,2.5693,2.5693,2.5693,2.5693,2.5693,2.5693,2.5069,2.4196,2.5274,2.502,2.4245,2.5323,2.5693,2.5693,0.0,0.0,0.0,0.0,0.0,0.0,0.0,0.0,0.0,0.0,1.3518,1.2659,1.0245,0.9683,0.0,0.0,0.0,0.0,0.7156,0.0,0.0,0.7975,0.8208,0.8815,0.9875,1.1252,1.2653,1.4032,1.5317,1.6372,1.7141,1.6667,1.656,1.6754,1.65,1.6415,1.6313,1.6012,1.577,1.554,1.4634,1.4196,1.3956,1.2877,1.195,1.1175,1.0979,1.0455,0.9801,0.9801,0.9801,0.0,0.0,0.0,0.9583,0.9657,1.0567,1.1661,1.187,1.3691,1.5906,1.7298,1.7582,1.7687,1.7964,1.8016,1.8122,0.0,1.89,1.9279,0.0,0.0,0.0,0.0,0.0,0.0,0.0,0.0,0.0,0.0,0.0,0.0,0.0,0.0,0.0,0.0,0.0,0.0,2.5693,2.5693,2.5693,2.5693,2.5693,2.5693,2.5693,2.5693,2.5693,2.5693,2.5693,2.5693,2.5693,2.5693,2.5693,2.5693,2.5693,2.5693,2.5693,2.5693,2.5069,2.4196,2.5274,2.502,2.4245,2.5323,2.5693,2.5693,0.0,0.0,0.0,0.0,0.0,0.0,0.0,0.0,0.0,0.0,0.0,1.2963,1.1344,1.019,0.0,0.0,0.0,0.0,0.7265,0.7475,0.0,0.0,0.8106,0.8618,0.9684,1.1034,1.2377,1.3819,1.4971,1.6127,1.7192,1.6764,1.676,1.7181,1.6945,1.6723,1.6493,1.6199,1.5979,1.5778,1.5302,1.5255,1.5232,1.3411,1.2515,1.2122,1.078,1.0065,0.9742,0.9742,0.9742,0.9742,0.9742,0.0,0.0,0.0,1.0028,1.0829,1.2309,1.4151,1.5906,1.7298,1.7582,1.7635,1.7747,1.7911,1.8016,1.8167,1.8534,0.0,0.0,0.0,0.0,0.0,0.0,0.0,0.0,0.0,0.0,0.0,0.0,0.0,0.0,0.0,0.0,0.0,0.0,2.5693,2.5693,2.5693,2.5693,2.5693,2.5693,2.5693,2.5693,2.5693,2.5693,2.5693,2.5693,2.5693,2.5693,2.5693,2.5693,2.5693,2.5693,2.5693,2.5693,2.5693,2.543,2.502,2.5528,2.543,2.5069,2.5538,2.5693,2.5693,0.0,0.0,0.0,0.0,0.0,0.0,0.0,0.0,0.0,0.0,0.0,0.0,1.2529,0.0,0.0,0.0,0.0,0.0,0.7305,0.0,0.0,0.0,0.0,0.8882,0.9995,1.1153,1.2432,1.3778,1.4687,1.5761,1.7085,1.6807,1.7021,1.7569,1.7333,1.7032,1.6687,1.6393,1.6146,1.5939,1.5939,1.6072,1.6106,1.4381,1.3715,1.3446,1.1583,1.0726,1.0519,1.0422,1.0212,1.0015,1.0015,1.0015,0.0,0.0,0.0,1.0757,1.2915,1.4248,1.5354,1.6742,1.7101,1.7174,1.7509,0.0,1.7911,0.0,1.8115,0.0,0.0,0.0,0.0,0.0,0.0,0.0,0.0,0.0,0.0,0.0,0.0,0.0,0.0,0.0,0.0,0.0,2.5693,2.5693,2.5693,2.5693,2.5693,2.5693,2.5693,2.5693,2.5693,2.5693,2.5693,2.5693,2.5693,2.5693,2.5693,2.5693,2.5693,2.5693,2.5693,2.5693,2.5693,2.5693,2.5693,2.5693,2.5693,2.5693,2.5693,2.5693,2.5693,2.5693,0.0,0.0,0.0,0.0,0.0,0.0,0.0,0.0,0.0,0.0,0.0,0.0,1.3263,1.2025,1.0632,0.8995,0.0,0.0,0.0,0.0,0.0,0.0,0.0,0.0,1.1748,1.2571,1.3532,1.4657,1.512,1.5852,1.6727,1.6714,1.7021,1.7569,1.7333,1.7032,1.6687,1.6393,1.6315,1.6253,1.6253,1.6259,1.6299,1.6461,1.5915,1.5034,1.4608,1.3815,1.2984,1.2661,1.1907,1.1126,1.1126,1.1126,1.1039,0.0,0.0,0.0,1.3024,1.3264,1.3691,1.5315,1.5707,1.6035,1.7305,0.0,1.7635,1.7635,0.0,0.0,0.0,0.0,0.0,0.0,0.0,0.0,0.0,0.0,0.0,0.0,0.0,0.0,0.0,0.0,0.0,0.0,2.5693,2.5693,2.5693,2.5693,2.5693,2.5693,2.5693,2.5693,2.5693,2.5693,2.5693,2.5693,2.5693,2.5693,2.5693,2.5693,2.5693,2.5693,2.5693,2.5693,2.5693,2.5693,2.5693,2.5693,2.5693,2.5693,2.5693,2.5693,2.5693,2.5693,0.0,0.0,0.0,0.0,0.0,0.0,0.0,0.0,0.0,0.0,0.0,0.0,0.0,1.2349,1.1234,1.0342,0.9104,0.0,0.0,0.0,0.0,0.0,0.0,0.0,1.2113,1.2553,1.343,1.4684,1.5021,1.5611,1.6426,1.6426,1.664,1.7021,1.7166,1.7139,1.7012,1.6529,1.6321,1.6321,1.6321,1.6386,1.651,1.5959,1.5599,1.5357,1.4365,1.3668,1.3171,1.3034,1.266,1.2119,1.198,1.1934,1.184,1.1568,1.1838,1.2509,1.3345,1.3874,1.4281,1.487,1.584,1.6549,1.6385,1.697,1.7582,1.7582,0.0,0.0,0.0,0.0,0.0,0.0,0.0,0.0,0.0,0.0,0.0,0.0,0.0,0.0,0.0,0.0,0.0,0.0,0.0,0.0,2.5693,2.5693,2.5693,2.5693,2.5693,2.5693,2.5693,2.5693,2.5693,2.5693,2.5693,2.5693,2.5693,2.5693,2.5693,2.5693,2.5693,2.5693,2.5693,2.5693,2.5693,2.5693,2.5693,2.5693,2.5693,2.5693,2.5693,2.5693,0.0,0.0,0.0,0.0,0.0,0.0,0.0,0.0,1.5211,1.5504,0.0,0.0,0.0,0.0,1.2161,1.136,1.0352,0.9651,0.9388,0.9388,0.0,0.0,0.0,0.0,1.2828,1.3026,1.3707,1.483,1.4968,1.5464,1.6321,1.6321,1.6426,1.6707,1.6864,1.7012,1.7166,1.6627,1.642,1.642,1.642,1.6473,1.6544,1.617,1.5965,1.5838,1.4978,1.4548,1.4328,1.4158,1.3748,1.3283,1.29,1.2689,1.259,1.2877,1.3066,1.3286,1.3598,1.4021,1.4461,1.4642,1.5488,1.6226,1.6144,0.0,1.7494,1.7494,0.0,0.0,0.0,0.0,0.0,0.0,0.0,0.0,0.0,0.0,0.0,0.0,0.0,0.0,0.0,0.0,0.0,0.0,0.0,0.0,2.5693,2.5693,2.5693,2.5693,2.5693,2.5693,2.5693,2.5693,2.5693,2.5693,2.5693,2.5693,2.5693,2.5693,2.5693,2.5693,2.5693,2.5693,2.5693,2.5693,2.5693,2.5693,2.5693,2.5693,2.5693,2.5693,2.5693,2.5693,0.0,0.0,0.0,0.0,0.0,0.0,0.0,0.0,1.5504,1.5744,0.0,0.0,0.0,0.0,0.0,1.1957,1.1645,1.1461,1.1155,1.1155,0.0,0.0,0.0,0.0,1.3919,1.4127,1.4533,1.5133,1.5026,1.5464,1.6308,1.6308,1.6413,1.668,1.64,1.6643,1.7166,1.6807,1.6693,1.6707,1.6693,1.6533,1.6442,1.7248,1.7221,1.6734,1.6734,1.6727,1.6633,1.6059,1.5364,1.4643,1.4032,1.345,1.3309,1.4576,1.4995,1.4771,0.0,0.0,0.0,1.4509,0.0,0.0,1.6704,0.0,1.7179,0.0,0.0,0.0,0.0,0.0,0.0,0.0,0.0,0.0,0.0,0.0,0.0,0.0,0.0,0.0,0.0,0.0,0.0,0.0,0.0,2.5693,2.5693,2.5693,2.5693,2.5693,2.5693,2.5693,2.5693,2.5693,2.5693,2.5693,2.5693,2.5693,2.5693,2.5693,2.5693,2.5693,2.5693,2.5693,2.5693,2.5693,2.5693,2.5693,2.5693,2.5693,2.5693,2.5693,2.5693,2.5693,0.0,0.0,0.0,0.0,0.0,1.6348,1.638,1.5825,1.5504,0.0,0.0,0.0,1.5418,1.5021,1.4216,1.2899,1.2751,1.266,1.2438,1.2392,1.2888,1.3952,1.3863,1.4107,1.4754,1.4558,1.4775,1.5375,1.5325,1.5511,1.5952,1.5952,1.6112,1.6386,1.6306,1.648,1.6794,1.6286,1.6319,1.6687,1.648,1.665,1.6985,1.7226,1.7353,1.7341,1.7341,1.7208,1.7052,0.0,1.6404,1.5738,1.491,1.4273,1.3874,1.4259,1.4673,1.4825,1.4132,0.0,0.0,0.0,0.0,0.0,0.0,0.0,0.0,0.0,0.0,0.0,0.0,0.0,0.0,0.0,0.0,0.0,0.0,0.0,0.0,0.0,0.0,0.0,0.0,0.0,0.0,0.0,2.5693,2.5693,2.5693,2.5693,2.5693,2.5693,2.5693,2.5693,2.5693,2.5693,2.5693,2.5693,2.5693,2.5693,2.5693,2.5693,2.5693,2.5693,2.5693,2.5693,2.5693,2.5693,2.5693,2.5693,2.5693,2.5693,2.5693,2.5693,2.5693,2.5693,0.0,0.0,0.0,0.0,1.6834,1.669,1.669,1.6246,1.6005,0.0,0.0,0.0,1.5792,1.5658,1.5219,1.4343,1.4284,1.4192,1.4013,1.396,1.4272,1.4816,1.4741,1.4817,1.5261,1.4937,1.5071,1.5635,1.5491,1.5545,1.5784,1.5784,1.5919,1.6086,1.6086,1.6179,1.6313,1.5845,1.5985,1.652,1.6473,1.6587,1.6878,1.7246,1.7333,0.0,0.0,0.0,1.7166,1.6918,1.6522,0.0,1.5249,1.4774,1.4429,1.4302,1.4683,1.5089,1.4583,1.4917,1.5173,1.4231,0.0,0.0,0.0,1.5527,0.0,0.0,0.0,0.0,0.0,0.0,0.0,0.0,0.0,0.0,0.0,0.0,0.0,0.0,0.0,0.0,0.0,2.5693,2.5693,2.5693,2.5693,2.5693,2.5693,2.5693,2.5693,2.5693,2.5693,2.5693,2.5693,2.5693,2.5693,2.5693,2.5693,2.5693,2.5693,2.5693,2.5693,2.5693,2.5693,2.5693,2.5693,2.5693,2.5693,2.5693,2.5693,2.5693,2.5693,2.5693,2.5693,2.5693,0.0,0.0,1.7582,1.7582,1.7393,1.7199,1.7199,1.6901,1.6707,0.0,1.6707,1.662,1.6442,1.6362,1.6179,1.5898,1.5818,1.5743,1.5586,1.556,1.5452,1.5178,1.5178,1.5267,1.554,1.5244,1.5284,1.5784,1.5571,1.5578,1.5784,1.5784,1.5784,1.5784,1.5751,1.5785,1.5718,1.5504,1.5698,1.6199,1.6493,1.6513,1.6502,0.0,1.7181,1.6747,1.6714,1.6874,1.7065,1.6509,1.6079,0.0,0.0,0.0,1.4955,1.4643,1.4963,1.5331,1.5089,1.5223,1.5384,1.5317,0.0,0.0,1.5571,1.5684,1.5845,0.0,0.0,0.0,0.0,0.0,0.0,0.0,0.0,0.0,0.0,0.0,0.0,0.0,0.0,0.0,2.5586,2.5732,2.5742,2.5693,2.5693,2.5693,2.5693,2.5693,2.5693,2.5693,2.5693,2.5693,2.5693,2.5693,2.5693,2.5693,2.5693,2.5693,2.5693,2.5693,2.5693,2.5693,2.5693,2.5693,2.5693,2.5693,2.5693,2.5693,2.5693,2.5693,2.5693,2.5693,2.5693,2.5693,0.0,1.7393,1.7582,1.7582,1.7393,1.7199,1.7199,1.6901,1.6707,1.6707,1.6707,1.6774,1.7012,1.661,1.6346,1.652,1.6106,1.5884,1.6124,1.5911,1.5737,1.5689,1.5499,1.5547,1.573,1.5535,1.5535,1.5784,1.5772,1.5724,1.5784,1.5784,1.5784,1.5771,1.5585,1.5478,1.5478,1.5424,1.5464,1.5591,1.5885,1.6393,1.7018,1.6901,1.6954,1.7085,1.6794,1.674,1.674,1.6386,1.6079,1.5718,0.0,0.0,0.0,1.4941,1.5124,1.5331,1.5089,1.5223,1.5284,0.0,0.0,0.0,1.4803,1.5137,1.5431,0.0,0.0,0.0,0.0,0.0,0.0,0.0,0.0,0.0,0.0,0.0,0.0,0.0,0.0,0.0,2.5625,2.6055,2.6113,2.5713,2.5693,2.5693,2.5693,2.5693,2.5693,2.5693,2.5693,2.5693,2.5693,2.5693,2.5693,2.5693,2.5693,2.5693,2.5693,2.5693,2.5693,2.5693,2.5693,2.5693,2.5693,2.5693,2.5693,2.5693,2.5693,2.5693,2.5693,2.5693,2.5693,2.5693,1.7172,1.7434,1.7582,1.7582,1.7514,1.742,1.742,1.7241,1.7141,1.7141,1.7141,1.7148,1.7199,1.6938,1.6703,1.6506,1.6353,1.6206,1.6059,1.6052,1.5985,1.5791,1.5683,1.5683,1.5784,1.5683,1.5683,1.5784,1.5784,1.5784,1.5784,1.5784,1.5784,1.5771,1.5678,1.5611,1.5591,1.5304,1.5344,1.5638,1.5932,0.0,1.6764,1.6707,1.68,1.6894,1.6593,1.6486,1.6466,1.6375,1.6172,0.0,1.5538,1.5398,1.5364,0.0,1.5384,1.5578,1.5438,0.0,0.0,1.507,0.0,0.0,0.0,1.5184,1.5398,1.5398,0.0,0.0,0.0,0.0,0.0,0.0,0.0,0.0,0.0,0.0,0.0,0.0,0.0,0.0,2.4833,2.5624,2.5977,2.5703,2.5693,2.5693,2.5693,2.5693,2.5693,2.5693,2.5693,2.5693,2.5693,2.5693,2.5693,2.5693,2.5693,2.5693,2.5693,2.5693,2.5693,2.5693,2.5693,2.5693,2.5693,2.5693,2.5693,2.5693,2.5693,2.5693,2.5693,2.5693,2.5693,2.5693,1.7132,1.7434,1.7582,1.7582,1.7582,1.7582,1.7582,1.7582,1.7582,1.7582,1.7582,1.7548,1.7306,1.7233,1.7032,1.661,1.6633,1.6526,1.6112,1.6199,1.6192,1.5957,1.5844,1.5804,1.5912,1.5811,1.5784,1.5784,1.5784,1.5784,1.5784,1.5784,1.5784,1.5778,1.5772,1.5698,1.5712,1.519,1.5264,1.5772,0.0,1.6221,1.6299,1.6533,1.662,1.6587,1.6293,1.6186,1.6186,1.6186,1.6186,1.6106,1.5631,1.5645,0.0,0.0,0.0,0.0,0.0,0.0,0.0,0.0,0.0,1.5451,0.0,0.0,0.0,1.5638,0.0,0.0,0.0,0.0,0.0,0.0,0.0,0.0,0.0,0.0,0.0,0.0,0.0,0.0,0.0,2.502,2.5693,2.5693,2.5693,2.5693,2.5693,2.5693,2.5693,2.5693,2.5693,2.5693,2.5693,2.5693,2.5693,2.5693,2.5693,2.5693,2.5693,2.5693,2.5693,2.5693,2.5693,2.5693,2.5693,2.5693,2.5693,2.5693,2.5693,2.5693,2.5693,2.5693,2.5693,2.5693,1.7092,1.7434,1.7582,1.7582,1.7582,1.7582,1.7582,1.7582,1.7582,1.7582,1.7582,1.7569,1.7535,1.7353,1.728,1.7415,1.6987,1.6794,1.7038,1.6596,1.6373,1.6593,1.6106,1.5952,1.6219,1.5965,1.5784,1.5784,1.5784,1.5784,1.5784,1.5784,1.5784,1.5771,1.5558,1.5444,1.5424,1.5149,1.515,0.0,1.5484,1.5812,0.0,1.6306,1.6375,1.6279,1.5985,1.5879,1.5879,0.0,1.5879,1.5818,0.0,1.5758,1.5771,1.5744,0.0,0.0,0.0,0.0,0.0,0.0,1.5591,0.0,0.0,0.0,1.5645,1.5164,0.0,0.0,0.0,0.0,0.0,0.0,0.0,0.0,0.0,0.0,0.0,0.0,0.0,0.0,0.0,2.4922,2.5693,2.5693,2.5693,2.5693,2.5693,2.5693,2.5693,2.5693,2.5693,2.5693,2.5693,2.5693,2.5693,2.5693,2.5693,2.5693,2.5693,2.5693,2.5693,2.5693,2.5693,2.5693,2.5693,2.5693,2.5693,2.5693,2.5693,2.5693,2.5693,2.5693,2.5693,2.5693,1.7085,1.73,1.7434,1.7555,1.7582,1.7582,1.7582,1.7582,1.7582,1.7582,1.7582,1.7582,1.7582,1.7475,1.7434,1.7387,1.7261,1.7121,1.6907,1.6871,1.6811,1.6707,1.6313,1.6146,1.6321,1.5979,1.5784,1.5784,1.5784,1.5784,1.5784,1.5784,1.5784,1.5784,1.5879,1.5905,1.5885,1.5591,1.5538,0.0,0.0,0.0,0.0,1.5952,1.6012,1.5999,1.5872,1.5784,1.5784,0.0,1.5784,0.0,0.0,0.0,0.0,0.0,0.0,0.0,0.0,0.0,0.0,0.0,0.0,0.0,1.5524,0.0,1.5758,0.0,0.0,0.0,0.0,0.0,0.0,0.0,0.0,0.0,0.0,0.0,0.0,0.0,0.0,0.0,0.0,0.0,0.0,0.0,0.0,2.5693,2.5693,2.5693,2.5693,2.5693,2.5693,2.5693,2.5693,2.5693,2.5693,2.5693,2.5693,2.5693,2.5693,2.5693,2.5693,2.5693,2.5693,2.5693,2.5693,2.5693,2.5693,2.5693,2.5693,2.5693,2.5693,2.5693,2.5693,2.5693,1.7427,1.7343,1.7266,1.7481,1.7528,1.7582,1.7582,1.7582,1.7582,1.7582,1.7582,1.7582,1.7582,1.7582,1.7495,1.734,1.7514,1.7402,0.0,1.7125,1.7139,1.6947,1.6593,1.6393,1.6393,1.6099,1.5912,1.5784,1.5784,1.5784,1.5784,1.5784,1.5784,1.5791,1.6052,1.6192,1.6301,1.5952,1.5919,1.6039,1.5665,1.5518,1.5538,1.5752,1.5784,1.5784,1.5784,1.5784,1.5784,1.5784,1.5784,0.0,1.5784,0.0,0.0,0.0,0.0,0.0,1.5784,0.0,0.0,0.0,0.0,0.0,0.0,0.0,0.0,0.0,0.0,0.0,0.0,0.0,0.0,0.0,0.0,0.0,0.0,0.0,0.0,0.0,0.0,0.0,0.0,0.0,0.0,0.0,0.0,0.0,2.5693,2.5693,2.5693,2.5693,2.5693,2.5693,2.5693,2.5693,2.5693,2.5693,2.5693,2.5625,2.5557,2.5557,2.5488,2.5333,2.5498,2.5557,2.5566,2.5635,2.5693,2.5693,2.5693,2.5693,2.5693,2.5693,2.5693,2.5693,1.8282,1.775,1.7206,1.7213,1.7447,1.7582,1.7582,1.7582,1.7582,1.7582,1.7582,1.7582,1.7582,1.7582,1.7582,1.7569,1.7582,1.7575,1.7555,1.7353,1.7326,1.7542,1.7001,1.6693,1.6693,1.6406,1.6119,1.5784,1.5784,1.5784,1.5784,1.5784,1.5784,1.5784,1.5791,1.6005,1.6301,1.5952,1.6159,1.6627,1.6046,1.5764,1.5764,0.0,1.5784,1.5784,1.5784,0.0,0.0,1.5784,1.5784,0.0,0.0,0.0,0.0,0.0,0.0,0.0,0.0,0.0,0.0,1.5784,0.0,0.0,0.0,0.0,1.5752,0.0,0.0,0.0,0.0,0.0,0.0,0.0,0.0,0.0,0.0,0.0,0.0,0.0,0.0,0.0,0.0,0.0,0.0,0.0,0.0,0.0,2.5693,2.5693,2.5693,2.5693,2.5693,2.5693,2.5693,2.5693,2.5693,2.5693,2.5693,2.5508,2.5135,2.5135,2.4863,2.4482,2.4902,2.5135,2.5174,2.5557,2.5693,2.5693,2.5693,2.5693,2.5693,2.5693,2.5693,2.5693,1.9431,1.938,1.9376,1.9594,1.8891,1.8126,1.7654,1.7582,1.7582,1.7582,1.7582,1.7582,1.7582,1.7582,1.7582,0.0,0.0,1.7582,1.7582,1.7548,1.7534,1.7582,1.7208,1.7052,0.0,1.6714,1.6413,1.6119,1.6119,1.6019,1.5784,1.5784,1.5784,1.5791,1.6039,1.6286,0.0,0.0,0.0,0.0,0.0,1.5784,1.5784,0.0,0.0,1.5784,1.5784,1.5784,0.0,1.5784,1.5784,1.5784,1.5784,1.5784,1.5784,1.5784,1.5784,0.0,0.0,0.0,1.5784,1.5784,0.0,0.0,0.0,0.0,0.0,0.0,0.0,0.0,0.0,0.0,0.0,0.0,0.0,0.0,0.0,0.0,0.0,0.0,0.0,0.0,0.0,0.0,0.0,0.0,2.5693,0.0,0.0,2.5693,2.5693,2.5693,2.5693,2.5693,2.5693,2.5693,2.5586,2.5293,2.5293,2.5068,2.4639,2.4639,2.456,2.4424,2.457,2.4805,2.5125,2.5234,2.5469,2.5693,2.5693,2.5693,2.5693,2.5693,2.5693,2.5693,2.0752,2.1138,2.1329,2.0806,2.0007,1.9147,1.8276,1.8146,1.8048,1.7635,1.7582,0.0,1.7582,0.0,1.7582,0.0,1.7582,1.7582,1.7582,1.7582,0.0,1.7582,1.7454,1.7306,0.0,0.0,0.0,0.0,0.0,1.6119,1.5784,1.5784,1.5784,1.5791,1.6032,1.6333,1.6707,1.6707,1.6827,0.0,0.0,1.5964,0.0,0.0,1.5784,1.5784,0.0,1.5784,1.5784,1.5784,1.5784,1.5784,1.5784,1.5784,1.5784,1.5784,1.5784,1.5784,1.5784,1.5784,0.0,1.5784,1.5691,0.0,1.5424,0.0,0.0,0.0,0.0,0.0,0.0,0.0,0.0,0.0,0.0,0.0,0.0,1.6086,0.0,0.0,0.0,0.0,0.0,0.0,2.5693,2.5693,2.5693,0.0,0.0,0.0,2.5693,2.5693,2.5693,2.5693,2.5693,2.5586,2.5352,2.5116,2.4912,2.4609,2.4199,2.4199,2.4111,2.3975,2.4121,2.4443,2.4844,2.5047,2.5332,2.5693,2.5693,2.5693,2.5693,2.5693,2.5693,2.5693,2.2207,2.2917,2.2925,2.0932,2.0814,2.057,0.0,0.0,1.8819,0.0,1.7582,1.7582,1.7582,1.7582,1.7582,1.7582,1.7582,1.7582,1.7582,1.7582,0.0,0.0,1.7582,1.7507,1.7233,0.0,0.0,0.0,0.0,0.0,1.5804,1.5791,1.5784,1.5784,1.5784,0.0,1.6707,1.6707,1.7027,1.7488,1.6914,1.6339,1.5832,1.5832,1.5832,1.5832,1.5832,1.5825,1.5832,1.5825,1.5832,1.5832,1.5832,1.5832,1.5778,1.5764,1.5758,1.5805,1.5839,1.5785,1.5785,1.5832,0.0,0.0,0.0,0.0,1.5732,0.0,0.0,0.0,0.0,0.0,0.0,0.0,0.0,0.0,0.0,0.0,0.0,0.0,0.0,0.0,0.0,2.462,2.5586,2.5654,2.5654,0.0,0.0,0.0,2.5693,2.5693,2.5693,2.5674,2.5654,2.5283,2.5096,2.5047,2.458,2.417,2.376,2.376,2.3525,2.312,2.3574,2.3994,2.4414,2.4853,2.5303,2.5654,2.5674,2.5693,2.5693,2.5693,2.5693,2.5693,2.3633,2.3839,2.3839,2.3336,2.2608,2.1446,0.0,0.0,0.0,0.0,1.7582,1.7582,1.7582,1.7582,1.7582,1.7582,1.7582,0.0,0.0,0.0,0.0,1.7582,1.7582,1.7549,1.7475,1.7521,1.7347,1.6971,0.0,0.0,1.6152,1.5932,1.5784,1.5784,0.0,1.6152,1.6707,1.6707,1.6794,1.6901,1.6533,1.6263,0.0,0.0,1.6211,1.6353,1.5927,1.6062,1.6346,1.617,1.6076,1.6076,1.6076,1.5974,1.5738,1.5571,1.5504,1.5597,1.6042,1.5715,1.5359,1.6024,1.5669,1.5209,0.0,0.0,0.0,0.0,0.0,0.0,0.0,0.0,0.0,0.0,0.0,0.0,0.0,0.0,0.0,1.6346,0.0,0.0,0.0,2.2883,2.4108,2.5167,2.5244,0.0,0.0,0.0,0.0,2.5693,2.5693,2.5576,2.5244,2.5174,2.4746,2.4111,2.4004,2.373,2.3257,2.3257,2.3198,2.3101,2.3218,2.3555,2.3984,2.4414,2.4844,2.5273,2.5557,2.5693,2.5693,2.5693,2.5693,2.5693,2.4202,2.4202,2.4202,2.4202,0.0,0.0,2.0261,1.9952,0.0,1.7786,1.7582,0.0,1.7582,1.7582,1.7582,1.7582,1.7582,0.0,1.7582,0.0,0.0,1.7582,1.7582,1.7582,1.7582,1.7582,0.0,1.7199,0.0,0.0,1.6315,1.5972,0.0,0.0,0.0,1.6086,1.6526,1.6653,1.6683,1.6704,1.6542,0.0,0.0,1.6359,1.6548,1.673,1.6305,1.6353,1.6588,1.6454,1.6312,1.6224,1.6224,1.5987,1.5752,1.5583,1.5709,1.6017,1.6322,1.6271,1.6264,1.6741,1.6485,1.6139,1.6139,1.597,1.5815,0.0,0.0,0.0,0.0,0.0,0.0,0.0,0.0,0.0,0.0,0.0,0.0,0.0,1.8441,0.0,0.0,0.0,0.0,0.0,0.0,0.0,0.0,0.0,0.0,2.5693,2.5547,2.5322,2.5116,2.4744,2.4268,2.3789,2.3594,2.3379,2.3091,2.3091,2.3091,2.3091,2.3091,2.3389,2.3809,2.4043,2.4512,2.5165,2.5566,2.5693,2.5693,2.5693,2.5693,2.5693,2.4301,2.4347,2.4365,0.0,0.0,0.0,0.0,2.1089,0.0,1.8101,0.0,1.7733,1.7635,1.7582,1.7582,1.7582,0.0,1.7582,1.7582,1.7582,1.7582,1.7582,1.7582,1.7582,1.7582,1.7582,1.7514,0.0,0.0,0.0,1.6319,0.0,0.0,0.0,0.0,0.0,0.0,1.6547,1.6682,1.6731,1.669,1.6732,1.6748,1.6706,1.6888,1.7077,1.6791,1.6676,1.6676,1.6683,1.6501,1.6319,1.6319,1.6087,1.5807,1.587,1.6228,1.669,1.6819,1.7223,1.7596,1.7682,1.7679,1.7624,1.7624,1.7062,1.6603,1.6839,1.6351,1.5881,0.0,0.0,0.0,0.0,0.0,0.0,0.0,0.0,0.0,0.0,0.0,0.0,0.0,0.0,0.0,0.0,0.0,0.0,0.0,0.0,0.0,2.5693,2.5361,0.0,2.5028,0.0,2.3818,2.3701,2.3276,2.3091,2.3091,2.3091,2.3091,2.3091,2.3091,2.3305,2.3711,2.3769,2.4297,2.5155,2.5498,2.5635,2.5693,2.5693,2.5693,2.5693,2.4735,2.5067,2.5139,0.0,0.0,2.3926,2.2467,2.2215,2.1446,1.9228,1.8916,1.8558,1.7687,1.7582,1.7582,1.7582,1.7582,0.0,0.0,0.0,0.0,1.7582,1.7582,1.7582,1.7582,1.7582,1.7555,0.0,0.0,0.0,1.662,0.0,0.0,0.0,0.0,0.0,1.6279,1.6326,0.0,1.7025,1.6778,1.7086,1.7626,1.7362,1.7455,1.7603,1.7287,1.7185,1.7145,1.6972,1.6885,1.6838,1.6838,1.6655,1.65,1.6691,1.6838,1.71,1.8028,1.7819,1.7532,1.8267,1.8095,1.7767,1.7767,1.7825,1.7877,1.7941,1.8137,1.8002,1.697,0.0,0.0,0.0,0.0,0.0,0.0,0.0,0.0,0.0,0.0,0.0,0.0,0.0,0.0,0.0,0.0,0.0,0.0,0.0,0.0,0.0,2.5615,0.0,0.0,0.0,2.3955,2.3208,2.313,2.3091,2.3091,2.3091,2.3091,2.3091,2.3091,2.314,2.3237,2.3643,2.4297,2.5125,2.5156,2.541,2.5693,2.5693,2.5693,2.5693,2.5342,2.5374,2.5289,2.4883,0.0,0.0,0.0,2.3628,0.0,2.0416,2.0055,1.9642,1.8558,1.8975,1.8871,1.7687,1.8101,1.8199,1.7635,1.7582,1.7582,1.7582,1.7582,1.7582,1.7582,1.7582,1.7582,1.7582,0.0,0.0,1.6693,0.0,0.0,1.5791,0.0,1.6139,0.0,0.0,0.0,1.8114,1.7548,1.7963,1.8886,1.8512,1.8472,1.8617,1.8729,1.878,1.8742,1.811,1.821,1.8481,1.8481,1.831,1.8092,1.8201,1.8458,1.8752,1.9026,1.907,1.9057,1.9219,1.907,1.8882,1.8882,1.8655,1.8455,1.8617,1.8497,1.8197,1.7718,1.7778,0.0,0.0,0.0,0.0,0.0,0.0,0.0,0.0,0.0,0.0,0.0,0.0,0.0,0.0,0.0,0.0,0.0,0.0,0.0,0.0,0.0,0.0,0.0,0.0,0.0,2.3091,2.3091,2.3091,2.3091,2.3091,2.3091,2.3091,2.3091,2.3091,2.313,2.3613,2.416,2.4756,2.498,2.5342,2.5693,2.5693,2.5693,2.5693,2.5952,2.5767,0.0,0.0,2.4892,0.0,2.4883,2.4735,2.3818,2.1591,2.1336,2.0869,1.9694,2.0416,2.0261,1.8461,1.9072,1.9176,1.8356,1.8304,1.8206,1.7943,1.7943,1.7838,1.7582,1.7582,1.7582,0.0,0.0,0.0,0.0,0.0,0.0,0.0,0.0,0.0,0.0,0.0,1.8363,1.9581,1.8684,1.9167,2.0394,1.9686,1.9574,1.9794,2.0083,2.0331,2.0421,1.965,1.9658,1.9977,1.9977,1.9774,1.9609,1.971,2.0095,2.0422,2.0145,2.0389,2.0661,2.0288,2.0126,2.0059,2.0059,1.9529,1.9087,1.9363,1.875,1.8314,1.893,1.8946,0.0,0.0,0.0,0.0,0.0,0.0,0.0,0.0,0.0,0.0,0.0,0.0,0.0,0.0,0.0,0.0,2.5586,2.5635,0.0,0.0,0.0,2.4512,2.4414,0.0,2.3188,0.0,2.3091,2.3091,2.3091,2.3091,2.3091,2.3091,2.3091,2.3091,2.313,2.3613,2.4033,2.4463,2.4893,2.5342,2.5693,2.5693,2.5693,2.5693,0.0,0.0,0.0,0.0,0.0,0.0,2.4932,2.4883,2.4372,2.2894,2.2685,2.2181,2.0877,2.103,2.1081,2.0621,2.068,2.068,2.0577,2.0577,2.0107,1.9072,1.9072,1.861,1.7635,1.7582,1.7582,0.0,0.0,1.7186,0.0,0.0,0.0,0.0,0.0,0.0,0.0,1.8837,1.9905,2.1278,2.0213,2.0797,2.2054,2.0386,2.0369,2.113,2.0443,2.0782,2.1561,2.1472,2.0872,2.0187,2.0187,2.0169,2.0255,2.0763,2.0994,2.1142,2.155,2.1411,2.114,2.1102,2.079,2.0527,2.0527,2.0489,2.042,2.0449,1.9823,1.9778,2.1523,2.0889,2.0579,0.0,0.0,0.0,0.0,0.0,2.3066,2.2955,0.0,0.0,0.0,0.0,0.0,0.0,0.0,0.0,2.5146,2.5518,2.5557,2.5194,0.0,2.4814,2.4424,2.3965,0.0,2.3091,2.3091,2.3091,2.3091,2.3091,2.3091,2.3091,2.3091,2.3091,2.313,2.3613,2.4033,2.4463,2.4893,2.5342,2.5693,2.5693,2.5693,2.5693,0.0,0.0,0.0,0.0,0.0,0.0,0.0,2.5235,2.4932,2.4421,2.4214,2.366,2.2492,2.3003,2.2802,2.1293,2.1735,2.1735,2.0936,2.0885,2.0364,1.9228,1.9176,1.8715,1.7635,1.7747,1.7852,0.0,0.0,0.0,0.0,0.0,0.0,0.0,0.0,1.9693,2.0221,2.0751,2.1669,2.2758,2.1862,2.2305,2.3331,2.2399,2.2294,2.2619,2.2428,2.2603,2.2942,2.264,2.2271,2.1961,2.1961,2.1961,2.1968,2.2224,2.2307,2.2308,2.2288,2.2129,2.1834,2.1327,2.1064,2.0898,2.0664,2.0605,2.0605,2.0605,2.0331,2.0353,2.1118,2.1138,2.1273,0.0,0.0,0.0,0.0,0.0,0.0,2.314,0.0,2.3721,0.0,0.0,0.0,0.0,0.0,0.0,0.0,0.0,0.0,2.5469,0.0,2.4336,2.4414,2.374,2.331,2.3091,2.3091,2.3091,2.3091,2.3091,2.3091,2.3091,2.3091,2.3091,2.313,2.3613,2.4033,2.4463,2.4893,2.5342,2.5693,2.5693,2.5693,2.5693,2.7462,0.0,2.6766,0.0,2.5817,2.5634,2.5703,2.5538,2.544,2.544,2.5235,2.4775,2.385,2.452,2.4322,2.2501,2.3044,2.3044,2.2047,2.2047,2.1532,2.0202,1.9996,0.0,1.8258,1.8167,1.8265,1.8572,1.8572,0.0,0.0,0.0,0.0,0.0,2.1195,2.1559,2.1982,2.2464,2.3294,2.4196,2.3343,2.3592,2.4503,2.3754,2.3694,2.3945,2.3953,2.3896,2.374,2.3437,2.3198,2.3091,2.3091,2.3091,2.3091,2.3091,2.3091,2.3033,2.273,2.2607,2.2363,2.1726,2.1385,2.1112,2.083,2.0693,2.0605,2.0605,2.0605,2.0683,2.0948,2.1333,2.1755,2.2165,0.0,0.0,0.0,0.0,0.0,0.0,2.3408,2.3603,2.3603,0.0,0.0,0.0,0.0,0.0,0.0,0.0,0.0,0.0,0.0,0.0,0.0,2.3461,2.3091,2.3091,2.3091,2.3091,2.3091,2.3091,2.3091,2.3091,2.3091,2.3169,2.3315,2.3799,2.4228,2.4648,2.5098,2.5459,2.5693,2.5693,2.5693,2.5693,2.7744,2.7718,2.7393,2.6543,2.6387,2.623,2.5752,2.5693,2.5693,2.5693,2.5684,2.5489,2.4932,2.5137,2.5186,2.4883,2.4883,2.4784,2.448,2.4686,2.4134,0.0,0.0,2.1038,1.968,1.884,1.8923,1.9981,0.0,0.0,2.1634,0.0,2.1197,2.1188,2.1468,2.2371,2.3683,2.3989,2.4707,2.5586,2.4501,2.4707,2.5538,2.4054,2.4135,2.501,2.457,2.4141,2.3789,2.3779,2.3496,2.3091,2.3091,2.3091,2.3091,2.3091,2.3091,2.3091,2.3091,2.2779,2.251,2.25,2.1824,2.119,2.119,2.0889,2.0605,2.0605,2.0605,2.0869,2.175,2.1875,2.2158,2.2945,0.0,0.0,0.0,0.0,0.0,0.0,2.3101,2.3101,2.3101,0.0,0.0,0.0,0.0,0.0,0.0,0.0,0.0,2.3838,2.3799,0.0,2.3799,2.3359,2.3091,2.3091,2.3091,2.3091,2.3091,2.3091,2.3091,2.3091,2.3091,2.3379,2.3809,2.4238,2.4668,2.5155,2.5557,2.5684,2.5693,2.5693,2.5693,2.5693,2.7796,2.7718,2.7444,2.6543,2.6387,2.624,2.5752,2.5693,2.5693,2.5693,2.5693,2.5635,2.544,2.5538,2.544,0.0,2.5186,2.5088,0.0,2.4833,2.4322,2.3103,2.2894,2.2223,2.1108,2.0963,2.1065,2.1422,0.0,0.0,0.0,2.2944,2.3395,2.4256,2.4373,2.4643,2.5069,2.5167,2.5382,2.5684,2.5323,2.5382,2.5674,2.5179,2.5228,2.5469,2.5019,2.4775,2.4666,2.4316,2.4121,2.3955,2.3672,2.3379,2.3091,2.3091,2.3091,2.3091,2.3091,2.3003,2.2828,2.2588,2.2305,2.2031,2.1738,2.1338,2.0937,2.0664,2.0605,2.0781,2.1338,2.168,2.207,2.2617,2.2906,0.0,0.0,0.0,0.0,0.0,2.3091,2.3091,0.0,2.3091,0.0,0.0,0.0,0.0,0.0,0.0,0.0,0.0,2.3652,0.0,2.3789,2.3315,2.3091,2.3091,2.3091,2.3091,2.3091,2.3091,2.3091,2.311,2.3457,2.3662,2.3848,2.456,2.4988,2.5165,2.5566,2.5693,2.5693,2.5693,2.5693,2.5693,2.7949,2.7953,2.7685,2.6992,2.6738,2.6475,2.6045,2.5791,2.5693,2.5693,2.5693,2.5693,2.5693,2.5693,0.0,2.544,2.543,2.5333,2.5088,2.5137,2.4824,2.3958,2.3692,2.3235,2.2475,0.0,0.0,2.2835,2.3253,2.38,2.4452,2.4452,2.4913,2.5693,2.5693,2.5693,2.5693,2.5693,2.5693,2.5693,2.5693,2.5693,2.5693,2.5693,2.5693,2.5654,2.542,2.5215,2.5077,2.4756,2.4551,2.4375,2.4111,2.3838,2.351,2.3188,2.3091,2.3091,2.3091,2.3091,2.3033,2.2769,2.2627,2.2402,2.1982,2.167,2.1396,2.1123,2.1104,2.1191,2.159,2.1934,2.2256,2.2676,2.3062,2.3286,2.312,0.0,0.0,0.0,0.0,0.0,0.0,2.3188,0.0,0.0,0.0,0.0,0.0,0.0,0.0,2.389,2.3374,0.0,2.3545,2.3227,2.3091,2.3091,2.3091,2.3091,2.3091,2.3091,2.3188,2.3398,2.3672,2.3975,2.4316,2.4891,2.5166,2.5352,2.5577,2.5693,2.5693,2.5693,2.5693,2.5693,2.8291,2.8291,0.0,0.0,2.7305,0.0,2.6455,2.6016,2.5693,2.5693,2.5693,2.5693,2.5693,2.5693,2.5693,2.5693,0.0,0.0,0.0,2.5538,2.5489,2.4981,2.4461,2.4106,2.3827,2.3103,2.3194,2.4196,2.5216,2.5693,2.5693,2.5693,2.5693,2.5693,2.5693,2.5693,2.5693,2.5693,2.5693,2.5693,2.5693,2.5693,2.5693,2.5693,2.5693,2.5693,2.5693,2.5469,2.5165,2.5165,2.4844,2.4502,2.4473,2.4463,2.4297,2.3422,2.3169,2.314,2.314,2.312,2.3091,2.3091,2.2799,2.2441,2.2021,2.1934,2.1924,2.1894,2.1885,2.2012,2.2432,2.251,2.2656,2.3071,2.3525,2.3652,2.3198,0.0,0.0,0.0,0.0,0.0,0.0,2.3379,2.3257,0.0,0.0,0.0,0.0,0.0,2.3555,2.311,2.3091,2.3091,2.3091,2.3091,2.3091,2.3091,2.3091,2.3091,2.3091,2.3091,2.3359,2.375,2.3809,2.4287,2.5077,2.5135,2.5361,2.5693,2.5693,2.5693,2.5693,2.5693,2.5693,2.5693,0.0,0.0,2.8164,2.7796,2.7305,2.6875,2.6455,2.6016,2.5693,2.5693,2.5693,2.5693,2.5693,2.5693,2.5693,2.5693,2.5693,2.5684,2.5586,2.5635,2.5635,2.5538,2.5382,2.5284,2.5235,2.503,2.5079,2.5323,2.5586,2.5693,2.5693,2.5693,2.5693,2.5693,2.5693,2.5693,2.5693,2.5693,2.5693,2.5693,2.5693,2.5693,2.5693,2.5693,2.5693,2.5693,2.5693,2.5625,2.5586,2.5586,2.546,2.5313,2.5019,2.4912,2.4805,2.4277,2.3887,2.3633,2.3633,2.3344,2.3091,2.3091,2.3023,2.2838,2.2461,2.2363,2.2275,2.1953,2.1885,2.2012,2.2432,2.251,2.2764,2.3516,2.3721,2.375,2.3652,2.3721,0.0,0.0,2.3091,2.314,2.3237,2.3159,2.314,0.0,0.0,0.0,0.0,2.3198,2.3198,2.3101,2.3091,2.3091,2.3091,2.3091,2.3091,2.3091,2.3091,2.3091,2.3091,2.3091,2.3149,2.3286,2.3984,2.4385,2.4619,2.5303,2.5596,2.5693,2.5693,2.5693,2.5693,2.5693,2.5693,2.5693,2.8291,2.8291,2.8223,2.7988,2.7598,2.7168,2.6738,2.6309,2.5967,2.5713,2.5693,2.5693,2.5693,2.5693,2.5693,2.5693,2.5693,2.5693,2.5693,2.5693,2.5693,2.5693,2.5693,2.5693,2.5693,2.5693,2.5693,2.5693,2.5693,2.5693,2.5693,2.5693,2.5693,2.5693,2.5693,2.5693,2.5693,2.5693,2.5693,2.5693,2.5693,2.5693,2.5693,2.5693,2.5693,2.5693,2.5693,2.5693,2.5693,2.5693,2.5693,2.5645,2.5449,2.5371,2.5322,2.5088,2.4434,2.3789,2.3789,2.3467,2.3091,2.3091,2.3091,2.3033,2.2808,2.275,2.2691,2.251,2.2461,2.2529,2.2711,2.2959,2.3252,2.3711,2.3945,2.4014,2.3818,2.3789,0.0,2.3149,2.3091,2.3169,2.3418,2.3218,2.3179,2.3418,0.0,0.0,2.3091,2.3091,2.3091,2.3091,2.3091,2.3091,2.3091,2.3091,2.3091,2.3091,2.3091,2.3091,2.3091,2.3091,2.3198,2.3477,2.4131,2.4531,2.4766,2.5449,2.5693,2.5693,2.5693,2.5693,2.5781,2.6235,2.637,2.6466,2.8291,2.8291,2.8291,2.8291,2.7891,2.7441,2.707,2.6602,2.6162,2.5732,2.5693,2.5693,2.5693,2.5693,2.5693,2.5693,2.5693,2.5693,2.5693,2.5693,2.5693,2.5693,2.5693,2.5693,2.5693,2.5693,2.5693,2.5693,2.5693,2.5693,2.5693,2.5693,2.5693,2.5693,2.5693,2.5693,2.5693,2.5693,2.5693,2.5693,2.5693,2.5693,2.5693,2.5693,2.5693,2.5693,2.5693,2.5693,2.5693,2.5693,2.5693,2.5693,2.5693,2.5693,2.5693,2.5693,2.4902,2.3965,2.3906,2.3516,2.3091,2.3091,2.3091,2.3091,2.3091,2.3091,2.3091,2.3091,2.3149,2.3198,2.3198,2.3594,2.3906,2.3965,2.4228,2.4287,2.3935,0.0,2.3633,2.3149,2.3091,2.3247,2.3652,2.3315,2.3247,2.3662,2.335,2.3091,0.0,2.3091,2.3091,2.3091,2.3091,2.3091,2.3091,2.3091,2.3091,2.3091,2.3091,2.3091,2.3091,2.3091,2.334,2.3721,2.4199,2.4712,2.5283,2.5748,2.5917,2.5965,2.61,2.6052,2.6052,2.7057,2.7426,2.7558,2.8291,2.8291,2.8291,2.8291,2.7637,2.709,2.7021,2.6298,2.5762,2.5693,2.5693,2.5693,2.5693,2.5693,2.5693,2.5693,2.5693,2.5693,2.5693,2.5693,2.5693,2.5693,2.5693,2.5693,2.5693,2.5693,2.5693,2.5693,2.5693,2.5693,2.5693,2.5693,2.5693,2.5693,2.5693,2.5693,2.5693,2.5693,2.5693,2.5693,2.5693,2.5693,2.5693,2.5693,2.5693,2.5693,2.5693,2.5693,2.5693,2.5693,2.5693,2.5693,2.5693,2.5693,2.5693,2.5693,2.5322,2.4785,2.4414,2.3695,2.3091,2.3091,2.3091,2.3091,2.3091,2.3091,2.3091,2.3091,2.3437,2.3691,2.3691,2.4033,2.4443,2.4814,2.4619,2.4394,2.4336,0.0,2.3633,2.3149,2.3091,2.312,2.3188,2.314,2.312,2.3188,2.313,2.3091,2.3091,2.3091,2.3091,2.3091,2.3091,2.3091,2.3091,2.3091,2.3091,2.3091,2.3091,2.3091,2.3091,2.3091,2.313,2.3237,2.4027,2.494,2.5828,2.6623,2.6962,2.7047,2.7898,2.7709,2.7105,2.8121,2.8448,2.8495,2.8291,2.8291,2.8291,2.8291,2.7969,2.7627,2.7402,2.7031,2.6611,2.6152,2.6084,2.5996,2.5713,2.5693,2.5693,2.5693,2.5693,2.5693,2.5693,2.5693,2.5693,2.5693,2.5693,2.5693,2.5693,2.5693,2.5693,2.5693,2.5693,2.5693,2.5693,2.5693,2.5693,2.5693,2.5693,2.5693,2.5693,2.5693,2.5693,2.5693,2.5693,2.5693,2.5693,2.5693,2.5693,2.5693,2.5693,2.5693,2.5693,2.5693,2.5693,2.5693,2.5693,2.5693,2.5693,2.5693,2.542,2.4969,2.4258,2.3789,2.3437,2.3149,2.3091,2.3091,2.3091,2.3091,2.3091,2.3091,2.3486,2.3789,2.3789,2.4326,2.4834,2.5077,2.4697,0.0,0.0,2.3848,2.3315,2.312,2.3091,2.3091,2.3091,2.3091,2.3091,2.3091,2.3091,2.3091,2.3091,2.3091,2.3091,2.3091,2.3091,2.3091,2.3091,2.3091,2.3091,2.3091,2.3091,2.3091,2.3091,2.3091,2.3227,2.3525,2.4711,2.5615,2.6349,2.7518,2.8028,2.8075,2.8541,2.8402,2.8121,2.9143,2.951,2.9612,2.8291,2.8291,2.8291,2.8291,2.8213,2.8037,2.7767,2.763,2.7285,2.6621,2.6455,2.626,2.5879,2.5752,2.5693,2.5693,2.5693,2.5693,2.5693,2.5693,2.5693,2.5693,2.5693,2.5693,2.5693,2.5693,2.5693,2.5693,2.5693,2.5693,2.5693,2.5693,2.5693,2.5693,2.5693,2.5693,2.5693,2.5693,2.5693,2.5693,2.5693,2.5693,2.5693,2.5693,2.5693,2.5693,2.5693,2.5693,2.5693,2.5693,2.5693,2.5693,2.5693,2.5693,2.5693,2.5693,2.5488,2.5059,2.4297,2.4014,2.3828,2.3398,2.3247,2.3218,2.312,2.3169,2.3247,2.3247,2.3711,2.4082,2.4082,2.4707,2.5195,2.5135,0.0,0.0,0.0,2.3569,2.3091,2.3091,2.3091,2.3091,2.3091,2.3091,2.3091,2.3091,2.3091,2.3091,2.3091,2.3091,2.3091,2.3091,2.3091,2.3091,2.3091,2.3091,2.3091,2.3091,2.3091,2.3091,2.3101,2.3198,2.3467,2.3863,2.5139,2.6196,2.7056,2.8207,2.8819,2.905,2.9326,2.9235,2.9189,3.017,3.0543,3.0678,2.8291,2.8291,2.8291,2.8291,2.7969,2.7748,2.7718,2.7324,2.7041,2.6973,2.6631,2.6377,2.6338,2.5977,2.5693,2.5693,2.5693,2.5693,2.5693,2.5693,2.5693,2.5693,2.5693,2.5693,2.5693,2.5693,2.5693,2.5693,2.5693,2.5693,2.5693,2.5693,2.5693,2.5693,2.5693,2.5693,2.5693,2.5693,2.5693,2.5693,2.5693,2.5693,2.5693,2.5693,2.5693,2.5693,2.5693,2.5693,2.5693,2.5693,2.5693,2.5693,2.5693,2.5693,2.5693,2.5693,2.5664,2.5538,2.5107,2.4678,2.4268,2.3848,2.374,2.3633,2.3188,2.3457,2.374,2.374,2.4404,2.5018,2.5018,2.5371,2.5557,2.5184,0.0,0.0,2.3896,2.3393,2.3091,2.3091,2.3091,2.3091,2.3091,2.3091,2.3091,2.3091,2.3091,2.3091,2.3091,2.3091,2.3091,2.3091,2.3091,2.3091,2.3091,2.3091,2.3091,2.3091,2.3091,2.3091,2.311,2.3555,2.376,2.3838,2.4751,2.6218,2.8014,2.8484,2.9235,3.017,3.1104,3.0913,3.0215,3.1238,3.1572,3.1617,2.8291,2.8291,2.8291,2.8291,2.8164,2.8057,2.8057,2.791,2.7715,2.7451,2.7041,2.668,2.6416,2.5996,2.5693,2.5693,2.5693,2.5693,2.5693,2.5693,2.5693,2.5693,2.5693,2.5693,2.5693,2.5693,2.5693,2.5693,2.5693,2.5693,2.5693,2.5693,2.5693,2.5693,2.5693,2.5693,2.5693,2.5693,2.5693,2.5693,2.5693,2.5693,2.5693,2.5693,2.5693,2.5693,2.5693,2.5693,2.5693,2.5693,2.5693,2.5693,2.5693,2.5693,2.5693,2.5693,2.5693,2.5654,2.5527,2.5156,2.4717,2.4287,2.418,2.4141,2.3975,2.4062,2.418,2.418,2.4648,2.5116,2.5116,2.5205,2.5273,2.5145,0.0,2.3975,2.3809,2.3418,2.3091,2.3091,2.3091,2.3091,2.3091,2.3091,2.3091,2.3091,2.3091,2.3091,2.3091,2.3091,2.3091,2.3091,2.3091,2.3091,2.3091,2.3091,2.3091,2.3091,2.3091,2.3237,2.3545,2.3711,2.4082,2.4692,2.629,2.7551,2.8567,2.9999,3.0779,3.1193,3.1572,3.1472,3.1193,3.156,3.1761,3.1849,2.8291,2.8291,2.8291,2.8291,2.8291,2.8291,2.8291,2.8291,2.8193,2.79,2.749,2.706,2.6631,2.6201,2.584,2.5703,2.5693,2.5693,2.5693,2.5693,2.5693,2.5693,2.5693,2.5693,2.5693,2.5693,2.5693,2.5693,2.5693,2.5693,2.5693,2.5693,2.5693,2.5693,2.5693,2.5693,2.5693,2.5693,2.5693,2.5693,2.5693,2.5693,2.5693,2.5693,2.5693,2.5693,2.5693,2.5693,2.5693,2.5693,2.5693,2.5693,2.5693,2.5693,2.5693,2.5693,2.5693,2.5693,2.5693,2.5518,2.5166,2.4727,2.4619,2.458,2.4443,2.4521,2.4619,2.4619,2.4971,2.5283,2.5283,2.5213,2.5067,2.4883,2.4258,2.374,2.3603,2.3286,2.3091,2.3091,2.3091,2.3091,2.3091,2.3091,2.3091,2.3091,2.3091,2.3091,2.3091,2.3091,2.3091,2.3091,2.3091,2.3091,2.3091,2.3091,2.3091,2.3091,2.3091,2.3369,2.3799,2.3926,2.4385,2.521,2.7043,2.8156,2.8819,3.0543,3.1427,3.1705,3.1705,3.1705,3.1705,3.1749,3.1893,3.1981,2.8291,2.8291,2.8291,2.8291,2.8291,2.8291,2.8291,2.8291,2.8291,2.8291,2.792,2.75,2.706,2.6641,2.6211,2.5723,2.5693,2.5693,2.5693,2.5693,2.5693,2.5693,2.5693,2.5693,2.5693,2.5693,2.5693,2.5693,2.5693,2.5693,2.5693,2.5693,2.5693,2.5693,2.5693,2.5693,2.5693,2.5693,2.5693,2.5693,2.5693,2.5693,2.5693,2.5693,2.5693,2.5693,2.5693,2.5693,2.5693,2.5693,2.5693,2.5693,2.5693,2.5693,2.5693,2.5693,2.5693,2.5693,2.5693,2.5693,2.5586,2.5185,2.5116,2.4961,2.4521,2.4756,2.5116,2.5116,2.543,2.5693,2.5693,2.5371,2.4969,2.4492,2.4062,2.3633,2.3159,2.3091,2.3091,2.3091,2.3091,2.3091,2.3091,2.3091,2.3091,2.3091,2.3091,2.3091,2.3091,2.3091,2.3091,2.3091,2.3091,2.3091,2.3091,2.3091,2.3091,2.3091,2.3091,2.3369,2.3809,2.4228,2.4658,2.5183,2.6578,2.7793,2.8773,2.9795,3.0824,3.1705,3.1705,3.1705,3.1705,3.195,3.1994,3.2038,2.8291,2.8291,2.8291,2.8291,2.8291,2.8291,2.8291,2.8047,2.7959,2.8252,2.7656,2.7158,2.7031,2.6641,2.6211,2.5723,2.5693,2.5693,2.5693,2.5693,2.5693,2.5693,2.5693,2.5693,2.5693,2.5693,2.5693,2.5693,2.5693,2.5693,2.5693,2.5693,2.5693,2.5693,2.5693,2.5693,2.5693,2.5693,2.5693,2.5693,2.5693,2.5693,2.5693,2.5693,2.5693,2.5693,2.5693,2.5693,2.5693,2.5693,2.5693,2.5693,2.5693,2.5693,2.5693,2.5693,2.5693,2.5693,2.5693,2.5693,2.5654,2.5566,2.5537,2.5498,2.5323,2.5439,2.5537,2.5537,2.5644,2.5693,2.5693,2.5371,2.4969,2.4492,2.4062,2.3633,2.3159,2.3091,2.3091,2.3091,2.3091,2.3091,2.3091,2.3091,2.3091,2.3091,2.3091,2.3091,2.3091,2.3091,2.3091,2.3091,2.3091,2.3091,2.3091,2.3091,2.3091,2.3091,2.3091,2.3481,2.4238,2.4365,2.5179,2.6625,2.7776,2.8819,2.9841,3.0824,3.1427,3.1705,3.1705,3.1805,3.1937,3.1981,3.2201,3.2463,2.8291,2.8291,2.8291,2.8291,2.8291,2.8291,2.8291,2.8076,2.7949,2.8027,2.7598,2.7139,2.6807,2.6543,2.6211,2.5723,2.5693,2.5693,2.5693,2.5693,2.5693,2.5693,2.5693,2.5693,2.5693,2.5693,2.5693,2.5693,2.5693,2.5693,2.5693,2.5693,2.5693,2.5693,2.5693,2.5693,2.5693,2.5693,2.5693,2.5693,2.5693,2.5693,2.5693,2.5693,2.5693,2.5693,2.5693,2.5693,2.5693,2.5693,2.5693,2.5693,2.5693,2.5693,2.5693,2.5693,2.5693,2.5693,2.5693,2.5693,2.5693,2.5693,2.5693,2.5693,2.5693,2.5693,2.5693,2.5693,2.5693,2.5693,2.5693,2.5371,2.4969,2.4492,2.4062,2.3633,2.3159,2.3091,2.3091,2.3091,2.3091,2.3091,2.3091,2.3091,2.3091,2.3091,2.3091,2.3091,2.3091,2.3091,2.3091,2.3091,2.3091,2.3091,2.3091,2.3091,2.3179,2.3344,2.3179,2.3762,2.4955,2.4991,2.5962,2.7704,2.8824,2.9692,3.0396,3.1327,3.1705,3.1705,3.1805,3.1893,3.2038,3.2201,3.2463,3.2723,2.8291,2.8291,2.8291,2.8291,2.8291,2.8291,2.8291,2.8262,2.8115,2.7826,2.7738,2.7425,2.6582,2.6465,2.6269,2.5781,2.5713,2.5693,2.5693,2.5693,2.5693,2.5693,2.5693,2.5693,2.5693,2.5693,2.5693,2.5693,2.5693,2.5693,2.5693,2.5693,2.5693,2.5693,2.5693,2.5693,2.5693,2.5693,2.5693,2.5693,2.5693,2.5693,2.5693,2.5693,2.5693,2.5693,2.5693,2.5693,2.5693,2.5693,2.5693,2.5693,2.5693,2.5693,2.5693,2.5693,2.5693,2.5693,2.5693,2.5693,2.5693,2.5693,2.5693,2.5693,2.5693,2.5693,2.5693,2.5693,2.5693,2.5693,2.5693,2.54,2.4971,2.4492,2.4092,2.3682,2.3159,2.3091,2.3091,2.3091,2.3091,2.3091,2.3091,2.3091,2.3091,2.3091,2.3091,2.3091,2.3091,2.3091,2.3091,2.3091,2.3091,2.3091,2.3091,2.314,2.3379,2.3721,2.3286,2.4062,2.5799,2.5879,2.6862,2.8544,2.9726,3.0396,3.0678,3.1472,3.1761,3.1761,3.1937,3.2038,3.2113,3.255,3.2723,3.2766,2.8291,2.8291,2.8291,2.8291,2.8291,2.8291,2.8291,2.8018,2.7891,2.8125,2.7924,2.765,2.7464,2.709,2.6709,2.6289,2.5937,2.5693,2.5693,2.5693,2.5693,2.5693,2.5693,2.5693,2.5693,2.5693,2.5693,2.5693,2.5693,2.5693,2.5693,2.5693,2.5693,2.5693,2.5693,2.5693,2.5693,2.5693,2.5693,2.5693,2.5693,2.5693,2.5693,2.5693,2.5693,2.5693,2.5693,2.5693,2.5693,2.5693,2.5693,2.5693,2.5693,2.5693,2.5693,2.5693,2.5693,2.5693,2.5693,2.5693,2.5693,2.5693,2.5693,2.5693,2.5693,2.5693,2.5693,2.5693,2.5693,2.5693,2.5693,2.5615,2.5332,2.4541,2.4346,2.4014,2.3208,2.3091,2.3091,2.3091,2.3091,2.3091,2.3091,2.3091,2.3091,2.3091,2.3091,2.3091,2.3091,2.3091,2.3091,2.3091,2.3091,2.3091,2.3091,2.3477,2.3525,2.3237,2.314,2.4062,2.5879,2.5879,2.7394,3.0054,3.0305,3.0913,3.1705,3.2069,3.2125,3.1937,3.2213,3.2431,3.255,3.2667,3.2853,3.3025,2.8291,2.8291,2.8291,2.8291,2.8291,2.8291,2.8291,2.8105,2.7969,2.7988,2.7855,2.7588,2.7373,2.7148,2.6846,2.6426,2.5986,2.5693,2.5693,2.5693,2.5693,2.5693,2.5693,2.5693,2.5693,2.5693,2.5693,2.5693,2.5693,2.5693,2.5693,2.5693,2.5693,2.5693,2.5693,2.5693,2.5693,2.5693,2.5693,2.5693,2.5693,2.5693,2.5693,2.5693,2.5693,2.5693,2.5693,2.5693,2.5693,2.5693,2.5693,2.5693,2.5693,2.5693,2.5693,2.5693,2.5693,2.5693,2.5693,2.5693,2.5693,2.5693,2.5693,2.5693,2.5693,2.5693,2.5693,2.5693,2.5693,2.5693,2.5693,2.5693,2.5469,2.4834,2.4551,2.4189,2.3545,2.3227,2.3091,2.3091,2.3091,2.3091,2.3091,2.3091,2.3091,2.3091,2.3091,2.3091,2.3091,2.3091,2.3091,2.3091,2.334,2.3516,2.3777,2.4464,2.4777,2.4766,2.4554,2.5269,2.687,2.7365,2.8856,3.1013,3.1175,3.1649,3.2332,3.2388,3.23,3.2213,3.2431,3.2593,3.2723,3.2853,3.2982,3.3124,2.8291,2.8291,2.8291,2.8291,2.8291,2.8291,2.8291,2.8291,2.8164,2.7875,2.7826,2.7637,2.7275,2.7168,2.6953,2.6533,2.6162,2.5908,2.5908,2.5908,2.5908,2.5908,2.5908,2.5879,2.5801,2.5801,2.5762,2.5693,2.5693,2.5693,2.5693,2.5693,2.5693,2.5693,2.5693,2.5693,2.5693,2.5693,2.5693,2.5693,2.5693,2.5693,2.5693,2.5693,2.5693,2.5693,2.5693,2.5693,2.5693,2.5693,2.5693,2.5693,2.5693,2.5693,2.5693,2.5693,2.5693,2.5693,2.5693,2.5693,2.5693,2.5693,2.5693,2.5693,2.5693,2.5693,2.5693,2.5693,2.5693,2.5693,2.5693,2.5693,2.5596,2.5184,2.4766,2.4355,2.3857,2.3477,2.3179,2.3101,2.3091,2.3091,2.3091,2.3091,2.3091,2.3091,2.3091,2.3091,2.3091,2.3091,2.313,2.3198,2.3772,2.4255,2.4726,2.5756,2.6466,2.6834,2.6695,2.7205,2.8275,2.918,3.0403,3.1791,3.2017,3.2332,3.2667,3.2562,3.2475,3.2475,3.268,3.2766,3.281,3.3025,3.3124,3.3124,2.8291,2.8291,2.8291,2.8291,2.8291,2.8291,2.8291,2.8291,2.8271,2.8213,2.8203,2.8184,2.8125,2.7793,2.7402,2.6973,2.6875,2.6836,2.6836,2.6836,2.6836,2.6836,2.6836,2.667,2.6309,2.6299,2.6113,2.5693,2.5693,2.5693,2.5693,2.5693,2.5693,2.5693,2.5693,2.5693,2.5693,2.5693,2.5693,2.5693,2.5693,2.5693,2.5693,2.5693,2.5693,2.5693,2.5693,2.5693,2.5693,2.5693,2.5693,2.5693,2.5693,2.5693,2.5693,2.5693,2.5693,2.5693,2.5693,2.5693,2.5693,2.5693,2.5693,2.5693,2.5693,2.5693,2.5693,2.5693,2.5693,2.5693,2.5693,2.5693,2.5596,2.5184,2.5067,2.4697,2.3896,2.374,2.3555,2.314,2.3091,2.3091,2.3091,2.3091,2.3091,2.3091,2.3091,2.3091,2.3091,2.3091,2.331,2.3691,2.4621,2.5282,2.5692,2.7106,2.785,2.793,2.9083,2.9622,2.9621,2.9797,3.0854,3.2568,3.2599,3.2624,3.2723,3.2896,3.2853,3.268,3.2939,3.3038,3.3038,3.3081,3.3124,3.3124,2.8291,2.8291,2.8291,2.8291,2.8291,2.8291,2.8291,2.8291,2.8291,2.8291,2.8291,2.8291,2.8291,2.792,2.764,2.7393,2.7158,2.7012,2.7012,2.7012,2.7012,2.7012,2.7012,2.6934,2.6738,2.6504,2.6299,2.6103,2.581,2.5693,2.5693,2.5693,2.5693,2.5693,2.5693,2.5693,2.5693,2.5693,2.5693,2.5693,2.5693,2.5693,2.5693,2.5693,2.5693,2.5693,2.5693,2.5693,2.5693,2.5693,2.5693,2.5693,2.5693,2.5693,2.5693,2.5693,2.5693,2.5693,2.5693,2.5693,2.5693,2.5693,2.5693,2.5693,2.5693,2.5693,2.5693,2.5693,2.5693,2.5693,2.5693,2.5693,2.5625,2.5478,2.5234,2.4979,2.4607,2.4287,2.3984,2.3555,2.3496,2.3408,2.312,2.3091,2.3091,2.3091,2.3091,2.3091,2.3091,2.3369,2.3851,2.4607,2.5533,2.647,2.7459,2.8679,2.9375,2.9656,3.0578,3.074,3.0239,3.0837,3.1683,3.2711,3.2711,3.281,3.2939,3.3038,3.3025,3.2939,3.3068,3.3124,3.3124,3.3124,3.3124,3.3124]}]]